Wetterdaten: Freitag, 24.02.2017
Datum Zeit Temp. A. Feuchte A. Luftdruck Regen Wind Richtung Richtung Sonnenschein ET UV Solar Taupunkt Windchill Windben Empfang
24.02.2017 00:00 12,7 C 46 % 997,9 hPa 0,0 l/m 13,9 km/h (3 Bft) SW 229 0 min 0,000 mm 0,0 UV-I 0 W/m 1,4 C 8,8 C 17,7 km/h (3 Bft) 100,00 %
24.02.2017 00:02 12,8 C 46 % 997,9 hPa 0,0 l/m 10,7 km/h (2 Bft) W-SW 238 0 min 0,000 mm 0,0 UV-I 0 W/m 1,5 C 10,3 C 16,1 km/h (3 Bft) 100,00 %
24.02.2017 00:03 12,8 C 46 % 997,9 hPa 0,0 l/m 14,1 km/h (3 Bft) SW 236 0 min 0,000 mm 0,0 UV-I 0 W/m 1,5 C 8,9 C 19,3 km/h (3 Bft) 100,00 %
24.02.2017 00:04 12,7 C 46 % 997,9 hPa 0,0 l/m 12,3 km/h (3 Bft) W-SW 240 0 min 0,000 mm 0,0 UV-I 0 W/m 1,4 C 9,5 C 20,9 km/h (4 Bft) 100,00 %
24.02.2017 00:05 12,7 C 46 % 997,9 hPa 0,0 l/m 15,1 km/h (3 Bft) SW 230 0 min 0,000 mm 0,0 UV-I 0 W/m 1,4 C 8,4 C 19,3 km/h (3 Bft) 95,65 %
24.02.2017 00:06 12,7 C 46 % 997,9 hPa 0,0 l/m 11,0 km/h (2 Bft) SW 228 0 min 0,000 mm 0,0 UV-I 0 W/m 1,4 C 10,1 C 16,1 km/h (3 Bft) 100,00 %
24.02.2017 00:07 12,6 C 46 % 997,9 hPa 0,0 l/m 13,7 km/h (3 Bft) SW 229 0 min 0,000 mm 0,0 UV-I 0 W/m 1,3 C 8,8 C 20,9 km/h (4 Bft) 100,00 %
24.02.2017 00:08 12,6 C 46 % 997,9 hPa 0,0 l/m 11,9 km/h (2 Bft) W-SW 249 0 min 0,000 mm 0,0 UV-I 0 W/m 1,3 C 9,6 C 19,3 km/h (3 Bft) 100,00 %
24.02.2017 00:09 12,6 C 46 % 997,8 hPa 0,0 l/m 10,5 km/h (2 Bft) W-SW 238 0 min 0,000 mm 0,0 UV-I 0 W/m 1,3 C 10,2 C 20,9 km/h (4 Bft) 100,00 %
24.02.2017 00:10 12,6 C 46 % 997,8 hPa 0,0 l/m 14,3 km/h (3 Bft) SW 234 0 min 0,000 mm 0,0 UV-I 0 W/m 1,3 C 8,6 C 20,9 km/h (4 Bft) 100,00 %
24.02.2017 00:11 12,6 C 46 % 997,8 hPa 0,0 l/m 13,1 km/h (3 Bft) SW 227 0 min 0,000 mm 0,0 UV-I 0 W/m 1,3 C 9,0 C 17,7 km/h (3 Bft) 91,67 %
24.02.2017 00:12 12,6 C 46 % 997,9 hPa 0,0 l/m 10,9 km/h (2 Bft) S-SW 204 0 min 0,000 mm 0,0 UV-I 0 W/m 1,3 C 10,0 C 16,1 km/h (3 Bft) 100,00 %
24.02.2017 00:13 12,6 C 46 % 997,8 hPa 0,0 l/m 11,7 km/h (2 Bft) W-SW 243 0 min 0,000 mm 0,0 UV-I 0 W/m 1,3 C 9,6 C 16,1 km/h (3 Bft) 100,00 %
24.02.2017 00:14 12,6 C 46 % 997,9 hPa 0,0 l/m 12,7 km/h (3 Bft) SW 230 0 min 0,000 mm 0,0 UV-I 0 W/m 1,3 C 9,2 C 17,7 km/h (3 Bft) 95,65 %
24.02.2017 00:15 12,6 C 47 % 997,9 hPa 0,0 l/m 13,3 km/h (3 Bft) SW 230 0 min 0,000 mm 0,0 UV-I 0 W/m 1,6 C 9,0 C 17,7 km/h (3 Bft) 100,00 %
24.02.2017 00:16 12,6 C 47 % 997,8 hPa 0,0 l/m 14,0 km/h (3 Bft) W-SW 244 0 min 0,000 mm 0,0 UV-I 0 W/m 1,6 C 8,7 C 19,3 km/h (3 Bft) 100,00 %
24.02.2017 00:17 12,6 C 46 % 997,8 hPa 0,0 l/m 10,4 km/h (2 Bft) W-SW 246 0 min 0,000 mm 0,0 UV-I 0 W/m 1,3 C 10,3 C 14,5 km/h (3 Bft) 100,00 %
24.02.2017 00:18 12,6 C 47 % 997,8 hPa 0,0 l/m 12,7 km/h (3 Bft) SW 235 0 min 0,000 mm 0,0 UV-I 0 W/m 1,6 C 9,2 C 17,7 km/h (3 Bft) 100,00 %
24.02.2017 00:19 12,6 C 47 % 997,8 hPa 0,0 l/m 12,2 km/h (2 Bft) SW 218 0 min 0,000 mm 0,0 UV-I 0 W/m 1,6 C 9,4 C 16,1 km/h (3 Bft) 100,00 %
24.02.2017 00:20 12,6 C 47 % 997,8 hPa 0,0 l/m 11,2 km/h (2 Bft) W-SW 240 0 min 0,000 mm 0,0 UV-I 0 W/m 1,6 C 9,9 C 14,5 km/h (3 Bft) 100,00 %
24.02.2017 00:21 12,5 C 47 % 997,8 hPa 0,0 l/m 12,5 km/h (3 Bft) W-SW 253 0 min 0,000 mm 0,0 UV-I 0 W/m 1,5 C 9,2 C 20,9 km/h (4 Bft) 95,83 %
24.02.2017 00:22 12,5 C 47 % 997,8 hPa 0,0 l/m 11,8 km/h (2 Bft) SW 236 0 min 0,000 mm 0,0 UV-I 0 W/m 1,5 C 9,5 C 16,1 km/h (3 Bft) 95,65 %
24.02.2017 00:23 12,5 C 47 % 997,7 hPa 0,0 l/m 9,3 km/h (2 Bft) W-SW 252 0 min 0,000 mm 0,0 UV-I 0 W/m 1,5 C 10,7 C 12,9 km/h (3 Bft) 95,83 %
24.02.2017 00:24 12,5 C 46 % 997,7 hPa 0,0 l/m 9,2 km/h (2 Bft) S-SW 213 0 min 0,000 mm 0,0 UV-I 0 W/m 1,2 C 10,8 C 12,9 km/h (3 Bft) 95,65 %
24.02.2017 00:25 12,6 C 46 % 997,7 hPa 0,0 l/m 10,2 km/h (2 Bft) SW 232 0 min 0,000 mm 0,0 UV-I 0 W/m 1,3 C 10,4 C 14,5 km/h (3 Bft) 100,00 %
24.02.2017 00:26 12,6 C 46 % 997,8 hPa 0,0 l/m 10,9 km/h (2 Bft) W-SW 237 0 min 0,000 mm 0,0 UV-I 0 W/m 1,3 C 10,0 C 16,1 km/h (3 Bft) 100,00 %
24.02.2017 00:27 12,6 C 46 % 997,8 hPa 0,0 l/m 9,0 km/h (2 Bft) SW 226 0 min 0,000 mm 0,0 UV-I 0 W/m 1,3 C 11,0 C 12,9 km/h (3 Bft) 97,14 %
24.02.2017 00:28 12,6 C 46 % 997,8 hPa 0,0 l/m 10,2 km/h (2 Bft) W-SW 242 0 min 0,000 mm 0,0 UV-I 0 W/m 1,3 C 10,4 C 14,5 km/h (3 Bft) 93,33 %
24.02.2017 00:29 12,6 C 46 % 997,8 hPa 0,0 l/m 9,9 km/h (2 Bft) SW 233 0 min 0,000 mm 0,0 UV-I 0 W/m 1,3 C 10,5 C 12,9 km/h (3 Bft) 96,55 %
24.02.2017 00:30 12,6 C 46 % 997,9 hPa 0,0 l/m 8,8 km/h (2 Bft) W-SW 249 0 min 0,000 mm 0,0 UV-I 0 W/m 1,3 C 11,1 C 14,5 km/h (3 Bft) 100,00 %
24.02.2017 00:31 12,6 C 46 % 997,8 hPa 0,0 l/m 8,4 km/h (2 Bft) SW 236 0 min 0,000 mm 0,0 UV-I 0 W/m 1,3 C 11,3 C 12,9 km/h (3 Bft) 100,00 %
24.02.2017 00:32 12,6 C 47 % 997,8 hPa 0,0 l/m 11,7 km/h (2 Bft) SW 226 0 min 0,000 mm 0,0 UV-I 0 W/m 1,6 C 9,6 C 20,9 km/h (4 Bft) 100,00 %
24.02.2017 00:33 12,5 C 46 % 997,8 hPa 0,0 l/m 13,8 km/h (3 Bft) W-SW 237 0 min 0,000 mm 0,0 UV-I 0 W/m 1,2 C 8,6 C 17,7 km/h (3 Bft) 100,00 %
24.02.2017 00:34 12,5 C 46 % 997,8 hPa 0,0 l/m 13,1 km/h (3 Bft) SW 232 0 min 0,000 mm 0,0 UV-I 0 W/m 1,2 C 8,9 C 17,7 km/h (3 Bft) 100,00 %
24.02.2017 00:35 12,6 C 46 % 997,8 hPa 0,0 l/m 11,8 km/h (2 Bft) W-SW 240 0 min 0,000 mm 0,0 UV-I 0 W/m 1,3 C 9,6 C 16,1 km/h (3 Bft) 100,00 %
24.02.2017 00:36 12,6 C 46 % 997,7 hPa 0,0 l/m 11,7 km/h (2 Bft) W-SW 238 0 min 0,000 mm 0,0 UV-I 0 W/m 1,3 C 9,6 C 14,5 km/h (3 Bft) 96,30 %
24.02.2017 00:37 12,6 C 46 % 997,8 hPa 0,0 l/m 9,2 km/h (2 Bft) W 260 0 min 0,000 mm 0,0 UV-I 0 W/m 1,3 C 10,9 C 14,5 km/h (3 Bft) 100,00 %
24.02.2017 00:38 12,6 C 46 % 997,8 hPa 0,0 l/m 8,9 km/h (2 Bft) SW 220 0 min 0,000 mm 0,0 UV-I 0 W/m 1,3 C 11,1 C 14,5 km/h (3 Bft) 100,00 %
24.02.2017 00:39 12,6 C 46 % 997,9 hPa 0,0 l/m 12,8 km/h (3 Bft) SW 226 0 min 0,000 mm 0,0 UV-I 0 W/m 1,3 C 9,2 C 19,3 km/h (3 Bft) 95,65 %
24.02.2017 00:40 12,6 C 46 % 997,8 hPa 0,0 l/m 10,6 km/h (2 Bft) W-SW 237 0 min 0,000 mm 0,0 UV-I 0 W/m 1,3 C 10,2 C 19,3 km/h (3 Bft) 95,83 %
24.02.2017 00:41 12,6 C 46 % 997,9 hPa 0,0 l/m 11,8 km/h (2 Bft) SW 232 0 min 0,000 mm 0,0 UV-I 0 W/m 1,3 C 9,6 C 16,1 km/h (3 Bft) 83,33 %
24.02.2017 00:42 12,6 C 46 % 997,9 hPa 0,0 l/m 7,9 km/h (2 Bft) SW 236 0 min 0,000 mm 0,0 UV-I 0 W/m 1,3 C 11,6 C 9,7 km/h (2 Bft) 100,00 %
24.02.2017 00:43 12,6 C 46 % 997,8 hPa 0,0 l/m 7,3 km/h (2 Bft) W-SW 242 0 min 0,000 mm 0,0 UV-I 0 W/m 1,3 C 12,0 C 12,9 km/h (3 Bft) 100,00 %
24.02.2017 00:44 12,6 C 46 % 997,9 hPa 0,0 l/m 9,0 km/h (2 Bft) SW 229 0 min 0,000 mm 0,0 UV-I 0 W/m 1,3 C 11,0 C 11,3 km/h (2 Bft) 97,56 %
24.02.2017 00:45 12,5 C 47 % 997,9 hPa 0,0 l/m 10,4 km/h (2 Bft) W-SW 245 0 min 0,000 mm 0,0 UV-I 0 W/m 1,5 C 10,2 C 12,9 km/h (3 Bft) 100,00 %
24.02.2017 00:46 12,5 C 47 % 997,9 hPa 0,0 l/m 8,1 km/h (2 Bft) W-SW 245 0 min 0,000 mm 0,0 UV-I 0 W/m 1,5 C 11,4 C 12,9 km/h (3 Bft) 100,00 %
24.02.2017 00:47 12,4 C 47 % 997,9 hPa 0,0 l/m 9,0 km/h (2 Bft) W-SW 256 0 min 0,000 mm 0,0 UV-I 0 W/m 1,4 C 10,8 C 12,9 km/h (3 Bft) 93,33 %
24.02.2017 00:48 12,4 C 47 % 997,8 hPa 0,0 l/m 10,1 km/h (2 Bft) W-SW 250 0 min 0,000 mm 0,0 UV-I 0 W/m 1,4 C 10,2 C 14,5 km/h (3 Bft) 100,00 %
24.02.2017 00:49 12,4 C 47 % 997,9 hPa 0,0 l/m 8,5 km/h (2 Bft) W-SW 244 0 min 0,000 mm 0,0 UV-I 0 W/m 1,4 C 11,1 C 14,5 km/h (3 Bft) 91,67 %
24.02.2017 00:50 12,4 C 47 % 997,9 hPa 0,0 l/m 9,9 km/h (2 Bft) W-SW 242 0 min 0,000 mm 0,0 UV-I 0 W/m 1,4 C 10,3 C 12,9 km/h (3 Bft) 92,86 %
24.02.2017 00:51 12,4 C 47 % 997,9 hPa 0,0 l/m 10,9 km/h (2 Bft) W-SW 242 0 min 0,000 mm 0,0 UV-I 0 W/m 1,4 C 9,8 C 16,1 km/h (3 Bft) 94,87 %
24.02.2017 00:52 12,4 C 47 % 997,8 hPa 0,0 l/m 10,7 km/h (2 Bft) SW 234 0 min 0,000 mm 0,0 UV-I 0 W/m 1,4 C 9,9 C 16,1 km/h (3 Bft) 100,00 %
24.02.2017 00:53 12,4 C 47 % 997,9 hPa 0,0 l/m 11,1 km/h (2 Bft) W-SW 256 0 min 0,000 mm 0,0 UV-I 0 W/m 1,4 C 9,7 C 16,1 km/h (3 Bft) 91,67 %
24.02.2017 00:54 12,4 C 47 % 997,9 hPa 0,0 l/m 11,1 km/h (2 Bft) W 270 0 min 0,000 mm 0,0 UV-I 0 W/m 1,4 C 9,7 C 14,5 km/h (3 Bft) 96,15 %
24.02.2017 00:55 12,4 C 47 % 997,9 hPa 0,0 l/m 10,3 km/h (2 Bft) W 263 0 min 0,000 mm 0,0 UV-I 0 W/m 1,4 C 10,1 C 12,9 km/h (3 Bft) 100,00 %
24.02.2017 00:56 12,3 C 47 % 997,9 hPa 0,0 l/m 12,3 km/h (3 Bft) W-SW 253 0 min 0,000 mm 0,0 UV-I 0 W/m 1,3 C 9,0 C 14,5 km/h (3 Bft) 91,30 %
24.02.2017 00:57 12,4 C 47 % 997,9 hPa 0,0 l/m 10,5 km/h (2 Bft) W 259 0 min 0,000 mm 0,0 UV-I 0 W/m 1,4 C 10,0 C 14,5 km/h (3 Bft) 95,83 %
24.02.2017 00:58 12,3 C 47 % 997,9 hPa 0,0 l/m 9,3 km/h (2 Bft) W 263 0 min 0,000 mm 0,0 UV-I 0 W/m 1,3 C 10,5 C 12,9 km/h (3 Bft) 95,65 %
24.02.2017 00:59 12,3 C 47 % 997,9 hPa 0,0 l/m 10,5 km/h (2 Bft) W-SW 250 0 min 0,000 mm 0,0 UV-I 0 W/m 1,3 C 9,9 C 14,5 km/h (3 Bft) 100,00 %
24.02.2017 01:00 12,3 C 47 % 998,0 hPa 0,0 l/m 11,1 km/h (2 Bft) W-SW 245 0 min 0,076 mm 0,0 UV-I 0 W/m 1,3 C 9,6 C 14,5 km/h (3 Bft) 95,65 %
24.02.2017 01:01 12,2 C 47 % 997,9 hPa 0,0 l/m 10,7 km/h (2 Bft) W 260 0 min 0,000 mm 0,0 UV-I 0 W/m 1,2 C 9,7 C 14,5 km/h (3 Bft) 95,83 %
24.02.2017 01:02 12,2 C 48 % 997,9 hPa 0,0 l/m 12,1 km/h (2 Bft) W-SW 254 0 min 0,000 mm 0,0 UV-I 0 W/m 1,5 C 9,0 C 20,9 km/h (4 Bft) 91,30 %
24.02.2017 01:03 12,2 C 48 % 997,9 hPa 0,0 l/m 14,0 km/h (3 Bft) W 264 0 min 0,000 mm 0,0 UV-I 0 W/m 1,5 C 8,2 C 19,3 km/h (3 Bft) 95,83 %
24.02.2017 01:04 12,2 C 47 % 997,9 hPa 0,0 l/m 18,1 km/h (3 Bft) W-SW 250 0 min 0,000 mm 0,0 UV-I 0 W/m 1,2 C 6,7 C 22,5 km/h (4 Bft) 95,65 %
24.02.2017 01:05 12,2 C 47 % 997,9 hPa 0,0 l/m 18,2 km/h (3 Bft) W-SW 241 0 min 0,000 mm 0,0 UV-I 0 W/m 1,2 C 6,7 C 27,4 km/h (4 Bft) 95,83 %
24.02.2017 01:06 12,3 C 48 % 998,0 hPa 0,0 l/m 11,0 km/h (2 Bft) SW 225 0 min 0,000 mm 0,0 UV-I 0 W/m 1,6 C 9,6 C 14,5 km/h (3 Bft) 100,00 %
24.02.2017 01:07 12,3 C 48 % 998,0 hPa 0,0 l/m 19,0 km/h (3 Bft) W-SW 254 0 min 0,000 mm 0,0 UV-I 0 W/m 1,6 C 6,6 C 25,7 km/h (4 Bft) 91,30 %
24.02.2017 01:08 12,3 C 48 % 998,0 hPa 0,0 l/m 17,1 km/h (3 Bft) W-SW 252 0 min 0,000 mm 0,0 UV-I 0 W/m 1,6 C 7,2 C 20,9 km/h (4 Bft) 100,00 %
24.02.2017 01:09 12,3 C 48 % 998,0 hPa 0,0 l/m 18,3 km/h (3 Bft) W-SW 242 0 min 0,000 mm 0,0 UV-I 0 W/m 1,6 C 6,8 C 25,7 km/h (4 Bft) 95,65 %
24.02.2017 01:10 12,3 C 48 % 998,0 hPa 0,0 l/m 19,0 km/h (3 Bft) W-SW 252 0 min 0,000 mm 0,0 UV-I 0 W/m 1,6 C 6,6 C 27,4 km/h (4 Bft) 100,00 %
24.02.2017 01:11 12,4 C 48 % 997,9 hPa 0,0 l/m 17,6 km/h (3 Bft) W-SW 257 0 min 0,000 mm 0,0 UV-I 0 W/m 1,7 C 7,1 C 20,9 km/h (4 Bft) 91,30 %
24.02.2017 01:12 12,4 C 48 % 997,9 hPa 0,0 l/m 18,8 km/h (3 Bft) W-SW 239 0 min 0,000 mm 0,0 UV-I 0 W/m 1,7 C 6,7 C 29,0 km/h (5 Bft) 91,67 %
24.02.2017 01:13 12,4 C 48 % 998,0 hPa 0,0 l/m 21,5 km/h (4 Bft) W-SW 257 0 min 0,000 mm 0,0 UV-I 0 W/m 1,7 C 6,0 C 29,0 km/h (5 Bft) 100,00 %
24.02.2017 01:14 12,4 C 48 % 998,0 hPa 0,0 l/m 17,0 km/h (3 Bft) W-SW 241 0 min 0,000 mm 0,0 UV-I 0 W/m 1,7 C 7,3 C 20,9 km/h (4 Bft) 91,67 %
24.02.2017 01:15 12,4 C 48 % 997,9 hPa 0,0 l/m 14,6 km/h (3 Bft) W-SW 257 0 min 0,000 mm 0,0 UV-I 0 W/m 1,7 C 8,2 C 22,5 km/h (4 Bft) 100,00 %
24.02.2017 01:16 12,4 C 48 % 998,0 hPa 0,0 l/m 19,4 km/h (3 Bft) W-SW 258 0 min 0,000 mm 0,0 UV-I 0 W/m 1,7 C 6,6 C 25,7 km/h (4 Bft) 91,67 %
24.02.2017 01:17 12,4 C 48 % 998,0 hPa 0,0 l/m 22,4 km/h (4 Bft) W-SW 239 0 min 0,000 mm 0,0 UV-I 0 W/m 1,7 C 5,7 C 27,4 km/h (4 Bft) 100,00 %
24.02.2017 01:18 12,4 C 48 % 997,9 hPa 0,0 l/m 19,3 km/h (3 Bft) SW 229 0 min 0,000 mm 0,0 UV-I 0 W/m 1,7 C 6,6 C 27,4 km/h (4 Bft) 96,67 %
24.02.2017 01:19 12,5 C 48 % 998,0 hPa 0,0 l/m 19,8 km/h (3 Bft) W-SW 251 0 min 0,000 mm 0,0 UV-I 0 W/m 1,8 C 6,6 C 27,4 km/h (4 Bft) 100,00 %
24.02.2017 01:20 12,5 C 48 % 998,0 hPa 0,0 l/m 18,0 km/h (3 Bft) W-SW 252 0 min 0,000 mm 0,0 UV-I 0 W/m 1,8 C 7,1 C 22,5 km/h (4 Bft) 96,88 %
24.02.2017 01:21 12,5 C 48 % 998,0 hPa 0,0 l/m 14,5 km/h (3 Bft) W-SW 252 0 min 0,000 mm 0,0 UV-I 0 W/m 1,8 C 8,4 C 24,1 km/h (4 Bft) 91,67 %
24.02.2017 01:22 12,5 C 49 % 998,0 hPa 0,0 l/m 18,6 km/h (3 Bft) W 263 0 min 0,000 mm 0,0 UV-I 0 W/m 2,1 C 6,9 C 27,4 km/h (4 Bft) 100,00 %
24.02.2017 01:23 12,5 C 48 % 998,1 hPa 0,0 l/m 24,6 km/h (4 Bft) W 260 0 min 0,000 mm 0,0 UV-I 0 W/m 1,8 C 5,3 C 30,6 km/h (5 Bft) 95,65 %
24.02.2017 01:24 12,5 C 48 % 998,1 hPa 0,0 l/m 21,0 km/h (4 Bft) W-SW 257 0 min 0,000 mm 0,0 UV-I 0 W/m 1,8 C 6,2 C 29,0 km/h (5 Bft) 100,00 %
24.02.2017 01:25 12,5 C 49 % 998,1 hPa 0,0 l/m 23,6 km/h (4 Bft) W-SW 248 0 min 0,000 mm 0,0 UV-I 0 W/m 2,1 C 5,6 C 33,8 km/h (5 Bft) 95,65 %
24.02.2017 01:26 12,6 C 49 % 998,1 hPa 0,0 l/m 14,4 km/h (3 Bft) W-SW 248 0 min 0,000 mm 0,0 UV-I 0 W/m 2,2 C 8,5 C 19,3 km/h (3 Bft) 96,30 %
24.02.2017 01:27 12,6 C 49 % 998,1 hPa 0,0 l/m 17,5 km/h (3 Bft) W 263 0 min 0,000 mm 0,0 UV-I 0 W/m 2,2 C 7,4 C 22,5 km/h (4 Bft) 100,00 %
24.02.2017 01:28 12,5 C 49 % 998,1 hPa 0,0 l/m 21,9 km/h (4 Bft) W-SW 257 0 min 0,000 mm 0,0 UV-I 0 W/m 2,1 C 6,0 C 30,6 km/h (5 Bft) 100,00 %
24.02.2017 01:29 12,5 C 49 % 998,1 hPa 0,0 l/m 18,8 km/h (3 Bft) W-SW 238 0 min 0,000 mm 0,0 UV-I 0 W/m 2,1 C 6,9 C 29,0 km/h (5 Bft) 96,15 %
24.02.2017 01:30 12,5 C 49 % 998,1 hPa 0,0 l/m 20,2 km/h (4 Bft) W-SW 256 0 min 0,000 mm 0,0 UV-I 0 W/m 2,1 C 6,5 C 33,8 km/h (5 Bft) 100,00 %
24.02.2017 01:31 12,4 C 49 % 998,1 hPa 0,0 l/m 18,6 km/h (3 Bft) W 262 0 min 0,000 mm 0,0 UV-I 0 W/m 2,0 C 6,8 C 22,5 km/h (4 Bft) 100,00 %
24.02.2017 01:32 12,4 C 49 % 998,1 hPa 0,0 l/m 15,6 km/h (3 Bft) W 274 0 min 0,000 mm 0,0 UV-I 0 W/m 2,0 C 7,8 C 19,3 km/h (3 Bft) 100,00 %
24.02.2017 01:33 12,4 C 49 % 998,2 hPa 0,0 l/m 16,8 km/h (3 Bft) W-SW 248 0 min 0,000 mm 0,0 UV-I 0 W/m 2,0 C 7,4 C 22,5 km/h (4 Bft) 96,30 %
24.02.2017 01:34 12,4 C 49 % 998,2 hPa 0,0 l/m 17,9 km/h (3 Bft) W-SW 254 0 min 0,000 mm 0,0 UV-I 0 W/m 2,0 C 7,0 C 20,9 km/h (4 Bft) 95,65 %
24.02.2017 01:35 12,4 C 50 % 998,2 hPa 0,0 l/m 21,5 km/h (4 Bft) W 264 0 min 0,000 mm 0,0 UV-I 0 W/m 2,3 C 6,0 C 29,0 km/h (5 Bft) 95,83 %
24.02.2017 01:36 12,3 C 50 % 998,2 hPa 0,0 l/m 19,5 km/h (3 Bft) W-SW 245 0 min 0,000 mm 0,0 UV-I 0 W/m 2,2 C 6,4 C 27,4 km/h (4 Bft) 91,30 %
24.02.2017 01:37 12,3 C 50 % 998,2 hPa 0,0 l/m 16,2 km/h (3 Bft) SW 232 0 min 0,000 mm 0,0 UV-I 0 W/m 2,2 C 7,5 C 19,3 km/h (3 Bft) 100,00 %
24.02.2017 01:38 12,3 C 50 % 998,2 hPa 0,0 l/m 18,9 km/h (3 Bft) W 261 0 min 0,000 mm 0,0 UV-I 0 W/m 2,2 C 6,6 C 27,4 km/h (4 Bft) 100,00 %
24.02.2017 01:39 12,3 C 50 % 998,2 hPa 0,0 l/m 21,8 km/h (4 Bft) W 277 0 min 0,000 mm 0,0 UV-I 0 W/m 2,2 C 5,8 C 35,4 km/h (5 Bft) 100,00 %
24.02.2017 01:40 12,3 C 50 % 998,1 hPa 0,0 l/m 13,0 km/h (3 Bft) W 281 0 min 0,000 mm 0,0 UV-I 0 W/m 2,2 C 8,7 C 16,1 km/h (3 Bft) 97,41 %
24.02.2017 01:41 12,3 C 50 % 998,1 hPa 0,0 l/m 20,8 km/h (4 Bft) W 263 0 min 0,000 mm 0,0 UV-I 0 W/m 2,2 C 6,0 C 25,7 km/h (4 Bft) 97,73 %
24.02.2017 01:42 12,2 C 50 % 998,1 hPa 0,0 l/m 16,9 km/h (3 Bft) W 271 0 min 0,000 mm 0,0 UV-I 0 W/m 2,1 C 7,1 C 27,4 km/h (4 Bft) 100,00 %
24.02.2017 01:43 12,2 C 50 % 998,1 hPa 0,0 l/m 18,4 km/h (3 Bft) W-SW 248 0 min 0,000 mm 0,0 UV-I 0 W/m 2,1 C 6,6 C 20,9 km/h (4 Bft) 100,00 %
24.02.2017 01:44 12,2 C 50 % 998,1 hPa 0,0 l/m 19,7 km/h (3 Bft) W-SW 246 0 min 0,000 mm 0,0 UV-I 0 W/m 2,1 C 6,2 C 24,1 km/h (4 Bft) 96,30 %
24.02.2017 01:45 12,2 C 50 % 998,1 hPa 0,0 l/m 15,9 km/h (3 Bft) W 266 0 min 0,000 mm 0,0 UV-I 0 W/m 2,1 C 7,5 C 19,3 km/h (3 Bft) 95,65 %
24.02.2017 01:46 12,1 C 51 % 998,1 hPa 0,0 l/m 18,7 km/h (3 Bft) W-SW 247 0 min 0,000 mm 0,0 UV-I 0 W/m 2,3 C 6,4 C 24,1 km/h (4 Bft) 100,00 %
24.02.2017 01:47 12,1 C 51 % 998,1 hPa 0,0 l/m 17,3 km/h (3 Bft) W 267 0 min 0,000 mm 0,0 UV-I 0 W/m 2,3 C 6,9 C 22,5 km/h (4 Bft) 95,83 %
24.02.2017 01:48 12,1 C 51 % 998,2 hPa 0,0 l/m 19,6 km/h (3 Bft) SW 229 0 min 0,000 mm 0,0 UV-I 0 W/m 2,3 C 6,1 C 25,7 km/h (4 Bft) 100,00 %
24.02.2017 01:49 12,0 C 51 % 998,1 hPa 0,0 l/m 13,4 km/h (3 Bft) W 259 0 min 0,000 mm 0,0 UV-I 0 W/m 2,2 C 8,2 C 19,3 km/h (3 Bft) 100,00 %
24.02.2017 01:50 12,0 C 52 % 998,1 hPa 0,0 l/m 15,0 km/h (3 Bft) SW 236 0 min 0,000 mm 0,0 UV-I 0 W/m 2,5 C 7,6 C 20,9 km/h (4 Bft) 95,83 %
24.02.2017 01:51 12,0 C 51 % 998,1 hPa 0,0 l/m 14,8 km/h (3 Bft) W 261 0 min 0,000 mm 0,0 UV-I 0 W/m 2,2 C 7,6 C 20,9 km/h (4 Bft) 95,65 %
24.02.2017 01:52 11,9 C 52 % 998,2 hPa 0,0 l/m 16,0 km/h (3 Bft) W 267 0 min 0,000 mm 0,0 UV-I 0 W/m 2,4 C 7,1 C 22,5 km/h (4 Bft) 100,00 %
24.02.2017 01:53 11,9 C 52 % 998,2 hPa 0,0 l/m 16,8 km/h (3 Bft) SW 222 0 min 0,000 mm 0,0 UV-I 0 W/m 2,4 C 6,8 C 20,9 km/h (4 Bft) 100,00 %
24.02.2017 01:54 11,9 C 52 % 998,2 hPa 0,0 l/m 15,0 km/h (3 Bft) S-SW 205 0 min 0,000 mm 0,0 UV-I 0 W/m 2,4 C 7,4 C 17,7 km/h (3 Bft) 95,83 %
24.02.2017 01:55 11,9 C 52 % 998,2 hPa 0,0 l/m 13,9 km/h (3 Bft) W-SW 253 0 min 0,000 mm 0,0 UV-I 0 W/m 2,4 C 7,9 C 19,3 km/h (3 Bft) 100,00 %
24.02.2017 01:56 11,9 C 52 % 998,2 hPa 0,0 l/m 13,2 km/h (3 Bft) SW 232 0 min 0,000 mm 0,0 UV-I 0 W/m 2,4 C 8,2 C 19,3 km/h (3 Bft) 100,00 %
24.02.2017 01:57 11,8 C 52 % 998,2 hPa 0,0 l/m 14,3 km/h (3 Bft) W-SW 257 0 min 0,000 mm 0,0 UV-I 0 W/m 2,3 C 7,6 C 17,7 km/h (3 Bft) 95,65 %
24.02.2017 01:58 11,8 C 52 % 998,2 hPa 0,0 l/m 13,9 km/h (3 Bft) W-SW 253 0 min 0,000 mm 0,0 UV-I 0 W/m 2,3 C 7,8 C 19,3 km/h (3 Bft) 100,00 %
24.02.2017 01:59 11,8 C 52 % 998,2 hPa 0,0 l/m 15,8 km/h (3 Bft) W-SW 254 0 min 0,000 mm 0,0 UV-I 0 W/m 2,3 C 7,0 C 20,9 km/h (4 Bft) 100,00 %
24.02.2017 02:00 11,8 C 52 % 998,2 hPa 0,0 l/m 16,7 km/h (3 Bft) SW 227 0 min 0,102 mm 0,0 UV-I 0 W/m 2,3 C 6,7 C 24,1 km/h (4 Bft) 96,30 %
24.02.2017 02:01 11,8 C 52 % 998,2 hPa 0,0 l/m 14,3 km/h (3 Bft) SW 219 0 min 0,000 mm 0,0 UV-I 0 W/m 2,3 C 7,6 C 19,3 km/h (3 Bft) 96,15 %
24.02.2017 02:02 11,8 C 52 % 998,2 hPa 0,0 l/m 13,8 km/h (3 Bft) SW 228 0 min 0,000 mm 0,0 UV-I 0 W/m 2,3 C 7,8 C 17,7 km/h (3 Bft) 100,00 %
24.02.2017 02:03 11,8 C 52 % 998,2 hPa 0,0 l/m 10,5 km/h (2 Bft) W-SW 240 0 min 0,000 mm 0,0 UV-I 0 W/m 2,3 C 9,3 C 17,7 km/h (3 Bft) 100,00 %
24.02.2017 02:04 11,8 C 53 % 998,2 hPa 0,0 l/m 10,3 km/h (2 Bft) W-SW 244 0 min 0,000 mm 0,0 UV-I 0 W/m 2,5 C 9,4 C 16,1 km/h (3 Bft) 87,50 %
24.02.2017 02:05 11,8 C 53 % 998,1 hPa 0,0 l/m 14,1 km/h (3 Bft) SW 221 0 min 0,000 mm 0,0 UV-I 0 W/m 2,5 C 7,7 C 20,9 km/h (4 Bft) 100,00 %
24.02.2017 02:06 11,8 C 53 % 998,1 hPa 0,0 l/m 10,4 km/h (2 Bft) W-SW 239 0 min 0,000 mm 0,0 UV-I 0 W/m 2,5 C 9,4 C 16,1 km/h (3 Bft) 100,00 %
24.02.2017 02:07 11,8 C 53 % 998,2 hPa 0,0 l/m 12,5 km/h (3 Bft) SW 228 0 min 0,000 mm 0,0 UV-I 0 W/m 2,5 C 8,4 C 17,7 km/h (3 Bft) 100,00 %
24.02.2017 02:08 11,7 C 53 % 998,2 hPa 0,0 l/m 10,7 km/h (2 Bft) SW 234 0 min 0,000 mm 0,0 UV-I 0 W/m 2,4 C 9,1 C 16,1 km/h (3 Bft) 100,00 %
24.02.2017 02:09 11,7 C 53 % 998,2 hPa 0,0 l/m 11,4 km/h (2 Bft) W-SW 248 0 min 0,000 mm 0,0 UV-I 0 W/m 2,4 C 8,8 C 14,5 km/h (3 Bft) 100,00 %
24.02.2017 02:10 11,6 C 54 % 998,3 hPa 0,0 l/m 10,0 km/h (2 Bft) W-SW 238 0 min 0,000 mm 0,0 UV-I 0 W/m 2,6 C 9,4 C 16,1 km/h (3 Bft) 96,15 %
24.02.2017 02:11 11,6 C 54 % 998,2 hPa 0,0 l/m 12,1 km/h (2 Bft) W-SW 237 0 min 0,000 mm 0,0 UV-I 0 W/m 2,6 C 8,3 C 16,1 km/h (3 Bft) 100,00 %
24.02.2017 02:12 11,6 C 54 % 998,3 hPa 0,0 l/m 14,2 km/h (3 Bft) W-SW 243 0 min 0,000 mm 0,0 UV-I 0 W/m 2,6 C 7,4 C 20,9 km/h (4 Bft) 100,00 %
24.02.2017 02:13 11,5 C 54 % 998,2 hPa 0,0 l/m 16,7 km/h (3 Bft) SW 232 0 min 0,000 mm 0,0 UV-I 0 W/m 2,5 C 6,3 C 20,9 km/h (4 Bft) 100,00 %
24.02.2017 02:14 11,5 C 54 % 998,2 hPa 0,0 l/m 9,4 km/h (2 Bft) SW 219 0 min 0,000 mm 0,0 UV-I 0 W/m 2,5 C 9,6 C 12,9 km/h (3 Bft) 100,00 %
24.02.2017 02:15 11,5 C 54 % 998,2 hPa 0,0 l/m 8,4 km/h (2 Bft) W-SW 245 0 min 0,000 mm 0,0 UV-I 0 W/m 2,5 C 10,2 C 11,3 km/h (2 Bft) 100,00 %
24.02.2017 02:16 11,5 C 54 % 998,3 hPa 0,0 l/m 6,6 km/h (2 Bft) S-SW 203 0 min 0,000 mm 0,0 UV-I 0 W/m 2,5 C 11,4 C 12,9 km/h (3 Bft) 96,15 %
24.02.2017 02:17 11,4 C 54 % 998,2 hPa 0,0 l/m 7,2 km/h (2 Bft) W-SW 238 0 min 0,000 mm 0,0 UV-I 0 W/m 2,4 C 10,9 C 11,3 km/h (2 Bft) 100,00 %
24.02.2017 02:18 11,4 C 54 % 998,3 hPa 0,0 l/m 8,6 km/h (2 Bft) SW 233 0 min 0,000 mm 0,0 UV-I 0 W/m 2,4 C 9,9 C 11,3 km/h (2 Bft) 100,00 %
24.02.2017 02:19 11,4 C 54 % 998,3 hPa 0,0 l/m 8,0 km/h (2 Bft) SW 221 0 min 0,000 mm 0,0 UV-I 0 W/m 2,4 C 10,3 C 11,3 km/h (2 Bft) 96,30 %
24.02.2017 02:20 11,4 C 54 % 998,2 hPa 0,0 l/m 6,6 km/h (2 Bft) SW 232 0 min 0,000 mm 0,0 UV-I 0 W/m 2,4 C 11,3 C 8,0 km/h (2 Bft) 100,00 %
24.02.2017 02:21 11,3 C 55 % 998,2 hPa 0,0 l/m 5,0 km/h (1 Bft) W 261 0 min 0,000 mm 0,0 UV-I 0 W/m 2,6 C 11,3 C 6,4 km/h (2 Bft) 100,00 %
24.02.2017 02:22 11,3 C 54 % 998,2 hPa 0,0 l/m 7,6 km/h (2 Bft) SW 229 0 min 0,000 mm 0,0 UV-I 0 W/m 2,3 C 10,5 C 9,7 km/h (2 Bft) 100,00 %
24.02.2017 02:23 11,2 C 55 % 998,3 hPa 0,0 l/m 7,0 km/h (2 Bft) SW 225 0 min 0,000 mm 0,0 UV-I 0 W/m 2,5 C 10,8 C 9,7 km/h (2 Bft) 92,59 %
24.02.2017 02:24 11,2 C 54 % 998,3 hPa 0,0 l/m 7,2 km/h (2 Bft) SW 219 0 min 0,000 mm 0,0 UV-I 0 W/m 2,2 C 10,6 C 9,7 km/h (2 Bft) 100,00 %
24.02.2017 02:25 11,2 C 54 % 998,3 hPa 0,0 l/m 5,2 km/h (1 Bft) SW 233 0 min 0,000 mm 0,0 UV-I 0 W/m 2,2 C 11,2 C 8,0 km/h (2 Bft) 100,00 %
24.02.2017 02:26 11,2 C 54 % 998,3 hPa 0,0 l/m 6,6 km/h (2 Bft) SW 236 0 min 0,000 mm 0,0 UV-I 0 W/m 2,2 C 11,1 C 11,3 km/h (2 Bft) 95,83 %
24.02.2017 02:27 11,1 C 54 % 998,4 hPa 0,0 l/m 12,2 km/h (2 Bft) S-SW 207 0 min 0,000 mm 0,0 UV-I 0 W/m 2,2 C 7,7 C 17,7 km/h (3 Bft) 100,00 %
24.02.2017 02:28 11,1 C 55 % 998,3 hPa 0,0 l/m 7,7 km/h (2 Bft) W-SW 249 0 min 0,000 mm 0,0 UV-I 0 W/m 2,4 C 10,2 C 9,7 km/h (2 Bft) 100,00 %
24.02.2017 02:29 11,1 C 55 % 998,4 hPa 0,0 l/m 9,4 km/h (2 Bft) SW 230 0 min 0,000 mm 0,0 UV-I 0 W/m 2,4 C 9,1 C 11,3 km/h (2 Bft) 96,55 %
24.02.2017 02:30 11,1 C 55 % 998,4 hPa 0,0 l/m 9,6 km/h (2 Bft) SW 225 0 min 0,000 mm 0,0 UV-I 0 W/m 2,4 C 9,0 C 12,9 km/h (3 Bft) 96,30 %
24.02.2017 02:31 11,1 C 55 % 998,4 hPa 0,0 l/m 10,6 km/h (2 Bft) SW 223 0 min 0,000 mm 0,0 UV-I 0 W/m 2,4 C 8,5 C 14,5 km/h (3 Bft) 100,00 %
24.02.2017 02:32 11,1 C 56 % 998,4 hPa 0,0 l/m 7,1 km/h (2 Bft) W-SW 247 0 min 0,000 mm 0,0 UV-I 0 W/m 2,7 C 10,6 C 12,9 km/h (3 Bft) 100,00 %
24.02.2017 02:33 11,1 C 56 % 998,4 hPa 0,0 l/m 10,5 km/h (2 Bft) SW 223 0 min 0,000 mm 0,0 UV-I 0 W/m 2,7 C 8,5 C 16,1 km/h (3 Bft) 91,30 %
24.02.2017 02:34 11,1 C 56 % 998,4 hPa 0,0 l/m 12,2 km/h (2 Bft) W-SW 242 0 min 0,000 mm 0,0 UV-I 0 W/m 2,7 C 7,7 C 17,7 km/h (3 Bft) 100,00 %
24.02.2017 02:35 11,1 C 56 % 998,4 hPa 0,0 l/m 9,7 km/h (2 Bft) W-SW 238 0 min 0,000 mm 0,0 UV-I 0 W/m 2,7 C 9,0 C 14,5 km/h (3 Bft) 100,00 %
24.02.2017 02:36 11,1 C 56 % 998,4 hPa 0,0 l/m 18,8 km/h (3 Bft) SW 227 0 min 0,000 mm 0,0 UV-I 0 W/m 2,7 C 5,1 C 25,7 km/h (4 Bft) 95,83 %
24.02.2017 02:37 11,2 C 56 % 998,3 hPa 0,0 l/m 17,8 km/h (3 Bft) SW 215 0 min 0,000 mm 0,0 UV-I 0 W/m 2,8 C 5,6 C 24,1 km/h (4 Bft) 100,00 %
24.02.2017 02:38 11,2 C 56 % 998,3 hPa 0,0 l/m 15,6 km/h (3 Bft) W 269 0 min 0,000 mm 0,0 UV-I 0 W/m 2,8 C 6,4 C 17,7 km/h (3 Bft) 95,83 %
24.02.2017 02:39 11,3 C 56 % 998,3 hPa 0,0 l/m 23,7 km/h (4 Bft) W-SW 242 0 min 0,000 mm 0,0 UV-I 0 W/m 2,8 C 3,9 C 41,8 km/h (6 Bft) 100,00 %
24.02.2017 02:40 11,3 C 56 % 998,3 hPa 0,0 l/m 26,1 km/h (4 Bft) W 274 0 min 0,000 mm 0,0 UV-I 0 W/m 2,8 C 3,3 C 35,4 km/h (5 Bft) 96,00 %
24.02.2017 02:41 11,4 C 56 % 998,2 hPa 0,0 l/m 28,4 km/h (4 Bft) W-SW 247 0 min 0,000 mm 0,0 UV-I 0 W/m 2,9 C 3,0 C 41,8 km/h (6 Bft) 100,00 %
24.02.2017 02:42 11,5 C 56 % 998,3 hPa 0,0 l/m 22,2 km/h (4 Bft) W-NW 286 0 min 0,000 mm 0,0 UV-I 0 W/m 3,0 C 4,6 C 27,4 km/h (4 Bft) 100,00 %
24.02.2017 02:43 11,6 C 56 % 998,3 hPa 0,0 l/m 23,4 km/h (4 Bft) W 261 0 min 0,000 mm 0,0 UV-I 0 W/m 3,1 C 4,4 C 33,8 km/h (5 Bft) 100,00 %
24.02.2017 02:44 11,7 C 56 % 998,3 hPa 0,0 l/m 26,5 km/h (4 Bft) W 275 0 min 0,000 mm 0,0 UV-I 0 W/m 3,2 C 3,8 C 38,6 km/h (5 Bft) 89,66 %
24.02.2017 02:45 11,8 C 55 % 998,4 hPa 0,0 l/m 26,6 km/h (4 Bft) SW 236 0 min 0,000 mm 0,0 UV-I 0 W/m 3,1 C 3,9 C 33,8 km/h (5 Bft) 100,00 %
24.02.2017 02:46 11,8 C 55 % 998,3 hPa 0,0 l/m 22,1 km/h (4 Bft) W-SW 254 0 min 0,000 mm 0,0 UV-I 0 W/m 3,1 C 5,0 C 38,6 km/h (5 Bft) 100,00 %
24.02.2017 02:47 11,9 C 55 % 998,4 hPa 0,0 l/m 23,7 km/h (4 Bft) W 262 0 min 0,000 mm 0,0 UV-I 0 W/m 3,2 C 4,7 C 30,6 km/h (5 Bft) 97,78 %
24.02.2017 02:48 11,9 C 55 % 998,3 hPa 0,0 l/m 22,5 km/h (4 Bft) W 263 0 min 0,000 mm 0,0 UV-I 0 W/m 3,2 C 5,0 C 33,8 km/h (5 Bft) 100,00 %
24.02.2017 02:49 12,0 C 55 % 998,3 hPa 0,0 l/m 29,0 km/h (5 Bft) W-SW 254 0 min 0,000 mm 0,0 UV-I 0 W/m 3,2 C 3,7 C 43,5 km/h (6 Bft) 100,00 %
24.02.2017 02:50 12,1 C 55 % 998,3 hPa 0,0 l/m 25,2 km/h (4 Bft) W-SW 238 0 min 0,000 mm 0,0 UV-I 0 W/m 3,3 C 4,6 C 35,4 km/h (5 Bft) 92,86 %
24.02.2017 02:51 12,1 C 55 % 998,4 hPa 0,0 l/m 22,3 km/h (4 Bft) SW 231 0 min 0,000 mm 0,0 UV-I 0 W/m 3,3 C 5,4 C 33,8 km/h (5 Bft) 100,00 %
24.02.2017 02:52 12,2 C 56 % 998,4 hPa 0,0 l/m 24,3 km/h (4 Bft) S-SW 196 0 min 0,000 mm 0,0 UV-I 0 W/m 3,7 C 5,0 C 33,8 km/h (5 Bft) 100,00 %
24.02.2017 02:53 12,2 C 55 % 998,3 hPa 0,0 l/m 30,1 km/h (5 Bft) W 261 0 min 0,000 mm 0,0 UV-I 0 W/m 3,4 C 3,7 C 48,3 km/h (6 Bft) 100,00 %
24.02.2017 02:54 12,2 C 55 % 998,4 hPa 0,0 l/m 26,4 km/h (4 Bft) SW 225 0 min 0,000 mm 0,0 UV-I 0 W/m 3,4 C 4,5 C 43,5 km/h (6 Bft) 95,65 %
24.02.2017 02:55 12,2 C 55 % 998,3 hPa 0,0 l/m 27,2 km/h (4 Bft) W-SW 244 0 min 0,000 mm 0,0 UV-I 0 W/m 3,4 C 4,3 C 48,3 km/h (6 Bft) 100,00 %
24.02.2017 02:56 12,3 C 55 % 998,4 hPa 0,0 l/m 19,8 km/h (3 Bft) W-SW 254 0 min 0,000 mm 0,0 UV-I 0 W/m 3,5 C 6,3 C 29,0 km/h (5 Bft) 95,65 %
24.02.2017 02:57 12,3 C 56 % 998,4 hPa 0,0 l/m 21,2 km/h (4 Bft) W-SW 238 0 min 0,000 mm 0,0 UV-I 0 W/m 3,8 C 5,9 C 32,2 km/h (5 Bft) 96,30 %
24.02.2017 02:58 12,3 C 56 % 998,4 hPa 0,0 l/m 25,4 km/h (4 Bft) W-SW 244 0 min 0,000 mm 0,0 UV-I 0 W/m 3,8 C 4,9 C 35,4 km/h (5 Bft) 95,65 %
24.02.2017 02:59 12,3 C 56 % 998,4 hPa 0,0 l/m 25,5 km/h (4 Bft) W 276 0 min 0,000 mm 0,0 UV-I 0 W/m 3,8 C 4,8 C 35,4 km/h (5 Bft) 100,00 %
24.02.2017 03:00 12,3 C 56 % 998,5 hPa 0,0 l/m 28,7 km/h (4 Bft) W 271 0 min 0,076 mm 0,0 UV-I 0 W/m 3,8 C 4,1 C 37,0 km/h (5 Bft) 94,12 %
24.02.2017 03:01 12,3 C 56 % 998,5 hPa 0,0 l/m 30,4 km/h (5 Bft) W-SW 246 0 min 0,000 mm 0,0 UV-I 0 W/m 3,8 C 3,8 C 41,8 km/h (6 Bft) 100,00 %
24.02.2017 03:02 12,3 C 56 % 998,5 hPa 0,0 l/m 27,1 km/h (4 Bft) W-SW 249 0 min 0,000 mm 0,0 UV-I 0 W/m 3,8 C 4,5 C 40,2 km/h (6 Bft) 95,65 %
24.02.2017 03:03 12,3 C 56 % 998,4 hPa 0,0 l/m 22,1 km/h (4 Bft) W-SW 253 0 min 0,000 mm 0,0 UV-I 0 W/m 3,8 C 5,7 C 35,4 km/h (5 Bft) 91,67 %
24.02.2017 03:04 12,3 C 56 % 998,6 hPa 0,0 l/m 21,3 km/h (4 Bft) W 266 0 min 0,000 mm 0,0 UV-I 0 W/m 3,8 C 5,9 C 30,6 km/h (5 Bft) 100,00 %
24.02.2017 03:05 12,3 C 56 % 998,5 hPa 0,0 l/m 27,4 km/h (4 Bft) W-SW 246 0 min 0,000 mm 0,0 UV-I 0 W/m 3,8 C 4,4 C 37,0 km/h (5 Bft) 92,59 %
24.02.2017 03:06 12,3 C 56 % 998,5 hPa 0,0 l/m 27,8 km/h (4 Bft) W 261 0 min 0,000 mm 0,0 UV-I 0 W/m 3,8 C 4,3 C 41,8 km/h (6 Bft) 100,00 %
24.02.2017 03:07 12,3 C 56 % 998,5 hPa 0,0 l/m 25,2 km/h (4 Bft) W-SW 248 0 min 0,000 mm 0,0 UV-I 0 W/m 3,8 C 4,9 C 35,4 km/h (5 Bft) 96,15 %
24.02.2017 03:08 12,3 C 56 % 998,6 hPa 0,0 l/m 22,6 km/h (4 Bft) SW 219 0 min 0,000 mm 0,0 UV-I 0 W/m 3,8 C 5,5 C 29,0 km/h (5 Bft) 100,00 %
24.02.2017 03:09 12,4 C 56 % 998,6 hPa 0,0 l/m 29,0 km/h (5 Bft) W 266 0 min 0,000 mm 0,0 UV-I 0 W/m 3,9 C 4,2 C 37,0 km/h (5 Bft) 91,30 %
24.02.2017 03:10 12,4 C 56 % 998,5 hPa 0,0 l/m 26,4 km/h (4 Bft) W 263 0 min 0,000 mm 0,0 UV-I 0 W/m 3,9 C 4,8 C 35,4 km/h (5 Bft) 100,00 %
24.02.2017 03:11 12,4 C 57 % 998,7 hPa 0,0 l/m 23,5 km/h (4 Bft) W-SW 252 0 min 0,000 mm 0,0 UV-I 0 W/m 4,1 C 5,4 C 33,8 km/h (5 Bft) 91,30 %
24.02.2017 03:12 12,4 C 57 % 998,6 hPa 0,0 l/m 24,6 km/h (4 Bft) W 261 0 min 0,000 mm 0,0 UV-I 0 W/m 4,1 C 5,2 C 33,8 km/h (5 Bft) 95,83 %
24.02.2017 03:13 12,4 C 57 % 998,7 hPa 0,0 l/m 21,5 km/h (4 Bft) W 263 0 min 0,000 mm 0,0 UV-I 0 W/m 4,1 C 6,0 C 37,0 km/h (5 Bft) 95,65 %
24.02.2017 03:14 12,3 C 57 % 998,7 hPa 0,0 l/m 19,2 km/h (3 Bft) W-SW 246 0 min 0,000 mm 0,0 UV-I 0 W/m 4,0 C 6,5 C 30,6 km/h (5 Bft) 95,83 %
24.02.2017 03:15 12,3 C 57 % 998,7 hPa 0,0 l/m 14,1 km/h (3 Bft) SW 231 0 min 0,000 mm 0,0 UV-I 0 W/m 4,0 C 8,3 C 19,3 km/h (3 Bft) 100,00 %
24.02.2017 03:16 12,3 C 57 % 998,8 hPa 0,0 l/m 17,1 km/h (3 Bft) W-SW 252 0 min 0,000 mm 0,0 UV-I 0 W/m 4,0 C 7,2 C 20,9 km/h (4 Bft) 92,59 %
24.02.2017 03:17 12,3 C 57 % 998,8 hPa 0,0 l/m 15,3 km/h (3 Bft) W 273 0 min 0,000 mm 0,0 UV-I 0 W/m 4,0 C 7,8 C 20,9 km/h (4 Bft) 100,00 %
24.02.2017 03:18 12,2 C 58 % 998,8 hPa 0,0 l/m 17,6 km/h (3 Bft) W 273 0 min 0,000 mm 0,0 UV-I 0 W/m 4,2 C 6,9 C 24,1 km/h (4 Bft) 96,00 %
24.02.2017 03:19 12,2 C 58 % 998,9 hPa 0,0 l/m 17,5 km/h (3 Bft) W-SW 254 0 min 0,000 mm 0,0 UV-I 0 W/m 4,2 C 6,9 C 24,1 km/h (4 Bft) 92,31 %
24.02.2017 03:20 12,2 C 58 % 998,9 hPa 0,0 l/m 15,4 km/h (3 Bft) W 263 0 min 0,000 mm 0,0 UV-I 0 W/m 4,2 C 7,6 C 22,5 km/h (4 Bft) 100,00 %
24.02.2017 03:21 12,2 C 58 % 998,7 hPa 0,0 l/m 15,7 km/h (3 Bft) W 272 0 min 0,000 mm 0,0 UV-I 0 W/m 4,2 C 7,5 C 22,5 km/h (4 Bft) 95,65 %
24.02.2017 03:22 12,2 C 58 % 998,8 hPa 0,0 l/m 21,5 km/h (4 Bft) W-SW 246 0 min 0,000 mm 0,0 UV-I 0 W/m 4,2 C 5,7 C 29,0 km/h (5 Bft) 100,00 %
24.02.2017 03:23 12,1 C 58 % 998,8 hPa 0,0 l/m 25,1 km/h (4 Bft) W-SW 248 0 min 0,000 mm 0,0 UV-I 0 W/m 4,1 C 4,7 C 35,4 km/h (5 Bft) 93,33 %
24.02.2017 03:24 12,1 C 58 % 998,8 hPa 0,0 l/m 25,8 km/h (4 Bft) W 269 0 min 0,000 mm 0,0 UV-I 0 W/m 4,1 C 4,5 C 41,8 km/h (6 Bft) 97,56 %
24.02.2017 03:25 12,1 C 58 % 998,8 hPa 0,0 l/m 22,7 km/h (4 Bft) SW 232 0 min 0,000 mm 0,0 UV-I 0 W/m 4,1 C 5,2 C 32,2 km/h (5 Bft) 91,67 %
24.02.2017 03:26 12,1 C 58 % 998,8 hPa 0,0 l/m 23,3 km/h (4 Bft) W-SW 249 0 min 0,000 mm 0,0 UV-I 0 W/m 4,1 C 5,1 C 32,2 km/h (5 Bft) 96,88 %
24.02.2017 03:27 12,1 C 58 % 998,8 hPa 0,0 l/m 26,6 km/h (4 Bft) W-SW 253 0 min 0,000 mm 0,0 UV-I 0 W/m 4,1 C 4,3 C 35,4 km/h (5 Bft) 96,30 %
24.02.2017 03:28 12,1 C 58 % 998,8 hPa 0,0 l/m 18,7 km/h (3 Bft) W 262 0 min 0,000 mm 0,0 UV-I 0 W/m 4,1 C 6,4 C 35,4 km/h (5 Bft) 100,00 %
24.02.2017 03:29 12,1 C 58 % 998,8 hPa 0,0 l/m 21,4 km/h (4 Bft) W-NW 297 0 min 0,000 mm 0,0 UV-I 0 W/m 4,1 C 5,6 C 41,8 km/h (6 Bft) 96,30 %
24.02.2017 03:30 12,1 C 58 % 999,0 hPa 0,0 l/m 18,6 km/h (3 Bft) W 275 0 min 0,000 mm 0,0 UV-I 0 W/m 4,1 C 6,4 C 27,4 km/h (4 Bft) 95,65 %
24.02.2017 03:31 12,0 C 58 % 999,1 hPa 0,0 l/m 17,9 km/h (3 Bft) W-SW 248 0 min 0,000 mm 0,0 UV-I 0 W/m 4,0 C 6,5 C 25,7 km/h (4 Bft) 92,59 %
24.02.2017 03:32 11,9 C 60 % 999,2 hPa 0,0 l/m 11,7 km/h (2 Bft) W-SW 257 0 min 0,000 mm 0,0 UV-I 0 W/m 4,4 C 8,8 C 24,1 km/h (4 Bft) 88,46 %
24.02.2017 03:33 11,8 C 60 % 999,1 hPa 0,0 l/m 19,2 km/h (3 Bft) W 262 0 min 0,000 mm 0,0 UV-I 0 W/m 4,3 C 5,9 C 27,4 km/h (4 Bft) 100,00 %
24.02.2017 03:34 11,7 C 61 % 999,3 hPa 0,0 l/m 16,9 km/h (3 Bft) NW 304 0 min 0,000 mm 0,0 UV-I 0 W/m 4,4 C 6,5 C 43,5 km/h (6 Bft) 100,00 %
24.02.2017 03:35 11,4 C 61 % 999,1 hPa 0,0 l/m 13,5 km/h (3 Bft) W 271 0 min 0,000 mm 0,0 UV-I 0 W/m 4,2 C 7,4 C 27,4 km/h (4 Bft) 93,33 %
24.02.2017 03:36 11,2 C 62 % 999,3 hPa 0,0 l/m 18,2 km/h (3 Bft) W-NW 284 0 min 0,000 mm 0,0 UV-I 0 W/m 4,2 C 5,4 C 27,4 km/h (4 Bft) 96,15 %
24.02.2017 03:37 10,9 C 63 % 999,3 hPa 0,0 l/m 14,6 km/h (3 Bft) W 272 0 min 0,000 mm 0,0 UV-I 0 W/m 4,1 C 6,4 C 27,4 km/h (4 Bft) 96,30 %
24.02.2017 03:38 10,7 C 65 % 999,5 hPa 0,0 l/m 12,5 km/h (3 Bft) W 275 0 min 0,000 mm 0,0 UV-I 0 W/m 4,4 C 7,1 C 20,9 km/h (4 Bft) 100,00 %
24.02.2017 03:39 10,5 C 66 % 999,6 hPa 0,0 l/m 17,8 km/h (3 Bft) W 265 0 min 0,000 mm 0,0 UV-I 0 W/m 4,4 C 4,7 C 35,4 km/h (5 Bft) 100,00 %
24.02.2017 03:40 10,3 C 66 % 999,5 hPa 0,0 l/m 13,1 km/h (3 Bft) W 277 0 min 0,000 mm 0,0 UV-I 0 W/m 4,2 C 6,3 C 25,7 km/h (4 Bft) 95,65 %
24.02.2017 03:41 10,2 C 67 % 999,4 hPa 0,0 l/m 14,9 km/h (3 Bft) SW 215 0 min 0,000 mm 0,0 UV-I 0 W/m 4,4 C 5,4 C 25,7 km/h (4 Bft) 96,30 %
24.02.2017 03:42 10,1 C 68 % 999,4 hPa 0,0 l/m 16,1 km/h (3 Bft) W-SW 239 0 min 0,000 mm 0,0 UV-I 0 W/m 4,5 C 4,8 C 35,4 km/h (5 Bft) 93,33 %
24.02.2017 03:43 9,9 C 68 % 999,4 hPa 0,0 l/m 16,9 km/h (3 Bft) NW 306 0 min 0,000 mm 0,0 UV-I 0 W/m 4,3 C 4,3 C 30,6 km/h (5 Bft) 100,00 %
24.02.2017 03:44 9,8 C 69 % 999,7 hPa 0,0 l/m 11,5 km/h (2 Bft) W-NW 291 0 min 0,000 mm 0,0 UV-I 0 W/m 4,4 C 6,5 C 19,3 km/h (3 Bft) 100,00 %
24.02.2017 03:45 9,7 C 70 % 999,6 hPa 0,0 l/m 15,5 km/h (3 Bft) NW 305 0 min 0,000 mm 0,0 UV-I 0 W/m 4,5 C 4,6 C 29,0 km/h (5 Bft) 96,15 %
24.02.2017 03:46 9,6 C 70 % 999,6 hPa 0,0 l/m 12,1 km/h (2 Bft) W 275 0 min 0,000 mm 0,0 UV-I 0 W/m 4,4 C 6,0 C 25,7 km/h (4 Bft) 96,15 %
24.02.2017 03:47 9,5 C 71 % 999,6 hPa 0,0 l/m 13,9 km/h (3 Bft) W-NW 289 0 min 0,000 mm 0,0 UV-I 0 W/m 4,5 C 5,0 C 20,9 km/h (4 Bft) 100,00 %
24.02.2017 03:48 9,4 C 71 % 999,7 hPa 0,0 l/m 13,1 km/h (3 Bft) W 268 0 min 0,000 mm 0,0 UV-I 0 W/m 4,4 C 5,3 C 25,7 km/h (4 Bft) 100,00 %
24.02.2017 03:49 9,3 C 72 % 999,7 hPa 0,0 l/m 14,2 km/h (3 Bft) W-NW 285 0 min 0,000 mm 0,0 UV-I 0 W/m 4,5 C 4,6 C 30,6 km/h (5 Bft) 96,15 %
24.02.2017 03:50 9,3 C 72 % 999,6 hPa 0,0 l/m 8,2 km/h (2 Bft) W 279 0 min 0,000 mm 0,0 UV-I 0 W/m 4,5 C 8,0 C 24,1 km/h (4 Bft) 100,00 %
24.02.2017 03:51 9,2 C 73 % 999,9 hPa 0,0 l/m 15,4 km/h (3 Bft) W-SW 258 0 min 0,000 mm 0,0 UV-I 0 W/m 4,6 C 4,0 C 24,1 km/h (4 Bft) 100,00 %
24.02.2017 03:52 9,2 C 73 % 999,8 hPa 0,0 l/m 16,8 km/h (3 Bft) NW 314 0 min 0,000 mm 0,0 UV-I 0 W/m 4,6 C 3,4 C 30,6 km/h (5 Bft) 100,00 %
24.02.2017 03:53 9,1 C 73 % 999,8 hPa 0,0 l/m 10,8 km/h (2 Bft) W 273 0 min 0,000 mm 0,0 UV-I 0 W/m 4,5 C 6,1 C 17,7 km/h (3 Bft) 100,00 %
24.02.2017 03:54 9,1 C 73 % 999,8 hPa 0,0 l/m 15,7 km/h (3 Bft) W 269 0 min 0,000 mm 0,0 UV-I 0 W/m 4,5 C 3,7 C 32,2 km/h (5 Bft) 97,73 %
24.02.2017 03:55 9,0 C 74 % 999,8 hPa 0,0 l/m 12,0 km/h (2 Bft) W-SW 249 0 min 0,000 mm 0,0 UV-I 0 W/m 4,6 C 5,4 C 25,7 km/h (4 Bft) 100,00 %
24.02.2017 03:56 8,9 C 74 % 999,9 hPa 0,0 l/m 15,4 km/h (3 Bft) W 261 0 min 0,000 mm 0,0 UV-I 0 W/m 4,5 C 3,6 C 25,7 km/h (4 Bft) 100,00 %
24.02.2017 03:57 8,9 C 74 % 999,9 hPa 0,0 l/m 19,4 km/h (3 Bft) W 267 0 min 0,000 mm 0,0 UV-I 0 W/m 4,5 C 2,1 C 29,0 km/h (5 Bft) 95,65 %
24.02.2017 03:58 8,9 C 74 % 1000,0 hPa 0,0 l/m 14,7 km/h (3 Bft) W-NW 286 0 min 0,000 mm 0,0 UV-I 0 W/m 4,5 C 3,9 C 24,1 km/h (4 Bft) 100,00 %
24.02.2017 03:59 8,9 C 74 % 999,9 hPa 0,0 l/m 20,1 km/h (4 Bft) W 264 0 min 0,000 mm 0,0 UV-I 0 W/m 4,5 C 1,8 C 29,0 km/h (5 Bft) 100,00 %
24.02.2017 04:00 8,8 C 75 % 999,9 hPa 0,0 l/m 17,9 km/h (3 Bft) W 281 0 min 0,076 mm 0,0 UV-I 0 W/m 4,6 C 2,5 C 35,4 km/h (5 Bft) 100,00 %
24.02.2017 04:05 8,8 C 75 % 1000,2 hPa 0,0 l/m 17,7 km/h (3 Bft) W 270 0 min 0,000 mm 0,0 UV-I 0 W/m 4,6 C 2,6 C 27,4 km/h (4 Bft) 50,00 %
24.02.2017 04:09 8,5 C 75 % 1000,3 hPa 0,0 l/m 19,6 km/h (3 Bft) SW 233 0 min 0,000 mm 0,0 UV-I 0 W/m 4,3 C 1,5 C 37,0 km/h (5 Bft) 100,00 %
24.02.2017 04:10 8,4 C 75 % 1000,5 hPa 0,0 l/m 17,8 km/h (3 Bft) W-SW 254 0 min 0,000 mm 0,0 UV-I 0 W/m 4,2 C 2,0 C 30,6 km/h (5 Bft) 100,00 %
24.02.2017 04:11 8,4 C 75 % 1000,5 hPa 0,0 l/m 17,5 km/h (3 Bft) W-SW 253 0 min 0,000 mm 0,0 UV-I 0 W/m 4,2 C 2,1 C 22,5 km/h (4 Bft) 96,30 %
24.02.2017 04:12 8,3 C 75 % 1000,5 hPa 0,0 l/m 20,3 km/h (4 Bft) N 5 0 min 0,000 mm 0,0 UV-I 0 W/m 4,1 C 1,0 C 38,6 km/h (5 Bft) 100,00 %
24.02.2017 04:13 8,3 C 76 % 1000,5 hPa 0,0 l/m 17,4 km/h (3 Bft) W-SW 252 0 min 0,000 mm 0,0 UV-I 0 W/m 4,3 C 2,1 C 24,1 km/h (4 Bft) 100,00 %
24.02.2017 04:14 8,2 C 76 % 1000,7 hPa 0,0 l/m 16,6 km/h (3 Bft) W-SW 251 0 min 0,000 mm 0,0 UV-I 0 W/m 4,2 C 2,3 C 27,4 km/h (4 Bft) 95,65 %
24.02.2017 04:15 8,2 C 77 % 1000,7 hPa 0,0 l/m 12,3 km/h (3 Bft) NW 305 0 min 0,000 mm 0,0 UV-I 0 W/m 4,4 C 4,3 C 17,7 km/h (3 Bft) 100,00 %
24.02.2017 04:16 8,1 C 77 % 1000,7 hPa 0,0 l/m 14,9 km/h (3 Bft) NW 306 0 min 0,000 mm 0,0 UV-I 0 W/m 4,3 C 2,9 C 25,7 km/h (4 Bft) 100,00 %
24.02.2017 04:17 8,1 C 77 % 1000,8 hPa 0,0 l/m 22,6 km/h (4 Bft) W 261 0 min 0,000 mm 0,0 UV-I 0 W/m 4,3 C -0,0 C 32,2 km/h (5 Bft) 100,00 %
24.02.2017 04:18 8,0 C 77 % 1000,8 hPa 0,0 l/m 17,4 km/h (3 Bft) NW 316 0 min 0,000 mm 0,0 UV-I 0 W/m 4,2 C 1,7 C 27,4 km/h (4 Bft) 95,65 %
24.02.2017 04:19 7,9 C 77 % 1000,9 hPa 0,0 l/m 17,9 km/h (3 Bft) W-NW 288 0 min 0,000 mm 0,0 UV-I 0 W/m 4,1 C 1,4 C 27,4 km/h (4 Bft) 100,00 %
24.02.2017 04:20 7,9 C 77 % 1000,9 hPa 0,0 l/m 20,3 km/h (4 Bft) W 266 0 min 0,000 mm 0,0 UV-I 0 W/m 4,1 C 0,5 C 29,0 km/h (5 Bft) 100,00 %
24.02.2017 04:21 7,8 C 77 % 1000,9 hPa 0,0 l/m 22,2 km/h (4 Bft) W 275 0 min 0,000 mm 0,0 UV-I 0 W/m 4,0 C -0,3 C 37,0 km/h (5 Bft) 100,00 %
24.02.2017 04:22 7,8 C 77 % 1000,8 hPa 0,0 l/m 14,4 km/h (3 Bft) W-SW 255 0 min 0,000 mm 0,0 UV-I 0 W/m 4,0 C 2,7 C 25,7 km/h (4 Bft) 95,83 %
24.02.2017 04:23 7,8 C 77 % 1000,9 hPa 0,0 l/m 13,6 km/h (3 Bft) W-SW 253 0 min 0,000 mm 0,0 UV-I 0 W/m 4,0 C 3,1 C 25,7 km/h (4 Bft) 100,00 %
24.02.2017 04:24 7,7 C 78 % 1001,3 hPa 0,0 l/m 13,5 km/h (3 Bft) W 265 0 min 0,000 mm 0,0 UV-I 0 W/m 4,1 C 3,1 C 19,3 km/h (3 Bft) 96,88 %
24.02.2017 04:25 7,7 C 79 % 1001,2 hPa 0,0 l/m 20,3 km/h (4 Bft) W 277 0 min 0,000 mm 0,0 UV-I 0 W/m 4,3 C 0,2 C 27,4 km/h (4 Bft) 91,67 %
24.02.2017 04:26 7,6 C 79 % 1001,4 hPa 0,0 l/m 18,5 km/h (3 Bft) W-SW 239 0 min 0,000 mm 0,0 UV-I 0 W/m 4,2 C 0,7 C 27,4 km/h (4 Bft) 100,00 %
24.02.2017 04:27 7,5 C 79 % 1001,4 hPa 0,0 l/m 14,6 km/h (3 Bft) W-NW 291 0 min 0,000 mm 0,0 UV-I 0 W/m 4,1 C 2,3 C 24,1 km/h (4 Bft) 100,00 %
24.02.2017 04:28 7,4 C 78 % 1001,4 hPa 0,0 l/m 15,5 km/h (3 Bft) W-NW 283 0 min 0,000 mm 0,0 UV-I 0 W/m 3,8 C 1,8 C 40,2 km/h (6 Bft) 100,00 %
24.02.2017 04:29 7,4 C 78 % 1001,3 hPa 0,0 l/m 15,8 km/h (3 Bft) W 273 0 min 0,000 mm 0,0 UV-I 0 W/m 3,8 C 1,6 C 22,5 km/h (4 Bft) 100,00 %
24.02.2017 04:30 7,3 C 79 % 1001,4 hPa 0,0 l/m 19,0 km/h (3 Bft) W-SW 241 0 min 0,000 mm 0,0 UV-I 0 W/m 3,9 C 0,2 C 35,4 km/h (5 Bft) 100,00 %
24.02.2017 04:31 7,2 C 79 % 1001,4 hPa 0,2 l/m 22,9 km/h (4 Bft) W 275 0 min 0,000 mm 0,0 UV-I 0 W/m 3,8 C -1,3 C 32,2 km/h (5 Bft) 100,00 %
24.02.2017 04:32 7,2 C 78 % 1001,4 hPa 0,0 l/m 21,8 km/h (4 Bft) W-SW 248 0 min 0,000 mm 0,0 UV-I 0 W/m 3,6 C -1,0 C 35,4 km/h (5 Bft) 100,00 %
24.02.2017 04:33 7,2 C 78 % 1001,5 hPa 0,0 l/m 33,7 km/h (5 Bft) W 267 0 min 0,000 mm 0,0 UV-I 0 W/m 3,6 C -4,1 C 53,1 km/h (7 Bft) 100,00 %
24.02.2017 04:34 7,1 C 78 % 1001,5 hPa 0,0 l/m 30,7 km/h (5 Bft) W-NW 284 0 min 0,000 mm 0,0 UV-I 0 W/m 3,5 C -3,6 C 56,3 km/h (7 Bft) 100,00 %
24.02.2017 04:35 7,1 C 77 % 1001,6 hPa 0,0 l/m 25,7 km/h (4 Bft) W 273 0 min 0,000 mm 0,0 UV-I 0 W/m 3,3 C -2,3 C 38,6 km/h (5 Bft) 95,65 %
24.02.2017 04:36 7,1 C 77 % 1001,6 hPa 0,0 l/m 17,8 km/h (3 Bft) W-NW 288 0 min 0,000 mm 0,0 UV-I 0 W/m 3,3 C 0,4 C 29,0 km/h (5 Bft) 96,67 %
24.02.2017 04:37 7,1 C 77 % 1001,5 hPa 0,0 l/m 28,4 km/h (4 Bft) W 264 0 min 0,000 mm 0,0 UV-I 0 W/m 3,3 C -3,0 C 49,9 km/h (6 Bft) 86,96 %
24.02.2017 04:38 7,0 C 77 % 1001,6 hPa 0,0 l/m 25,7 km/h (4 Bft) W 259 0 min 0,000 mm 0,0 UV-I 0 W/m 3,2 C -2,4 C 51,5 km/h (7 Bft) 95,83 %
24.02.2017 04:39 7,0 C 77 % 1001,7 hPa 0,0 l/m 26,9 km/h (4 Bft) W 262 0 min 0,000 mm 0,0 UV-I 0 W/m 3,2 C -2,8 C 43,5 km/h (6 Bft) 93,33 %
24.02.2017 04:40 6,9 C 77 % 1001,7 hPa 0,0 l/m 33,8 km/h (5 Bft) W 267 0 min 0,000 mm 0,0 UV-I 0 W/m 3,2 C -4,6 C 62,8 km/h (8 Bft) 100,00 %
24.02.2017 04:41 6,9 C 77 % 1001,6 hPa 0,0 l/m 38,5 km/h (5 Bft) W-SW 258 0 min 0,000 mm 0,0 UV-I 0 W/m 3,2 C -5,4 C 48,3 km/h (6 Bft) 96,15 %
24.02.2017 04:42 6,9 C 76 % 1001,7 hPa 0,0 l/m 31,8 km/h (5 Bft) W-SW 256 0 min 0,000 mm 0,0 UV-I 0 W/m 3,0 C -4,1 C 43,5 km/h (6 Bft) 100,00 %
24.02.2017 04:43 6,9 C 76 % 1001,7 hPa 0,0 l/m 31,8 km/h (5 Bft) W-SW 257 0 min 0,000 mm 0,0 UV-I 0 W/m 3,0 C -4,1 C 41,8 km/h (6 Bft) 100,00 %
24.02.2017 04:44 6,9 C 76 % 1001,8 hPa 0,0 l/m 31,1 km/h (5 Bft) W 260 0 min 0,000 mm 0,0 UV-I 0 W/m 3,0 C -4,0 C 41,8 km/h (6 Bft) 96,15 %
24.02.2017 04:45 6,9 C 76 % 1001,9 hPa 0,0 l/m 24,8 km/h (4 Bft) W-SW 253 0 min 0,000 mm 0,0 UV-I 0 W/m 3,0 C -2,3 C 37,0 km/h (5 Bft) 100,00 %
24.02.2017 04:46 6,9 C 76 % 1001,9 hPa 0,0 l/m 35,8 km/h (5 Bft) W-SW 247 0 min 0,000 mm 0,0 UV-I 0 W/m 3,0 C -5,0 C 45,1 km/h (6 Bft) 100,00 %
24.02.2017 04:47 6,9 C 76 % 1001,9 hPa 0,0 l/m 25,5 km/h (4 Bft) W 264 0 min 0,000 mm 0,0 UV-I 0 W/m 3,0 C -2,5 C 37,0 km/h (5 Bft) 95,83 %
24.02.2017 04:48 6,9 C 76 % 1001,8 hPa 0,0 l/m 35,6 km/h (5 Bft) W-SW 254 0 min 0,000 mm 0,0 UV-I 0 W/m 3,0 C -4,9 C 49,9 km/h (6 Bft) 100,00 %
24.02.2017 04:49 6,9 C 76 % 1001,8 hPa 0,0 l/m 27,4 km/h (4 Bft) W-SW 248 0 min 0,000 mm 0,0 UV-I 0 W/m 3,0 C -3,0 C 41,8 km/h (6 Bft) 95,83 %
24.02.2017 04:50 6,9 C 76 % 1002,0 hPa 0,0 l/m 29,6 km/h (5 Bft) W 267 0 min 0,000 mm 0,0 UV-I 0 W/m 3,0 C -3,6 C 40,2 km/h (6 Bft) 100,00 %
24.02.2017 04:51 6,9 C 76 % 1002,0 hPa 0,0 l/m 27,8 km/h (4 Bft) W 263 0 min 0,000 mm 0,0 UV-I 0 W/m 3,0 C -3,1 C 35,4 km/h (5 Bft) 100,00 %
24.02.2017 04:52 6,9 C 76 % 1002,0 hPa 0,0 l/m 27,2 km/h (4 Bft) W-SW 257 0 min 0,000 mm 0,0 UV-I 0 W/m 3,0 C -3,0 C 38,6 km/h (5 Bft) 100,00 %
24.02.2017 04:53 6,9 C 77 % 1002,0 hPa 0,0 l/m 29,6 km/h (5 Bft) SW 227 0 min 0,000 mm 0,0 UV-I 0 W/m 3,2 C -3,6 C 43,5 km/h (6 Bft) 96,30 %
24.02.2017 04:54 6,8 C 76 % 1001,9 hPa 0,0 l/m 30,5 km/h (5 Bft) W-SW 257 0 min 0,000 mm 0,0 UV-I 0 W/m 2,9 C -4,0 C 43,5 km/h (6 Bft) 100,00 %
24.02.2017 04:55 6,8 C 76 % 1002,1 hPa 0,0 l/m 26,5 km/h (4 Bft) W 265 0 min 0,000 mm 0,0 UV-I 0 W/m 2,9 C -2,9 C 40,2 km/h (6 Bft) 100,00 %
24.02.2017 04:56 6,8 C 76 % 1002,1 hPa 0,0 l/m 27,6 km/h (4 Bft) W 275 0 min 0,000 mm 0,0 UV-I 0 W/m 2,9 C -3,2 C 37,0 km/h (5 Bft) 91,30 %
24.02.2017 04:57 6,8 C 76 % 1002,0 hPa 0,0 l/m 35,8 km/h (5 Bft) W-SW 256 0 min 0,000 mm 0,0 UV-I 0 W/m 2,9 C -5,1 C 49,9 km/h (6 Bft) 100,00 %
24.02.2017 04:58 6,8 C 76 % 1002,2 hPa 0,0 l/m 26,2 km/h (4 Bft) SW 236 0 min 0,000 mm 0,0 UV-I 0 W/m 2,9 C -2,9 C 35,4 km/h (5 Bft) 100,00 %
24.02.2017 04:59 6,8 C 76 % 1002,1 hPa 0,0 l/m 29,1 km/h (5 Bft) W-SW 250 0 min 0,000 mm 0,0 UV-I 0 W/m 2,9 C -3,6 C 43,5 km/h (6 Bft) 100,00 %
24.02.2017 05:00 6,8 C 76 % 1002,1 hPa 0,0 l/m 24,7 km/h (4 Bft) W 269 0 min 0,051 mm 0,0 UV-I 0 W/m 2,9 C -2,4 C 38,6 km/h (5 Bft) 100,00 %
24.02.2017 05:01 6,8 C 77 % 1002,3 hPa 0,0 l/m 29,0 km/h (5 Bft) W 267 0 min 0,000 mm 0,0 UV-I 0 W/m 3,1 C -3,6 C 46,7 km/h (6 Bft) 100,00 %
24.02.2017 05:02 6,8 C 77 % 1002,2 hPa 0,0 l/m 30,2 km/h (5 Bft) W-SW 252 0 min 0,000 mm 0,0 UV-I 0 W/m 3,1 C -3,9 C 46,7 km/h (6 Bft) 95,65 %
24.02.2017 05:03 6,8 C 77 % 1002,3 hPa 0,0 l/m 25,8 km/h (4 Bft) W 261 0 min 0,000 mm 0,0 UV-I 0 W/m 3,1 C -2,7 C 40,2 km/h (6 Bft) 100,00 %
24.02.2017 05:04 6,7 C 77 % 1002,3 hPa 0,0 l/m 33,0 km/h (5 Bft) SW 233 0 min 0,000 mm 0,0 UV-I 0 W/m 3,0 C -4,7 C 43,5 km/h (6 Bft) 91,67 %
24.02.2017 05:05 6,7 C 77 % 1002,4 hPa 0,0 l/m 24,8 km/h (4 Bft) W 279 0 min 0,000 mm 0,0 UV-I 0 W/m 3,0 C -2,6 C 29,0 km/h (5 Bft) 100,00 %
24.02.2017 05:06 6,7 C 77 % 1002,4 hPa 0,0 l/m 27,8 km/h (4 Bft) W-NW 284 0 min 0,000 mm 0,0 UV-I 0 W/m 3,0 C -3,4 C 40,2 km/h (6 Bft) 92,59 %
24.02.2017 05:07 6,7 C 77 % 1002,3 hPa 0,0 l/m 30,9 km/h (5 Bft) W 262 0 min 0,000 mm 0,0 UV-I 0 W/m 3,0 C -4,2 C 49,9 km/h (6 Bft) 95,65 %
24.02.2017 05:08 6,7 C 77 % 1002,3 hPa 0,0 l/m 16,8 km/h (3 Bft) W-SW 249 0 min 0,000 mm 0,0 UV-I 0 W/m 3,0 C 0,3 C 20,9 km/h (4 Bft) 96,30 %
24.02.2017 05:09 6,7 C 77 % 1002,4 hPa 0,0 l/m 21,3 km/h (4 Bft) W-SW 246 0 min 0,000 mm 0,0 UV-I 0 W/m 3,0 C -1,4 C 29,0 km/h (5 Bft) 95,65 %
24.02.2017 05:10 6,6 C 77 % 1002,5 hPa 0,0 l/m 23,1 km/h (4 Bft) W-SW 254 0 min 0,000 mm 0,0 UV-I 0 W/m 2,9 C -2,2 C 27,4 km/h (4 Bft) 100,00 %
24.02.2017 05:11 6,6 C 77 % 1002,5 hPa 0,0 l/m 28,5 km/h (4 Bft) W 259 0 min 0,000 mm 0,0 UV-I 0 W/m 2,9 C -3,7 C 46,7 km/h (6 Bft) 95,65 %
24.02.2017 05:12 6,6 C 77 % 1002,5 hPa 0,0 l/m 34,3 km/h (5 Bft) W-SW 248 0 min 0,000 mm 0,0 UV-I 0 W/m 2,9 C -5,1 C 49,9 km/h (6 Bft) 91,67 %
24.02.2017 05:13 6,6 C 77 % 1002,6 hPa 0,0 l/m 24,1 km/h (4 Bft) W-SW 242 0 min 0,000 mm 0,0 UV-I 0 W/m 2,9 C -2,5 C 35,4 km/h (5 Bft) 86,96 %
24.02.2017 05:14 6,6 C 76 % 1002,6 hPa 0,0 l/m 22,7 km/h (4 Bft) W-SW 238 0 min 0,000 mm 0,0 UV-I 0 W/m 2,7 C -2,1 C 37,0 km/h (5 Bft) 100,00 %
24.02.2017 05:15 6,6 C 76 % 1002,5 hPa 0,0 l/m 21,7 km/h (4 Bft) W-SW 245 0 min 0,000 mm 0,0 UV-I 0 W/m 2,7 C -1,7 C 32,2 km/h (5 Bft) 91,30 %
24.02.2017 05:16 6,6 C 76 % 1002,6 hPa 0,0 l/m 22,9 km/h (4 Bft) W-SW 243 0 min 0,000 mm 0,0 UV-I 0 W/m 2,7 C -2,1 C 32,2 km/h (5 Bft) 91,67 %
24.02.2017 05:17 6,6 C 77 % 1002,7 hPa 0,0 l/m 25,3 km/h (4 Bft) W-SW 251 0 min 0,000 mm 0,0 UV-I 0 W/m 2,9 C -2,9 C 45,1 km/h (6 Bft) 100,00 %
24.02.2017 05:18 6,6 C 77 % 1002,5 hPa 0,0 l/m 27,2 km/h (4 Bft) W-SW 246 0 min 0,000 mm 0,0 UV-I 0 W/m 2,9 C -3,4 C 41,8 km/h (6 Bft) 95,83 %
24.02.2017 05:19 6,6 C 77 % 1002,6 hPa 0,0 l/m 22,9 km/h (4 Bft) W-SW 238 0 min 0,000 mm 0,0 UV-I 0 W/m 2,9 C -2,1 C 35,4 km/h (5 Bft) 100,00 %
24.02.2017 05:20 6,6 C 78 % 1002,5 hPa 0,0 l/m 25,1 km/h (4 Bft) SW 221 0 min 0,000 mm 0,0 UV-I 0 W/m 3,0 C -2,8 C 33,8 km/h (5 Bft) 95,65 %
24.02.2017 05:21 6,5 C 78 % 1002,6 hPa 0,0 l/m 21,1 km/h (4 Bft) SW 229 0 min 0,000 mm 0,0 UV-I 0 W/m 2,9 C -1,6 C 32,2 km/h (5 Bft) 100,00 %
24.02.2017 05:22 6,5 C 79 % 1002,6 hPa 0,0 l/m 20,2 km/h (4 Bft) W-SW 240 0 min 0,000 mm 0,0 UV-I 0 W/m 3,1 C -1,3 C 29,0 km/h (5 Bft) 95,65 %
24.02.2017 05:23 6,4 C 79 % 1002,6 hPa 0,0 l/m 26,5 km/h (4 Bft) W-SW 244 0 min 0,000 mm 0,0 UV-I 0 W/m 3,0 C -3,5 C 35,4 km/h (5 Bft) 100,00 %
24.02.2017 05:24 6,4 C 79 % 1002,6 hPa 0,0 l/m 19,2 km/h (3 Bft) W-SW 242 0 min 0,000 mm 0,0 UV-I 0 W/m 3,0 C -1,1 C 27,4 km/h (4 Bft) 95,65 %
24.02.2017 05:25 6,3 C 80 % 1002,6 hPa 0,0 l/m 23,7 km/h (4 Bft) S-SW 209 0 min 0,000 mm 0,0 UV-I 0 W/m 3,1 C -2,8 C 33,8 km/h (5 Bft) 95,83 %
24.02.2017 05:26 6,3 C 80 % 1002,7 hPa 0,0 l/m 23,1 km/h (4 Bft) W-SW 246 0 min 0,000 mm 0,0 UV-I 0 W/m 3,1 C -2,6 C 30,6 km/h (5 Bft) 100,00 %
24.02.2017 05:27 6,3 C 80 % 1002,7 hPa 0,0 l/m 25,7 km/h (4 Bft) W-SW 250 0 min 0,000 mm 0,0 UV-I 0 W/m 3,1 C -3,4 C 32,2 km/h (5 Bft) 100,00 %
24.02.2017 05:28 6,3 C 80 % 1002,8 hPa 0,0 l/m 28,8 km/h (4 Bft) S-SW 207 0 min 0,000 mm 0,0 UV-I 0 W/m 3,1 C -4,2 C 37,0 km/h (5 Bft) 91,30 %
24.02.2017 05:29 6,3 C 79 % 1002,8 hPa 0,0 l/m 24,7 km/h (4 Bft) W-SW 247 0 min 0,000 mm 0,0 UV-I 0 W/m 2,9 C -3,1 C 40,2 km/h (6 Bft) 87,50 %
24.02.2017 05:30 6,3 C 79 % 1002,9 hPa 0,0 l/m 20,4 km/h (4 Bft) W-SW 252 0 min 0,000 mm 0,0 UV-I 0 W/m 2,9 C -1,6 C 30,6 km/h (5 Bft) 100,00 %
24.02.2017 05:31 6,3 C 79 % 1002,9 hPa 0,0 l/m 26,3 km/h (4 Bft) SW 234 0 min 0,000 mm 0,0 UV-I 0 W/m 2,9 C -3,6 C 41,8 km/h (6 Bft) 92,59 %
24.02.2017 05:32 6,3 C 79 % 1002,9 hPa 0,0 l/m 23,9 km/h (4 Bft) W-SW 245 0 min 0,000 mm 0,0 UV-I 0 W/m 2,9 C -2,8 C 30,6 km/h (5 Bft) 94,12 %
24.02.2017 05:33 6,3 C 79 % 1002,9 hPa 0,0 l/m 23,9 km/h (4 Bft) W-SW 238 0 min 0,000 mm 0,0 UV-I 0 W/m 2,9 C -2,8 C 33,8 km/h (5 Bft) 100,00 %
24.02.2017 05:34 6,3 C 79 % 1003,0 hPa 0,0 l/m 23,9 km/h (4 Bft) W-SW 248 0 min 0,000 mm 0,0 UV-I 0 W/m 2,9 C -2,8 C 41,8 km/h (6 Bft) 91,30 %
24.02.2017 05:35 6,3 C 79 % 1003,0 hPa 0,0 l/m 20,7 km/h (4 Bft) W 259 0 min 0,000 mm 0,0 UV-I 0 W/m 2,9 C -1,8 C 29,0 km/h (5 Bft) 100,00 %
24.02.2017 05:36 6,3 C 79 % 1003,1 hPa 0,0 l/m 25,6 km/h (4 Bft) SW 230 0 min 0,000 mm 0,0 UV-I 0 W/m 2,9 C -3,4 C 35,4 km/h (5 Bft) 88,24 %
24.02.2017 05:37 6,3 C 79 % 1003,0 hPa 0,0 l/m 26,6 km/h (4 Bft) W-SW 249 0 min 0,000 mm 0,0 UV-I 0 W/m 2,9 C -3,6 C 30,6 km/h (5 Bft) 100,00 %
24.02.2017 05:38 6,3 C 79 % 1003,0 hPa 0,0 l/m 28,4 km/h (4 Bft) SW 235 0 min 0,000 mm 0,0 UV-I 0 W/m 2,9 C -4,1 C 40,2 km/h (6 Bft) 93,33 %
24.02.2017 05:39 6,3 C 79 % 1003,0 hPa 0,0 l/m 22,4 km/h (4 Bft) W-SW 257 0 min 0,000 mm 0,0 UV-I 0 W/m 2,9 C -2,4 C 43,5 km/h (6 Bft) 100,00 %
24.02.2017 05:40 6,3 C 79 % 1003,0 hPa 0,0 l/m 24,7 km/h (4 Bft) SW 218 0 min 0,000 mm 0,0 UV-I 0 W/m 2,9 C -3,1 C 35,4 km/h (5 Bft) 100,00 %
24.02.2017 05:41 6,3 C 80 % 1003,0 hPa 0,0 l/m 25,2 km/h (4 Bft) S-SW 212 0 min 0,000 mm 0,0 UV-I 0 W/m 3,1 C -3,2 C 32,2 km/h (5 Bft) 93,33 %
24.02.2017 05:42 6,3 C 80 % 1003,1 hPa 0,0 l/m 20,3 km/h (4 Bft) W-SW 256 0 min 0,000 mm 0,0 UV-I 0 W/m 3,1 C -1,6 C 37,0 km/h (5 Bft) 100,00 %
24.02.2017 05:43 6,3 C 80 % 1003,1 hPa 0,0 l/m 25,9 km/h (4 Bft) W-SW 252 0 min 0,000 mm 0,0 UV-I 0 W/m 3,1 C -3,4 C 38,6 km/h (5 Bft) 100,00 %
24.02.2017 05:44 6,3 C 80 % 1003,0 hPa 0,0 l/m 21,4 km/h (4 Bft) SW 223 0 min 0,000 mm 0,0 UV-I 0 W/m 3,1 C -2,0 C 32,2 km/h (5 Bft) 95,83 %
24.02.2017 05:45 6,3 C 80 % 1003,2 hPa 0,0 l/m 20,7 km/h (4 Bft) SW 224 0 min 0,000 mm 0,0 UV-I 0 W/m 3,1 C -1,8 C 32,2 km/h (5 Bft) 100,00 %
24.02.2017 05:46 6,3 C 80 % 1003,2 hPa 0,0 l/m 18,6 km/h (3 Bft) S-SW 206 0 min 0,000 mm 0,0 UV-I 0 W/m 3,1 C -0,9 C 25,7 km/h (4 Bft) 95,83 %
24.02.2017 05:47 6,3 C 80 % 1003,2 hPa 0,0 l/m 17,4 km/h (3 Bft) S-SW 192 0 min 0,000 mm 0,0 UV-I 0 W/m 3,1 C -0,4 C 25,7 km/h (4 Bft) 91,30 %
24.02.2017 05:48 6,2 C 81 % 1003,3 hPa 0,0 l/m 21,4 km/h (4 Bft) SW 233 0 min 0,000 mm 0,0 UV-I 0 W/m 3,2 C -2,1 C 30,6 km/h (5 Bft) 91,67 %
24.02.2017 05:49 6,2 C 81 % 1003,3 hPa 0,0 l/m 21,6 km/h (4 Bft) SW 232 0 min 0,000 mm 0,0 UV-I 0 W/m 3,2 C -2,2 C 35,4 km/h (5 Bft) 95,65 %
24.02.2017 05:50 6,2 C 81 % 1003,3 hPa 0,0 l/m 21,1 km/h (4 Bft) SW 230 0 min 0,000 mm 0,0 UV-I 0 W/m 3,2 C -2,0 C 27,4 km/h (4 Bft) 100,00 %
24.02.2017 05:51 6,2 C 81 % 1003,3 hPa 0,0 l/m 21,9 km/h (4 Bft) W-SW 243 0 min 0,000 mm 0,0 UV-I 0 W/m 3,2 C -2,3 C 30,6 km/h (5 Bft) 100,00 %
24.02.2017 05:52 6,2 C 81 % 1003,4 hPa 0,0 l/m 20,7 km/h (4 Bft) SW 222 0 min 0,000 mm 0,0 UV-I 0 W/m 3,2 C -1,9 C 29,0 km/h (5 Bft) 92,59 %
24.02.2017 05:53 6,2 C 81 % 1003,4 hPa 0,0 l/m 18,9 km/h (3 Bft) S-SW 194 0 min 0,000 mm 0,0 UV-I 0 W/m 3,2 C -1,2 C 29,0 km/h (5 Bft) 100,00 %
24.02.2017 05:54 6,2 C 81 % 1003,3 hPa 0,0 l/m 25,6 km/h (4 Bft) W-SW 239 0 min 0,000 mm 0,0 UV-I 0 W/m 3,2 C -3,5 C 33,8 km/h (5 Bft) 100,00 %
24.02.2017 05:55 6,2 C 81 % 1003,3 hPa 0,0 l/m 22,8 km/h (4 Bft) SW 217 0 min 0,000 mm 0,0 UV-I 0 W/m 3,2 C -2,6 C 29,0 km/h (5 Bft) 93,33 %
24.02.2017 05:56 6,1 C 82 % 1003,4 hPa 0,0 l/m 22,9 km/h (4 Bft) W-SW 258 0 min 0,000 mm 0,0 UV-I 0 W/m 3,3 C -2,8 C 30,6 km/h (5 Bft) 100,00 %
24.02.2017 05:57 6,1 C 82 % 1003,4 hPa 0,0 l/m 19,4 km/h (3 Bft) SW 227 0 min 0,000 mm 0,0 UV-I 0 W/m 3,3 C -1,5 C 25,7 km/h (4 Bft) 100,00 %
24.02.2017 05:58 6,1 C 82 % 1003,4 hPa 0,0 l/m 22,0 km/h (4 Bft) SW 224 0 min 0,000 mm 0,0 UV-I 0 W/m 3,3 C -2,5 C 29,0 km/h (5 Bft) 100,00 %
24.02.2017 05:59 6,1 C 82 % 1003,4 hPa 0,0 l/m 19,7 km/h (3 Bft) W-SW 246 0 min 0,000 mm 0,0 UV-I 0 W/m 3,3 C -1,6 C 27,4 km/h (4 Bft) 97,56 %
24.02.2017 06:00 6,1 C 82 % 1003,4 hPa 0,0 l/m 20,4 km/h (4 Bft) W-SW 244 0 min 0,051 mm 0,0 UV-I 0 W/m 3,3 C -1,9 C 32,2 km/h (5 Bft) 100,00 %
24.02.2017 06:01 6,1 C 82 % 1003,5 hPa 0,0 l/m 20,3 km/h (4 Bft) S-SW 209 0 min 0,000 mm 0,0 UV-I 0 W/m 3,3 C -1,9 C 29,0 km/h (5 Bft) 100,00 %
24.02.2017 06:02 6,1 C 82 % 1003,5 hPa 0,0 l/m 22,2 km/h (4 Bft) S-SW 201 0 min 0,000 mm 0,0 UV-I 0 W/m 3,3 C -2,5 C 32,2 km/h (5 Bft) 95,83 %
24.02.2017 06:03 6,1 C 82 % 1003,5 hPa 0,0 l/m 14,7 km/h (3 Bft) SW 225 0 min 0,000 mm 0,0 UV-I 0 W/m 3,3 C 0,6 C 19,3 km/h (3 Bft) 100,00 %
24.02.2017 06:04 6,1 C 82 % 1003,5 hPa 0,0 l/m 25,5 km/h (4 Bft) W-SW 244 0 min 0,000 mm 0,0 UV-I 0 W/m 3,3 C -3,6 C 35,4 km/h (5 Bft) 100,00 %
24.02.2017 06:05 6,1 C 82 % 1003,5 hPa 0,0 l/m 20,6 km/h (4 Bft) SW 230 0 min 0,000 mm 0,0 UV-I 0 W/m 3,3 C -2,0 C 29,0 km/h (5 Bft) 96,30 %
24.02.2017 06:06 6,1 C 83 % 1003,6 hPa 0,0 l/m 14,8 km/h (3 Bft) SW 219 0 min 0,000 mm 0,0 UV-I 0 W/m 3,4 C 0,5 C 22,5 km/h (4 Bft) 100,00 %
24.02.2017 06:07 6,1 C 82 % 1003,6 hPa 0,0 l/m 19,6 km/h (3 Bft) S-SW 209 0 min 0,000 mm 0,0 UV-I 0 W/m 3,3 C -1,6 C 27,4 km/h (4 Bft) 100,00 %
24.02.2017 06:08 6,1 C 83 % 1003,6 hPa 0,0 l/m 20,1 km/h (4 Bft) S-SW 200 0 min 0,000 mm 0,0 UV-I 0 W/m 3,4 C -1,8 C 25,7 km/h (4 Bft) 92,86 %
24.02.2017 06:09 6,1 C 83 % 1003,6 hPa 0,0 l/m 14,7 km/h (3 Bft) SW 234 0 min 0,000 mm 0,0 UV-I 0 W/m 3,4 C 0,6 C 24,1 km/h (4 Bft) 100,00 %
24.02.2017 06:10 6,1 C 83 % 1003,6 hPa 0,0 l/m 15,4 km/h (3 Bft) SW 217 0 min 0,000 mm 0,0 UV-I 0 W/m 3,4 C 0,2 C 25,7 km/h (4 Bft) 100,00 %
24.02.2017 06:11 6,1 C 83 % 1003,7 hPa 0,0 l/m 19,9 km/h (4 Bft) SW 236 0 min 0,000 mm 0,0 UV-I 0 W/m 3,4 C -1,7 C 25,7 km/h (4 Bft) 100,00 %
24.02.2017 06:12 6,0 C 84 % 1003,6 hPa 0,0 l/m 18,9 km/h (3 Bft) SW 214 0 min 0,000 mm 0,0 UV-I 0 W/m 3,5 C -1,4 C 25,7 km/h (4 Bft) 100,00 %
24.02.2017 06:13 6,0 C 84 % 1003,7 hPa 0,0 l/m 20,2 km/h (4 Bft) W-SW 242 0 min 0,000 mm 0,0 UV-I 0 W/m 3,5 C -2,0 C 27,4 km/h (4 Bft) 100,00 %
24.02.2017 06:14 6,0 C 84 % 1003,6 hPa 0,0 l/m 21,8 km/h (4 Bft) W-SW 248 0 min 0,000 mm 0,0 UV-I 0 W/m 3,5 C -2,5 C 29,0 km/h (5 Bft) 100,00 %
24.02.2017 06:15 6,0 C 84 % 1003,6 hPa 0,0 l/m 15,3 km/h (3 Bft) SW 231 0 min 0,000 mm 0,0 UV-I 0 W/m 3,5 C 0,1 C 25,7 km/h (4 Bft) 100,00 %
24.02.2017 06:16 6,0 C 84 % 1003,7 hPa 0,0 l/m 17,1 km/h (3 Bft) W-SW 246 0 min 0,000 mm 0,0 UV-I 0 W/m 3,5 C -0,7 C 27,4 km/h (4 Bft) 100,00 %
24.02.2017 06:17 6,0 C 84 % 1003,8 hPa 0,0 l/m 15,4 km/h (3 Bft) W-SW 244 0 min 0,000 mm 0,0 UV-I 0 W/m 3,5 C 0,1 C 22,5 km/h (4 Bft) 100,00 %
24.02.2017 06:18 5,9 C 84 % 1003,8 hPa 0,0 l/m 18,1 km/h (3 Bft) W-SW 248 0 min 0,000 mm 0,0 UV-I 0 W/m 3,4 C -1,2 C 22,5 km/h (4 Bft) 100,00 %
24.02.2017 06:19 5,9 C 84 % 1003,8 hPa 0,0 l/m 18,9 km/h (3 Bft) SW 227 0 min 0,000 mm 0,0 UV-I 0 W/m 3,4 C -1,6 C 24,1 km/h (4 Bft) 96,15 %
24.02.2017 06:20 5,9 C 84 % 1003,9 hPa 0,0 l/m 19,4 km/h (3 Bft) S-SW 208 0 min 0,000 mm 0,0 UV-I 0 W/m 3,4 C -1,8 C 29,0 km/h (5 Bft) 91,67 %
24.02.2017 06:21 5,9 C 84 % 1003,8 hPa 0,0 l/m 20,6 km/h (4 Bft) W-SW 251 0 min 0,000 mm 0,0 UV-I 0 W/m 3,4 C -2,2 C 27,4 km/h (4 Bft) 100,00 %
24.02.2017 06:22 5,9 C 84 % 1003,8 hPa 0,0 l/m 22,2 km/h (4 Bft) SW 216 0 min 0,000 mm 0,0 UV-I 0 W/m 3,4 C -2,8 C 32,2 km/h (5 Bft) 100,00 %
24.02.2017 06:23 5,9 C 84 % 1003,9 hPa 0,0 l/m 24,2 km/h (4 Bft) SW 235 0 min 0,000 mm 0,0 UV-I 0 W/m 3,4 C -3,5 C 38,6 km/h (5 Bft) 96,15 %
24.02.2017 06:24 6,0 C 84 % 1003,9 hPa 0,0 l/m 17,8 km/h (3 Bft) SW 234 0 min 0,000 mm 0,0 UV-I 0 W/m 3,5 C -1,0 C 25,7 km/h (4 Bft) 100,00 %
24.02.2017 06:25 6,0 C 84 % 1003,9 hPa 0,0 l/m 21,4 km/h (4 Bft) S-SW 203 0 min 0,000 mm 0,0 UV-I 0 W/m 3,5 C -2,4 C 37,0 km/h (5 Bft) 100,00 %
24.02.2017 06:26 6,0 C 84 % 1003,9 hPa 0,0 l/m 17,2 km/h (3 Bft) SW 227 0 min 0,000 mm 0,0 UV-I 0 W/m 3,5 C -0,7 C 22,5 km/h (4 Bft) 95,24 %
24.02.2017 06:27 6,0 C 84 % 1004,0 hPa 0,0 l/m 17,3 km/h (3 Bft) S-SW 206 0 min 0,000 mm 0,0 UV-I 0 W/m 3,5 C -0,8 C 24,1 km/h (4 Bft) 100,00 %
24.02.2017 06:28 6,0 C 84 % 1004,0 hPa 0,0 l/m 17,7 km/h (3 Bft) W-SW 240 0 min 0,000 mm 0,0 UV-I 0 W/m 3,5 C -1,0 C 24,1 km/h (4 Bft) 100,00 %
24.02.2017 06:29 6,0 C 84 % 1003,9 hPa 0,0 l/m 17,3 km/h (3 Bft) SW 228 0 min 0,000 mm 0,0 UV-I 0 W/m 3,5 C -0,8 C 29,0 km/h (5 Bft) 96,15 %
24.02.2017 06:30 6,0 C 84 % 1004,0 hPa 0,0 l/m 22,5 km/h (4 Bft) SW 234 0 min 0,000 mm 0,0 UV-I 0 W/m 3,5 C -2,8 C 33,8 km/h (5 Bft) 100,00 %
24.02.2017 06:31 6,0 C 84 % 1003,9 hPa 0,0 l/m 19,8 km/h (3 Bft) SW 224 0 min 0,000 mm 0,0 UV-I 0 W/m 3,5 C -1,8 C 35,4 km/h (5 Bft) 100,00 %
24.02.2017 06:32 6,0 C 84 % 1003,9 hPa 0,0 l/m 23,3 km/h (4 Bft) SW 234 0 min 0,000 mm 0,0 UV-I 0 W/m 3,5 C -3,0 C 30,6 km/h (5 Bft) 100,00 %
24.02.2017 06:33 6,0 C 84 % 1003,9 hPa 0,0 l/m 24,8 km/h (4 Bft) S-SW 196 0 min 0,000 mm 0,0 UV-I 0 W/m 3,5 C -3,5 C 37,0 km/h (5 Bft) 91,30 %
24.02.2017 06:34 6,0 C 83 % 1003,9 hPa 0,0 l/m 23,6 km/h (4 Bft) SW 225 0 min 0,000 mm 0,0 UV-I 0 W/m 3,3 C -3,1 C 30,6 km/h (5 Bft) 96,30 %
24.02.2017 06:35 6,0 C 84 % 1003,9 hPa 0,0 l/m 25,6 km/h (4 Bft) SW 236 0 min 0,000 mm 0,0 UV-I 0 W/m 3,5 C -3,8 C 40,2 km/h (6 Bft) 96,15 %
24.02.2017 06:36 6,0 C 84 % 1003,9 hPa 0,0 l/m 22,2 km/h (4 Bft) SW 217 0 min 0,000 mm 0,0 UV-I 0 W/m 3,5 C -2,7 C 27,4 km/h (4 Bft) 100,00 %
24.02.2017 06:37 6,1 C 84 % 1004,0 hPa 0,0 l/m 17,2 km/h (3 Bft) W 270 0 min 0,000 mm 0,0 UV-I 0 W/m 3,6 C -0,6 C 27,4 km/h (4 Bft) 95,83 %
24.02.2017 06:38 6,1 C 84 % 1004,0 hPa 0,0 l/m 19,3 km/h (3 Bft) S-SW 202 0 min 0,000 mm 0,0 UV-I 0 W/m 3,6 C -1,5 C 25,7 km/h (4 Bft) 100,00 %
24.02.2017 06:39 6,0 C 84 % 1004,0 hPa 0,0 l/m 18,3 km/h (3 Bft) W-SW 250 0 min 0,000 mm 0,0 UV-I 0 W/m 3,5 C -1,2 C 29,0 km/h (5 Bft) 100,00 %
24.02.2017 06:40 6,1 C 84 % 1004,0 hPa 0,0 l/m 22,3 km/h (4 Bft) W-SW 238 0 min 0,000 mm 0,0 UV-I 0 W/m 3,6 C -2,6 C 33,8 km/h (5 Bft) 100,00 %
24.02.2017 06:41 6,1 C 83 % 1004,0 hPa 0,0 l/m 20,6 km/h (4 Bft) S-SW 204 0 min 0,000 mm 0,0 UV-I 0 W/m 3,4 C -2,0 C 27,4 km/h (4 Bft) 94,44 %
24.02.2017 06:42 6,1 C 84 % 1004,1 hPa 0,0 l/m 20,5 km/h (4 Bft) W-SW 245 0 min 0,000 mm 0,0 UV-I 0 W/m 3,6 C -1,9 C 30,6 km/h (5 Bft) 96,15 %
24.02.2017 06:43 6,1 C 83 % 1004,1 hPa 0,0 l/m 21,5 km/h (4 Bft) SW 234 0 min 0,000 mm 0,0 UV-I 0 W/m 3,4 C -2,3 C 27,4 km/h (4 Bft) 95,83 %
24.02.2017 06:44 6,1 C 83 % 1004,1 hPa 0,0 l/m 15,0 km/h (3 Bft) SW 223 0 min 0,000 mm 0,0 UV-I 0 W/m 3,4 C 0,4 C 19,3 km/h (3 Bft) 100,00 %
24.02.2017 06:45 6,1 C 83 % 1004,1 hPa 0,0 l/m 22,4 km/h (4 Bft) SW 229 0 min 0,000 mm 0,0 UV-I 0 W/m 3,4 C -2,6 C 33,8 km/h (5 Bft) 91,67 %
24.02.2017 06:46 6,1 C 83 % 1004,1 hPa 0,0 l/m 23,9 km/h (4 Bft) W-SW 248 0 min 0,000 mm 0,0 UV-I 0 W/m 3,4 C -3,1 C 30,6 km/h (5 Bft) 95,65 %
24.02.2017 06:47 6,1 C 83 % 1004,1 hPa 0,0 l/m 18,7 km/h (3 Bft) SW 236 0 min 0,000 mm 0,0 UV-I 0 W/m 3,4 C -1,2 C 30,6 km/h (5 Bft) 96,30 %
24.02.2017 06:48 6,1 C 83 % 1004,2 hPa 0,0 l/m 20,8 km/h (4 Bft) W-SW 251 0 min 0,000 mm 0,0 UV-I 0 W/m 3,4 C -2,0 C 35,4 km/h (5 Bft) 92,86 %
24.02.2017 06:49 6,1 C 83 % 1004,1 hPa 0,0 l/m 19,5 km/h (3 Bft) SW 221 0 min 0,000 mm 0,0 UV-I 0 W/m 3,4 C -1,6 C 29,0 km/h (5 Bft) 100,00 %
24.02.2017 06:50 6,1 C 83 % 1004,1 hPa 0,0 l/m 22,6 km/h (4 Bft) SW 229 0 min 0,000 mm 0,0 UV-I 3 W/m 3,4 C -2,7 C 29,0 km/h (5 Bft) 94,12 %
24.02.2017 06:51 6,1 C 83 % 1004,1 hPa 0,0 l/m 19,1 km/h (3 Bft) S 188 0 min 0,000 mm 0,0 UV-I 5 W/m 3,4 C -1,4 C 25,7 km/h (4 Bft) 96,30 %
24.02.2017 06:52 6,1 C 83 % 1004,1 hPa 0,0 l/m 20,7 km/h (4 Bft) S 189 0 min 0,000 mm 0,0 UV-I 5 W/m 3,4 C -2,0 C 29,0 km/h (5 Bft) 100,00 %
24.02.2017 06:53 6,1 C 83 % 1004,1 hPa 0,0 l/m 27,1 km/h (4 Bft) SW 232 0 min 0,000 mm 0,0 UV-I 5 W/m 3,4 C -4,1 C 41,8 km/h (6 Bft) 96,30 %
24.02.2017 06:54 6,1 C 83 % 1004,2 hPa 0,0 l/m 26,2 km/h (4 Bft) S 182 0 min 0,000 mm 0,0 UV-I 5 W/m 3,4 C -3,8 C 40,2 km/h (6 Bft) 95,65 %
24.02.2017 06:55 6,1 C 83 % 1004,2 hPa 0,0 l/m 22,3 km/h (4 Bft) SW 229 0 min 0,000 mm 0,0 UV-I 5 W/m 3,4 C -2,6 C 32,2 km/h (5 Bft) 100,00 %
24.02.2017 06:56 6,1 C 83 % 1004,3 hPa 0,0 l/m 26,0 km/h (4 Bft) S-SW 207 0 min 0,000 mm 0,0 UV-I 5 W/m 3,4 C -3,8 C 37,0 km/h (5 Bft) 100,00 %
24.02.2017 06:57 6,1 C 82 % 1004,2 hPa 0,0 l/m 28,0 km/h (4 Bft) W-SW 244 0 min 0,000 mm 0,0 UV-I 5 W/m 3,3 C -4,3 C 40,2 km/h (6 Bft) 100,00 %
24.02.2017 06:58 6,1 C 82 % 1004,4 hPa 0,0 l/m 33,2 km/h (5 Bft) SW 232 0 min 0,000 mm 0,0 UV-I 5 W/m 3,3 C -5,6 C 48,3 km/h (6 Bft) 92,31 %
24.02.2017 06:59 6,1 C 82 % 1004,4 hPa 0,0 l/m 23,7 km/h (4 Bft) SW 221 0 min 0,000 mm 0,0 UV-I 5 W/m 3,3 C -3,0 C 37,0 km/h (5 Bft) 100,00 %
24.02.2017 07:00 6,1 C 82 % 1004,4 hPa 0,0 l/m 24,7 km/h (4 Bft) SW 233 0 min 0,025 mm 0,0 UV-I 5 W/m 3,3 C -3,4 C 40,2 km/h (6 Bft) 95,65 %
24.02.2017 07:01 6,1 C 82 % 1004,4 hPa 0,0 l/m 23,5 km/h (4 Bft) W-SW 239 0 min 0,000 mm 0,0 UV-I 5 W/m 3,3 C -3,0 C 33,8 km/h (5 Bft) 100,00 %
24.02.2017 07:02 6,1 C 82 % 1004,4 hPa 0,0 l/m 21,7 km/h (4 Bft) S-SW 211 0 min 0,000 mm 0,0 UV-I 5 W/m 3,3 C -2,4 C 35,4 km/h (5 Bft) 93,33 %
24.02.2017 07:03 6,1 C 81 % 1004,5 hPa 0,0 l/m 24,4 km/h (4 Bft) S-SW 192 0 min 0,000 mm 0,0 UV-I 5 W/m 3,1 C -3,3 C 40,2 km/h (6 Bft) 97,73 %
24.02.2017 07:04 6,2 C 81 % 1004,5 hPa 0,0 l/m 28,3 km/h (4 Bft) W-SW 257 0 min 0,000 mm 0,0 UV-I 5 W/m 3,2 C -4,3 C 40,2 km/h (6 Bft) 100,00 %
24.02.2017 07:05 6,1 C 81 % 1004,6 hPa 0,0 l/m 21,5 km/h (4 Bft) W-SW 242 0 min 0,000 mm 0,0 UV-I 5 W/m 3,1 C -2,3 C 32,2 km/h (5 Bft) 96,88 %
24.02.2017 07:06 6,1 C 81 % 1004,5 hPa 0,0 l/m 26,9 km/h (4 Bft) SW 229 0 min 0,000 mm 0,0 UV-I 6 W/m 3,1 C -4,0 C 37,0 km/h (5 Bft) 96,30 %
24.02.2017 07:07 6,1 C 81 % 1004,7 hPa 0,0 l/m 24,8 km/h (4 Bft) W-SW 242 0 min 0,000 mm 0,0 UV-I 7 W/m 3,1 C -3,4 C 33,8 km/h (5 Bft) 100,00 %
24.02.2017 07:08 6,1 C 81 % 1004,7 hPa 0,0 l/m 25,2 km/h (4 Bft) W-SW 240 0 min 0,000 mm 0,0 UV-I 7 W/m 3,1 C -3,5 C 33,8 km/h (5 Bft) 92,59 %
24.02.2017 07:09 6,1 C 81 % 1004,8 hPa 0,0 l/m 26,0 km/h (4 Bft) SW 225 0 min 0,000 mm 0,0 UV-I 7 W/m 3,1 C -3,8 C 40,2 km/h (6 Bft) 96,15 %
24.02.2017 07:10 6,1 C 81 % 1004,8 hPa 0,0 l/m 29,2 km/h (5 Bft) W-SW 238 0 min 0,000 mm 0,0 UV-I 7 W/m 3,1 C -4,6 C 37,0 km/h (5 Bft) 91,67 %
24.02.2017 07:11 6,1 C 81 % 1004,8 hPa 0,0 l/m 25,3 km/h (4 Bft) S-SW 213 0 min 0,000 mm 0,0 UV-I 7 W/m 3,1 C -3,5 C 37,0 km/h (5 Bft) 86,96 %
24.02.2017 07:12 6,1 C 81 % 1004,7 hPa 0,0 l/m 25,5 km/h (4 Bft) S-SW 200 0 min 0,000 mm 0,0 UV-I 7 W/m 3,1 C -3,6 C 41,8 km/h (6 Bft) 100,00 %
24.02.2017 07:13 6,1 C 80 % 1004,7 hPa 0,0 l/m 28,4 km/h (4 Bft) S-SW 202 0 min 0,000 mm 0,0 UV-I 7 W/m 2,9 C -4,4 C 41,8 km/h (6 Bft) 86,96 %
24.02.2017 07:14 6,2 C 80 % 1004,8 hPa 0,0 l/m 22,2 km/h (4 Bft) SW 229 0 min 0,000 mm 0,0 UV-I 8 W/m 3,0 C -2,4 C 40,2 km/h (6 Bft) 92,31 %
24.02.2017 07:15 6,2 C 80 % 1005,0 hPa 0,0 l/m 23,9 km/h (4 Bft) W-SW 255 0 min 0,000 mm 0,0 UV-I 9 W/m 3,0 C -3,0 C 38,6 km/h (5 Bft) 86,96 %
24.02.2017 07:16 6,1 C 80 % 1004,8 hPa 0,0 l/m 27,6 km/h (4 Bft) SW 228 0 min 0,000 mm 0,0 UV-I 9 W/m 2,9 C -4,2 C 43,5 km/h (6 Bft) 100,00 %
24.02.2017 07:17 6,1 C 80 % 1004,8 hPa 0,0 l/m 20,9 km/h (4 Bft) W-SW 249 0 min 0,000 mm 0,0 UV-I 9 W/m 2,9 C -2,1 C 27,4 km/h (4 Bft) 95,83 %
24.02.2017 07:18 6,1 C 80 % 1004,8 hPa 0,0 l/m 26,3 km/h (4 Bft) SW 223 0 min 0,000 mm 0,0 UV-I 9 W/m 2,9 C -3,8 C 33,8 km/h (5 Bft) 91,30 %
24.02.2017 07:19 6,1 C 81 % 1004,8 hPa 0,0 l/m 17,2 km/h (3 Bft) W-SW 247 0 min 0,000 mm 0,0 UV-I 9 W/m 3,1 C -0,6 C 24,1 km/h (4 Bft) 100,00 %
24.02.2017 07:20 6,1 C 81 % 1004,8 hPa 0,0 l/m 25,5 km/h (4 Bft) W-SW 244 0 min 0,000 mm 0,0 UV-I 9 W/m 3,1 C -3,6 C 37,0 km/h (5 Bft) 95,65 %
24.02.2017 07:21 6,1 C 81 % 1004,8 hPa 0,0 l/m 21,3 km/h (4 Bft) SW 224 0 min 0,000 mm 0,0 UV-I 9 W/m 3,1 C -2,2 C 30,6 km/h (5 Bft) 100,00 %
24.02.2017 07:22 6,1 C 81 % 1004,8 hPa 0,0 l/m 22,9 km/h (4 Bft) W-SW 239 0 min 0,000 mm 0,0 UV-I 11 W/m 3,1 C -2,8 C 32,2 km/h (5 Bft) 91,30 %
24.02.2017 07:23 6,1 C 81 % 1005,2 hPa 0,0 l/m 27,0 km/h (4 Bft) SW 227 0 min 0,000 mm 0,0 UV-I 11 W/m 3,1 C -4,0 C 41,8 km/h (6 Bft) 95,83 %
24.02.2017 07:24 6,0 C 81 % 1005,1 hPa 0,0 l/m 26,4 km/h (4 Bft) SW 230 0 min 0,000 mm 0,0 UV-I 11 W/m 3,0 C -4,0 C 38,6 km/h (5 Bft) 96,00 %
24.02.2017 07:25 6,0 C 81 % 1005,2 hPa 0,0 l/m 23,8 km/h (4 Bft) S-SW 200 0 min 0,000 mm 0,0 UV-I 11 W/m 3,0 C -3,2 C 33,8 km/h (5 Bft) 96,30 %
24.02.2017 07:26 5,9 C 82 % 1005,1 hPa 0,0 l/m 23,2 km/h (4 Bft) SW 216 0 min 0,000 mm 0,0 UV-I 11 W/m 3,1 C -3,1 C 30,6 km/h (5 Bft) 100,00 %
24.02.2017 07:27 5,9 C 82 % 1005,5 hPa 0,0 l/m 25,2 km/h (4 Bft) SW 234 0 min 0,000 mm 0,0 UV-I 12 W/m 3,1 C -3,8 C 43,5 km/h (6 Bft) 91,67 %
24.02.2017 07:28 5,9 C 82 % 1005,2 hPa 0,0 l/m 24,0 km/h (4 Bft) SW 227 0 min 0,000 mm 0,0 UV-I 12 W/m 3,1 C -3,4 C 45,1 km/h (6 Bft) 100,00 %
24.02.2017 07:29 5,9 C 82 % 1005,2 hPa 0,0 l/m 27,4 km/h (4 Bft) SW 231 0 min 0,000 mm 0,0 UV-I 12 W/m 3,1 C -4,4 C 40,2 km/h (6 Bft) 96,30 %
24.02.2017 07:30 5,8 C 82 % 1005,3 hPa 0,0 l/m 30,8 km/h (5 Bft) S-SW 211 0 min 0,000 mm 0,0 UV-I 14 W/m 3,0 C -5,4 C 40,2 km/h (6 Bft) 100,00 %
24.02.2017 07:31 5,8 C 82 % 1005,3 hPa 0,0 l/m 29,2 km/h (5 Bft) SW 219 0 min 0,000 mm 0,0 UV-I 15 W/m 3,0 C -5,0 C 38,6 km/h (5 Bft) 96,67 %
24.02.2017 07:32 5,8 C 82 % 1005,5 hPa 0,0 l/m 30,3 km/h (5 Bft) SW 229 0 min 0,000 mm 0,0 UV-I 18 W/m 3,0 C -5,3 C 41,8 km/h (6 Bft) 92,31 %
24.02.2017 07:33 5,8 C 82 % 1005,3 hPa 0,0 l/m 28,5 km/h (4 Bft) SW 225 0 min 0,000 mm 0,0 UV-I 18 W/m 3,0 C -4,9 C 40,2 km/h (6 Bft) 100,00 %
24.02.2017 07:34 5,8 C 82 % 1005,3 hPa 0,0 l/m 29,6 km/h (5 Bft) SW 232 0 min 0,000 mm 0,0 UV-I 18 W/m 3,0 C -5,1 C 43,5 km/h (6 Bft) 92,31 %
24.02.2017 07:35 5,8 C 82 % 1005,4 hPa 0,0 l/m 23,5 km/h (4 Bft) W 265 0 min 0,000 mm 0,0 UV-I 16 W/m 3,0 C -3,4 C 30,6 km/h (5 Bft) 96,30 %
24.02.2017 07:36 5,8 C 82 % 1005,3 hPa 0,0 l/m 33,6 km/h (5 Bft) W-SW 245 0 min 0,000 mm 0,0 UV-I 16 W/m 3,0 C -6,1 C 43,5 km/h (6 Bft) 88,46 %
24.02.2017 07:37 5,8 C 82 % 1005,3 hPa 0,0 l/m 27,4 km/h (4 Bft) W-SW 244 0 min 0,000 mm 0,0 UV-I 16 W/m 3,0 C -4,6 C 40,2 km/h (6 Bft) 100,00 %
24.02.2017 07:38 5,8 C 83 % 1005,4 hPa 0,0 l/m 22,4 km/h (4 Bft) S-SW 209 0 min 0,000 mm 0,0 UV-I 16 W/m 3,1 C -3,0 C 27,4 km/h (4 Bft) 93,75 %
24.02.2017 07:39 5,8 C 83 % 1005,4 hPa 0,0 l/m 26,1 km/h (4 Bft) SW 229 0 min 0,000 mm 0,0 UV-I 16 W/m 3,1 C -4,2 C 37,0 km/h (5 Bft) 100,00 %
24.02.2017 07:40 5,8 C 83 % 1005,4 hPa 0,0 l/m 33,3 km/h (5 Bft) SW 230 0 min 0,000 mm 0,0 UV-I 18 W/m 3,1 C -6,0 C 40,2 km/h (6 Bft) 93,33 %
24.02.2017 07:41 5,8 C 83 % 1005,5 hPa 0,0 l/m 34,0 km/h (5 Bft) SW 217 0 min 0,000 mm 0,0 UV-I 16 W/m 3,1 C -6,2 C 43,5 km/h (6 Bft) 93,10 %
24.02.2017 07:42 5,8 C 83 % 1005,6 hPa 0,0 l/m 25,3 km/h (4 Bft) SW 232 0 min 0,000 mm 0,0 UV-I 16 W/m 3,1 C -4,0 C 35,4 km/h (5 Bft) 95,83 %
24.02.2017 07:43 5,8 C 83 % 1005,7 hPa 0,0 l/m 27,2 km/h (4 Bft) SW 236 0 min 0,000 mm 0,0 UV-I 16 W/m 3,1 C -4,5 C 35,4 km/h (5 Bft) 95,65 %
24.02.2017 07:44 5,8 C 83 % 1005,6 hPa 0,0 l/m 22,7 km/h (4 Bft) W 264 0 min 0,000 mm 0,0 UV-I 17 W/m 3,1 C -3,1 C 37,0 km/h (5 Bft) 95,83 %
24.02.2017 07:45 5,8 C 83 % 1005,7 hPa 0,0 l/m 21,5 km/h (4 Bft) W-SW 250 0 min 0,000 mm 0,0 UV-I 19 W/m 3,1 C -2,7 C 27,4 km/h (4 Bft) 91,30 %
24.02.2017 07:46 5,8 C 83 % 1005,7 hPa 0,0 l/m 24,1 km/h (4 Bft) W-SW 244 0 min 0,000 mm 0,0 UV-I 21 W/m 3,1 C -3,6 C 37,0 km/h (5 Bft) 95,83 %
24.02.2017 07:47 5,8 C 83 % 1005,7 hPa 0,0 l/m 33,3 km/h (5 Bft) W-SW 238 0 min 0,000 mm 0,0 UV-I 21 W/m 3,1 C -6,0 C 48,3 km/h (6 Bft) 95,65 %
24.02.2017 07:48 5,8 C 83 % 1005,8 hPa 0,0 l/m 21,8 km/h (4 Bft) SW 216 0 min 0,000 mm 0,0 UV-I 24 W/m 3,1 C -2,8 C 33,8 km/h (5 Bft) 95,83 %
24.02.2017 07:49 5,8 C 83 % 1005,8 hPa 0,0 l/m 23,3 km/h (4 Bft) W-SW 254 0 min 0,000 mm 0,0 UV-I 26 W/m 3,1 C -3,3 C 38,6 km/h (5 Bft) 96,15 %
24.02.2017 07:50 5,8 C 83 % 1005,9 hPa 0,0 l/m 25,3 km/h (4 Bft) W-SW 250 0 min 0,000 mm 0,0 UV-I 26 W/m 3,1 C -4,0 C 37,0 km/h (5 Bft) 100,00 %
24.02.2017 07:51 5,8 C 83 % 1005,9 hPa 0,0 l/m 24,8 km/h (4 Bft) SW 231 0 min 0,000 mm 0,0 UV-I 28 W/m 3,1 C -3,8 C 30,6 km/h (5 Bft) 100,00 %
24.02.2017 07:52 5,8 C 83 % 1006,0 hPa 0,0 l/m 30,9 km/h (5 Bft) SW 227 0 min 0,000 mm 0,0 UV-I 28 W/m 3,1 C -5,5 C 40,2 km/h (6 Bft) 96,30 %
24.02.2017 07:53 5,7 C 83 % 1006,1 hPa 0,0 l/m 24,8 km/h (4 Bft) W-SW 250 0 min 0,000 mm 0,0 UV-I 30 W/m 3,0 C -3,9 C 33,8 km/h (5 Bft) 100,00 %
24.02.2017 07:54 5,7 C 83 % 1006,1 hPa 0,0 l/m 29,0 km/h (5 Bft) SW 226 0 min 0,000 mm 0,0 UV-I 30 W/m 3,0 C -5,1 C 38,6 km/h (5 Bft) 100,00 %
24.02.2017 07:55 5,7 C 83 % 1006,0 hPa 0,0 l/m 29,2 km/h (5 Bft) W-SW 238 0 min 0,000 mm 0,0 UV-I 30 W/m 3,0 C -5,2 C 40,2 km/h (6 Bft) 92,59 %
24.02.2017 07:56 5,7 C 83 % 1006,1 hPa 0,0 l/m 28,0 km/h (4 Bft) W-SW 254 0 min 0,000 mm 0,0 UV-I 31 W/m 3,0 C -4,9 C 37,0 km/h (5 Bft) 92,31 %
24.02.2017 07:57 5,7 C 83 % 1006,1 hPa 0,0 l/m 23,9 km/h (4 Bft) W-SW 255 0 min 0,000 mm 0,0 UV-I 33 W/m 3,0 C -3,6 C 35,4 km/h (5 Bft) 95,83 %
24.02.2017 07:58 5,7 C 83 % 1006,1 hPa 0,0 l/m 25,7 km/h (4 Bft) SW 228 0 min 0,000 mm 0,0 UV-I 37 W/m 3,0 C -4,2 C 37,0 km/h (5 Bft) 100,00 %
24.02.2017 07:59 5,7 C 83 % 1006,1 hPa 0,0 l/m 25,7 km/h (4 Bft) SW 236 0 min 0,000 mm 0,0 UV-I 41 W/m 3,0 C -4,2 C 32,2 km/h (5 Bft) 92,31 %
24.02.2017 08:00 5,7 C 83 % 1006,1 hPa 0,0 l/m 20,5 km/h (4 Bft) W-SW 240 0 min 0,051 mm 0,0 UV-I 44 W/m 3,0 C -2,5 C 33,8 km/h (5 Bft) 100,00 %
24.02.2017 08:01 5,7 C 84 % 1006,1 hPa 0,0 l/m 20,9 km/h (4 Bft) S-SW 196 0 min 0,000 mm 0,0 UV-I 48 W/m 3,2 C -2,6 C 30,6 km/h (5 Bft) 100,00 %
24.02.2017 08:02 5,7 C 84 % 1006,1 hPa 0,0 l/m 19,7 km/h (3 Bft) SW 223 0 min 0,000 mm 0,0 UV-I 52 W/m 3,2 C -2,2 C 29,0 km/h (5 Bft) 100,00 %
24.02.2017 08:03 5,7 C 84 % 1006,2 hPa 0,0 l/m 19,7 km/h (3 Bft) SW 215 0 min 0,000 mm 0,0 UV-I 54 W/m 3,2 C -2,2 C 30,6 km/h (5 Bft) 100,00 %
24.02.2017 08:04 5,7 C 84 % 1006,2 hPa 0,0 l/m 19,4 km/h (3 Bft) W-SW 238 0 min 0,000 mm 0,0 UV-I 54 W/m 3,2 C -2,0 C 29,0 km/h (5 Bft) 90,62 %
24.02.2017 08:05 5,7 C 84 % 1006,2 hPa 0,0 l/m 17,0 km/h (3 Bft) SW 236 0 min 0,000 mm 0,0 UV-I 57 W/m 3,2 C -1,0 C 25,7 km/h (4 Bft) 96,30 %
24.02.2017 08:06 5,7 C 84 % 1006,2 hPa 0,0 l/m 15,8 km/h (3 Bft) SW 224 0 min 0,000 mm 0,0 UV-I 59 W/m 3,2 C -0,5 C 25,7 km/h (4 Bft) 97,07 %
24.02.2017 08:07 5,7 C 84 % 1006,2 hPa 0,0 l/m 21,9 km/h (4 Bft) S-SW 202 0 min 0,000 mm 0,0 UV-I 61 W/m 3,2 C -3,0 C 33,8 km/h (5 Bft) 100,00 %
24.02.2017 08:08 5,7 C 84 % 1006,3 hPa 0,0 l/m 20,5 km/h (4 Bft) S-SW 197 0 min 0,000 mm 0,0 UV-I 62 W/m 3,2 C -2,5 C 32,2 km/h (5 Bft) 96,15 %
24.02.2017 08:09 5,7 C 84 % 1006,3 hPa 0,0 l/m 17,0 km/h (3 Bft) W-SW 256 0 min 0,000 mm 0,0 UV-I 63 W/m 3,2 C -1,0 C 25,7 km/h (4 Bft) 100,00 %
24.02.2017 08:10 5,7 C 84 % 1006,3 hPa 0,0 l/m 22,1 km/h (4 Bft) S-SW 204 0 min 0,000 mm 0,0 UV-I 66 W/m 3,2 C -3,0 C 30,6 km/h (5 Bft) 91,30 %
24.02.2017 08:11 5,7 C 84 % 1006,3 hPa 0,0 l/m 19,2 km/h (3 Bft) W-SW 246 0 min 0,000 mm 0,0 UV-I 72 W/m 3,2 C -2,0 C 24,1 km/h (4 Bft) 87,50 %
24.02.2017 08:12 5,7 C 84 % 1006,3 hPa 0,0 l/m 18,0 km/h (3 Bft) SW 220 0 min 0,000 mm 0,0 UV-I 78 W/m 3,2 C -1,5 C 30,6 km/h (5 Bft) 100,00 %
24.02.2017 08:13 5,7 C 84 % 1006,3 hPa 0,0 l/m 19,0 km/h (3 Bft) S-SW 210 0 min 0,000 mm 0,0 UV-I 81 W/m 3,2 C -1,9 C 27,4 km/h (4 Bft) 100,00 %
24.02.2017 08:14 5,7 C 84 % 1006,3 hPa 0,0 l/m 18,6 km/h (3 Bft) SW 230 0 min 0,000 mm 0,0 UV-I 77 W/m 3,2 C -1,7 C 35,4 km/h (5 Bft) 96,15 %
24.02.2017 08:15 5,7 C 84 % 1006,3 hPa 0,0 l/m 22,7 km/h (4 Bft) W-SW 240 0 min 0,000 mm 0,0 UV-I 66 W/m 3,2 C -3,2 C 32,2 km/h (5 Bft) 96,30 %
24.02.2017 08:16 5,7 C 84 % 1006,3 hPa 0,0 l/m 17,9 km/h (3 Bft) SW 234 0 min 0,000 mm 0,0 UV-I 57 W/m 3,2 C -1,4 C 25,7 km/h (4 Bft) 100,00 %
24.02.2017 08:17 5,7 C 84 % 1006,4 hPa 0,0 l/m 17,9 km/h (3 Bft) W-SW 240 0 min 0,000 mm 0,0 UV-I 52 W/m 3,2 C -1,4 C 22,5 km/h (4 Bft) 100,00 %
24.02.2017 08:18 5,7 C 84 % 1006,4 hPa 0,0 l/m 19,1 km/h (3 Bft) W-SW 255 0 min 0,000 mm 0,0 UV-I 51 W/m 3,2 C -1,9 C 32,2 km/h (5 Bft) 95,83 %
24.02.2017 08:19 5,7 C 84 % 1006,5 hPa 0,0 l/m 21,9 km/h (4 Bft) W-SW 242 0 min 0,000 mm 0,0 UV-I 52 W/m 3,2 C -3,0 C 30,6 km/h (5 Bft) 95,65 %
24.02.2017 08:20 5,7 C 84 % 1006,5 hPa 0,0 l/m 22,8 km/h (4 Bft) S-SW 207 0 min 0,000 mm 0,0 UV-I 54 W/m 3,2 C -3,3 C 32,2 km/h (5 Bft) 91,67 %
24.02.2017 08:21 5,7 C 84 % 1006,5 hPa 0,0 l/m 18,6 km/h (3 Bft) SW 223 0 min 0,000 mm 0,0 UV-I 56 W/m 3,2 C -1,7 C 29,0 km/h (5 Bft) 100,00 %
24.02.2017 08:22 5,7 C 84 % 1006,5 hPa 0,0 l/m 18,4 km/h (3 Bft) SW 235 0 min 0,000 mm 0,0 UV-I 61 W/m 3,2 C -1,6 C 24,1 km/h (4 Bft) 100,00 %
24.02.2017 08:23 5,7 C 84 % 1006,6 hPa 0,0 l/m 21,2 km/h (4 Bft) W-SW 252 0 min 0,000 mm 0,0 UV-I 64 W/m 3,2 C -2,7 C 29,0 km/h (5 Bft) 100,00 %
24.02.2017 08:24 5,7 C 84 % 1006,7 hPa 0,0 l/m 21,4 km/h (4 Bft) S-SO 165 0 min 0,000 mm 0,0 UV-I 69 W/m 3,2 C -2,8 C 29,0 km/h (5 Bft) 95,83 %
24.02.2017 08:25 5,7 C 84 % 1006,7 hPa 0,0 l/m 16,2 km/h (3 Bft) SW 226 0 min 0,000 mm 0,0 UV-I 71 W/m 3,2 C -0,7 C 24,1 km/h (4 Bft) 95,65 %
24.02.2017 08:26 5,7 C 84 % 1006,7 hPa 0,0 l/m 20,5 km/h (4 Bft) W-SW 254 0 min 0,000 mm 0,0 UV-I 76 W/m 3,2 C -2,5 C 29,0 km/h (5 Bft) 95,83 %
24.02.2017 08:27 5,8 C 84 % 1006,7 hPa 0,0 l/m 21,9 km/h (4 Bft) SW 236 0 min 0,000 mm 0,0 UV-I 84 W/m 3,3 C -2,8 C 29,0 km/h (5 Bft) 100,00 %
24.02.2017 08:28 5,8 C 84 % 1006,8 hPa 0,0 l/m 18,9 km/h (3 Bft) W 269 0 min 0,000 mm 0,0 UV-I 90 W/m 3,3 C -1,7 C 24,1 km/h (4 Bft) 100,00 %
24.02.2017 08:29 5,8 C 84 % 1006,8 hPa 0,0 l/m 25,9 km/h (4 Bft) W-SW 251 0 min 0,000 mm 0,0 UV-I 92 W/m 3,3 C -4,1 C 37,0 km/h (5 Bft) 100,00 %
24.02.2017 08:30 5,8 C 84 % 1006,7 hPa 0,0 l/m 14,7 km/h (3 Bft) S 191 0 min 0,000 mm 0,0 UV-I 94 W/m 3,3 C 0,2 C 20,9 km/h (4 Bft) 100,00 %
24.02.2017 08:31 5,8 C 84 % 1006,8 hPa 0,0 l/m 20,8 km/h (4 Bft) S-SW 209 0 min 0,000 mm 0,0 UV-I 95 W/m 3,3 C -2,4 C 30,6 km/h (5 Bft) 95,65 %
24.02.2017 08:32 5,8 C 84 % 1006,8 hPa 0,0 l/m 19,0 km/h (3 Bft) W-SW 237 0 min 0,000 mm 0,0 UV-I 97 W/m 3,3 C -1,7 C 29,0 km/h (5 Bft) 95,83 %
24.02.2017 08:33 5,8 C 84 % 1006,8 hPa 0,0 l/m 20,9 km/h (4 Bft) SW 227 0 min 0,000 mm 0,0 UV-I 98 W/m 3,3 C -2,5 C 30,6 km/h (5 Bft) 95,65 %
24.02.2017 08:34 5,8 C 84 % 1006,8 hPa 0,0 l/m 21,1 km/h (4 Bft) W-SW 249 0 min 0,000 mm 0,0 UV-I 98 W/m 3,3 C -2,6 C 33,8 km/h (5 Bft) 95,83 %
24.02.2017 08:35 5,8 C 84 % 1006,8 hPa 0,0 l/m 24,6 km/h (4 Bft) SW 219 0 min 0,000 mm 0,0 UV-I 98 W/m 3,3 C -3,7 C 30,6 km/h (5 Bft) 82,61 %
24.02.2017 08:36 5,8 C 85 % 1006,8 hPa 0,0 l/m 20,9 km/h (4 Bft) SW 224 0 min 0,000 mm 0,0 UV-I 98 W/m 3,5 C -2,5 C 29,0 km/h (5 Bft) 100,00 %
24.02.2017 08:37 5,8 C 84 % 1006,8 hPa 0,0 l/m 20,5 km/h (4 Bft) W-SW 243 0 min 0,000 mm 0,0 UV-I 99 W/m 3,3 C -2,3 C 30,6 km/h (5 Bft) 96,15 %
24.02.2017 08:38 5,8 C 85 % 1006,9 hPa 0,0 l/m 21,3 km/h (4 Bft) SW 236 0 min 0,000 mm 0,0 UV-I 100 W/m 3,5 C -2,6 C 25,7 km/h (4 Bft) 100,00 %
24.02.2017 08:39 5,8 C 84 % 1006,9 hPa 0,0 l/m 24,5 km/h (4 Bft) W-SW 258 0 min 0,000 mm 0,0 UV-I 102 W/m 3,3 C -3,7 C 30,6 km/h (5 Bft) 93,33 %
24.02.2017 08:40 5,8 C 85 % 1006,9 hPa 0,0 l/m 19,8 km/h (3 Bft) SW 221 0 min 0,000 mm 0,0 UV-I 104 W/m 3,5 C -2,1 C 27,4 km/h (4 Bft) 100,00 %
24.02.2017 08:41 5,8 C 85 % 1006,9 hPa 0,0 l/m 18,6 km/h (3 Bft) W-SW 244 0 min 0,000 mm 0,0 UV-I 107 W/m 3,5 C -1,6 C 29,0 km/h (5 Bft) 100,00 %
24.02.2017 08:42 5,8 C 85 % 1006,9 hPa 0,0 l/m 20,1 km/h (4 Bft) S-SO 157 0 min 0,000 mm 0,0 UV-I 110 W/m 3,5 C -2,2 C 30,6 km/h (5 Bft) 95,65 %
24.02.2017 08:43 5,8 C 85 % 1006,9 hPa 0,0 l/m 18,6 km/h (3 Bft) SW 221 0 min 0,000 mm 0,0 UV-I 112 W/m 3,5 C -1,6 C 25,7 km/h (4 Bft) 95,83 %
24.02.2017 08:44 5,8 C 84 % 1007,0 hPa 0,0 l/m 23,9 km/h (4 Bft) W-SW 248 0 min 0,000 mm 0,0 UV-I 114 W/m 3,3 C -3,5 C 30,6 km/h (5 Bft) 100,00 %
24.02.2017 08:45 5,8 C 84 % 1007,0 hPa 0,0 l/m 18,9 km/h (3 Bft) W-SW 244 0 min 0,000 mm 0,0 UV-I 116 W/m 3,3 C -1,7 C 25,7 km/h (4 Bft) 96,30 %
24.02.2017 08:46 5,8 C 84 % 1007,0 hPa 0,0 l/m 20,2 km/h (4 Bft) SW 217 0 min 0,000 mm 0,0 UV-I 117 W/m 3,3 C -2,2 C 27,4 km/h (4 Bft) 95,65 %
24.02.2017 08:47 5,9 C 84 % 1007,0 hPa 0,0 l/m 20,1 km/h (4 Bft) W 269 0 min 0,000 mm 0,0 UV-I 118 W/m 3,4 C -2,0 C 29,0 km/h (5 Bft) 100,00 %
24.02.2017 08:48 5,9 C 84 % 1007,1 hPa 0,0 l/m 22,0 km/h (4 Bft) W-SW 242 0 min 0,000 mm 0,0 UV-I 120 W/m 3,4 C -2,7 C 30,6 km/h (5 Bft) 85,71 %
24.02.2017 08:49 5,9 C 83 % 1007,1 hPa 0,0 l/m 26,0 km/h (4 Bft) SW 229 0 min 0,000 mm 0,0 UV-I 123 W/m 3,2 C -4,0 C 30,6 km/h (5 Bft) 100,00 %
24.02.2017 08:50 5,9 C 83 % 1007,1 hPa 0,0 l/m 25,0 km/h (4 Bft) S-SW 199 0 min 0,000 mm 0,0 UV-I 125 W/m 3,2 C -3,7 C 32,2 km/h (5 Bft) 100,00 %
24.02.2017 08:51 6,0 C 82 % 1007,1 hPa 0,0 l/m 19,2 km/h (3 Bft) W-SW 244 0 min 0,000 mm 0,0 UV-I 125 W/m 3,2 C -1,6 C 25,7 km/h (4 Bft) 100,00 %
24.02.2017 08:52 6,0 C 82 % 1007,1 hPa 0,0 l/m 20,5 km/h (4 Bft) W-SW 242 0 min 0,000 mm 0,0 UV-I 124 W/m 3,2 C -2,1 C 27,4 km/h (4 Bft) 100,00 %
24.02.2017 08:53 6,1 C 82 % 1007,1 hPa 0,0 l/m 18,9 km/h (3 Bft) SW 233 0 min 0,000 mm 0,0 UV-I 120 W/m 3,3 C -1,3 C 25,7 km/h (4 Bft) 95,83 %
24.02.2017 08:54 6,1 C 82 % 1007,2 hPa 0,0 l/m 18,9 km/h (3 Bft) SW 226 0 min 0,000 mm 0,0 UV-I 117 W/m 3,3 C -1,3 C 27,4 km/h (4 Bft) 91,30 %
24.02.2017 08:55 6,1 C 80 % 1007,2 hPa 0,0 l/m 19,2 km/h (3 Bft) W 267 0 min 0,000 mm 0,0 UV-I 114 W/m 2,9 C -1,4 C 29,0 km/h (5 Bft) 88,89 %
24.02.2017 08:56 6,2 C 79 % 1007,2 hPa 0,0 l/m 17,9 km/h (3 Bft) SW 225 0 min 0,000 mm 0,0 UV-I 113 W/m 2,8 C -0,8 C 25,7 km/h (4 Bft) 96,15 %
24.02.2017 08:57 6,2 C 79 % 1007,2 hPa 0,0 l/m 14,6 km/h (3 Bft) W 259 0 min 0,000 mm 0,0 UV-I 113 W/m 2,8 C 0,7 C 20,9 km/h (4 Bft) 100,00 %
24.02.2017 08:58 6,2 C 80 % 1007,2 hPa 0,0 l/m 16,4 km/h (3 Bft) SW 235 0 min 0,000 mm 0,0 UV-I 118 W/m 3,0 C -0,1 C 24,1 km/h (4 Bft) 100,00 %
24.02.2017 08:59 6,2 C 79 % 1007,2 hPa 0,0 l/m 16,2 km/h (3 Bft) W-SW 253 0 min 0,000 mm 0,0 UV-I 130 W/m 2,8 C -0,0 C 22,5 km/h (4 Bft) 100,00 %
24.02.2017 09:00 6,3 C 79 % 1007,3 hPa 0,0 l/m 14,0 km/h (3 Bft) W 271 0 min 0,076 mm 0,0 UV-I 144 W/m 2,9 C 1,2 C 19,3 km/h (3 Bft) 96,30 %
24.02.2017 09:01 6,3 C 78 % 1007,3 hPa 0,0 l/m 14,9 km/h (3 Bft) W 259 0 min 0,000 mm 0,0 UV-I 153 W/m 2,8 C 0,7 C 24,1 km/h (4 Bft) 96,55 %
24.02.2017 09:02 6,3 C 78 % 1007,4 hPa 0,0 l/m 24,1 km/h (4 Bft) W-SW 242 0 min 0,000 mm 0,0 UV-I 169 W/m 2,8 C -2,9 C 37,0 km/h (5 Bft) 100,00 %
24.02.2017 09:03 6,4 C 76 % 1007,1 hPa 0,0 l/m 22,4 km/h (4 Bft) W-SW 256 0 min 0,000 mm 0,0 UV-I 173 W/m 2,5 C -2,2 C 27,4 km/h (4 Bft) 100,00 %
24.02.2017 09:04 6,4 C 75 % 1007,3 hPa 0,0 l/m 20,5 km/h (4 Bft) W 264 0 min 0,000 mm 0,0 UV-I 175 W/m 2,3 C -1,5 C 25,7 km/h (4 Bft) 100,00 %
24.02.2017 09:05 6,5 C 75 % 1007,2 hPa 0,0 l/m 16,1 km/h (3 Bft) SW 236 1 min 0,000 mm 0,0 UV-I 181 W/m 2,4 C 0,4 C 20,9 km/h (4 Bft) 88,24 %
24.02.2017 09:06 6,6 C 74 % 1007,3 hPa 0,0 l/m 18,4 km/h (3 Bft) W-SW 240 0 min 0,000 mm 0,0 UV-I 178 W/m 2,3 C -0,5 C 25,7 km/h (4 Bft) 96,67 %
24.02.2017 09:07 6,6 C 74 % 1007,4 hPa 0,0 l/m 20,5 km/h (4 Bft) W-SW 252 0 min 0,000 mm 0,0 UV-I 179 W/m 2,3 C -1,3 C 30,6 km/h (5 Bft) 100,00 %
24.02.2017 09:08 6,7 C 72 % 1007,4 hPa 0,0 l/m 17,7 km/h (3 Bft) SW 226 0 min 0,000 mm 0,0 UV-I 171 W/m 2,0 C -0,1 C 24,1 km/h (4 Bft) 90,00 %
24.02.2017 09:09 6,7 C 73 % 1007,4 hPa 0,0 l/m 20,2 km/h (4 Bft) W 263 0 min 0,000 mm 0,0 UV-I 168 W/m 2,2 C -1,1 C 48,3 km/h (6 Bft) 100,00 %
24.02.2017 09:10 6,7 C 72 % 1007,2 hPa 0,0 l/m 26,2 km/h (4 Bft) W-SW 240 0 min 0,000 mm 0,0 UV-I 176 W/m 2,0 C -3,0 C 48,3 km/h (6 Bft) 91,67 %
24.02.2017 09:11 6,8 C 70 % 1007,2 hPa 0,0 l/m 23,9 km/h (4 Bft) W-SW 248 1 min 0,000 mm 0,0 UV-I 194 W/m 1,7 C -2,2 C 32,2 km/h (5 Bft) 100,00 %
24.02.2017 09:12 6,8 C 70 % 1007,4 hPa 0,0 l/m 18,6 km/h (3 Bft) W 273 1 min 0,000 mm 0,0 UV-I 217 W/m 1,7 C -0,3 C 25,7 km/h (4 Bft) 96,30 %
24.02.2017 09:13 6,9 C 70 % 1007,4 hPa 0,0 l/m 17,5 km/h (3 Bft) W-SW 253 1 min 0,000 mm 0,0 UV-I 225 W/m 1,8 C 0,3 C 24,1 km/h (4 Bft) 80,77 %
24.02.2017 09:14 6,9 C 68 % 1007,4 hPa 0,0 l/m 16,2 km/h (3 Bft) W 263 1 min 0,000 mm 0,0 UV-I 223 W/m 1,4 C 0,8 C 24,1 km/h (4 Bft) 100,00 %
24.02.2017 09:15 7,0 C 68 % 1007,4 hPa 0,0 l/m 19,5 km/h (3 Bft) W-SW 256 1 min 0,000 mm 0,0 UV-I 212 W/m 1,5 C -0,4 C 32,2 km/h (5 Bft) 93,10 %
24.02.2017 09:16 7,1 C 68 % 1007,4 hPa 0,0 l/m 22,2 km/h (4 Bft) W 263 1 min 0,000 mm 0,0 UV-I 204 W/m 1,6 C -1,2 C 32,2 km/h (5 Bft) 100,00 %
24.02.2017 09:17 7,1 C 66 % 1007,4 hPa 0,0 l/m 23,1 km/h (4 Bft) W 270 1 min 0,000 mm 0,0 UV-I 202 W/m 1,2 C -1,5 C 37,0 km/h (5 Bft) 89,66 %
24.02.2017 09:18 7,1 C 64 % 1007,4 hPa 0,0 l/m 22,5 km/h (4 Bft) W 269 0 min 0,000 mm 0,0 UV-I 189 W/m 0,8 C -1,3 C 29,0 km/h (5 Bft) 100,00 %
24.02.2017 09:19 7,2 C 63 % 1007,4 hPa 0,0 l/m 18,5 km/h (3 Bft) W-SW 252 1 min 0,000 mm 0,0 UV-I 199 W/m 0,6 C 0,2 C 35,4 km/h (5 Bft) 88,89 %
24.02.2017 09:20 7,2 C 65 % 1007,5 hPa 0,0 l/m 13,2 km/h (3 Bft) SW 229 1 min 0,000 mm 0,0 UV-I 233 W/m 1,1 C 2,6 C 19,3 km/h (3 Bft) 95,65 %
24.02.2017 09:21 7,3 C 65 % 1007,5 hPa 0,0 l/m 13,9 km/h (3 Bft) SW 234 1 min 0,000 mm 0,0 UV-I 237 W/m 1,2 C 2,4 C 20,9 km/h (4 Bft) 95,83 %
24.02.2017 09:22 7,3 C 67 % 1007,5 hPa 0,0 l/m 18,3 km/h (3 Bft) SW 230 1 min 0,000 mm 0,1 UV-I 250 W/m 1,6 C 0,4 C 22,5 km/h (4 Bft) 96,15 %
24.02.2017 09:23 7,3 C 68 % 1007,6 hPa 0,0 l/m 17,6 km/h (3 Bft) W-SW 257 1 min 0,000 mm 0,5 UV-I 284 W/m 1,8 C 0,7 C 30,6 km/h (5 Bft) 100,00 %
24.02.2017 09:24 7,3 C 67 % 1007,5 hPa 0,0 l/m 22,1 km/h (4 Bft) W 267 1 min 0,000 mm 0,2 UV-I 271 W/m 1,6 C -0,9 C 30,6 km/h (5 Bft) 95,65 %
24.02.2017 09:25 7,3 C 67 % 1007,5 hPa 0,0 l/m 16,9 km/h (3 Bft) W-SW 257 1 min 0,000 mm 0,0 UV-I 233 W/m 1,6 C 1,0 C 25,7 km/h (4 Bft) 91,67 %
24.02.2017 09:26 7,4 C 67 % 1007,5 hPa 0,0 l/m 16,8 km/h (3 Bft) W 271 1 min 0,000 mm 0,0 UV-I 227 W/m 1,7 C 1,2 C 22,5 km/h (4 Bft) 96,15 %
24.02.2017 09:27 7,4 C 65 % 1007,5 hPa 0,0 l/m 14,0 km/h (3 Bft) W-SW 254 1 min 0,000 mm 0,4 UV-I 241 W/m 1,3 C 2,5 C 22,5 km/h (4 Bft) 93,33 %
24.02.2017 09:28 7,4 C 66 % 1007,5 hPa 0,0 l/m 13,1 km/h (3 Bft) W 274 1 min 0,000 mm 0,0 UV-I 230 W/m 1,5 C 2,9 C 24,1 km/h (4 Bft) 100,00 %
24.02.2017 09:29 7,4 C 63 % 1007,6 hPa 0,0 l/m 23,4 km/h (4 Bft) W 263 1 min 0,000 mm 0,0 UV-I 235 W/m 0,8 C -1,2 C 32,2 km/h (5 Bft) 96,30 %
24.02.2017 09:30 7,4 C 62 % 1007,5 hPa 0,0 l/m 27,4 km/h (4 Bft) W 260 1 min 0,000 mm 0,0 UV-I 235 W/m 0,6 C -2,4 C 33,8 km/h (5 Bft) 96,15 %
24.02.2017 09:31 7,5 C 62 % 1007,6 hPa 0,0 l/m 24,7 km/h (4 Bft) W-SW 245 1 min 0,000 mm 0,0 UV-I 234 W/m 0,7 C -1,5 C 40,2 km/h (6 Bft) 87,50 %
24.02.2017 09:32 7,5 C 62 % 1007,6 hPa 0,0 l/m 20,7 km/h (4 Bft) W-SW 244 0 min 0,000 mm 0,0 UV-I 184 W/m 0,7 C -0,2 C 33,8 km/h (5 Bft) 100,00 %
24.02.2017 09:33 7,5 C 63 % 1007,7 hPa 0,0 l/m 15,6 km/h (3 Bft) SW 226 0 min 0,000 mm 0,0 UV-I 170 W/m 0,9 C 1,8 C 24,1 km/h (4 Bft) 88,89 %
24.02.2017 09:34 7,5 C 65 % 1007,7 hPa 0,0 l/m 14,7 km/h (3 Bft) SW 230 0 min 0,000 mm 0,0 UV-I 157 W/m 1,4 C 2,2 C 22,5 km/h (4 Bft) 89,66 %
24.02.2017 09:35 7,4 C 67 % 1007,7 hPa 0,0 l/m 16,6 km/h (3 Bft) W-SW 244 0 min 0,000 mm 0,0 UV-I 150 W/m 1,7 C 1,3 C 24,1 km/h (4 Bft) 100,00 %
24.02.2017 09:36 7,4 C 69 % 1007,8 hPa 0,0 l/m 14,0 km/h (3 Bft) S-SW 209 0 min 0,000 mm 0,0 UV-I 147 W/m 2,1 C 2,5 C 24,1 km/h (4 Bft) 100,00 %
24.02.2017 09:37 7,3 C 69 % 1007,9 hPa 0,0 l/m 17,0 km/h (3 Bft) W 279 0 min 0,000 mm 0,0 UV-I 148 W/m 2,0 C 1,0 C 24,1 km/h (4 Bft) 93,75 %
24.02.2017 09:38 7,3 C 69 % 1007,9 hPa 0,0 l/m 15,6 km/h (3 Bft) W-SW 250 0 min 0,000 mm 0,0 UV-I 145 W/m 2,0 C 1,6 C 22,5 km/h (4 Bft) 96,81 %
24.02.2017 09:39 7,3 C 69 % 1007,9 hPa 0,0 l/m 18,3 km/h (3 Bft) W-SW 248 0 min 0,000 mm 0,0 UV-I 139 W/m 2,0 C 0,4 C 24,1 km/h (4 Bft) 97,73 %
24.02.2017 09:40 7,2 C 69 % 1007,9 hPa 0,0 l/m 17,8 km/h (3 Bft) W 259 0 min 0,000 mm 0,0 UV-I 137 W/m 1,9 C 0,5 C 24,1 km/h (4 Bft) 95,83 %
24.02.2017 09:41 7,2 C 69 % 1007,9 hPa 0,0 l/m 23,2 km/h (4 Bft) SW 231 0 min 0,000 mm 0,0 UV-I 134 W/m 1,9 C -1,4 C 41,8 km/h (6 Bft) 96,15 %
24.02.2017 09:42 7,2 C 67 % 1007,9 hPa 0,0 l/m 17,2 km/h (3 Bft) SW 232 0 min 0,000 mm 0,0 UV-I 128 W/m 1,5 C 0,8 C 24,1 km/h (4 Bft) 93,33 %
24.02.2017 09:43 7,2 C 67 % 1008,0 hPa 0,0 l/m 19,4 km/h (3 Bft) W-SW 251 0 min 0,000 mm 0,0 UV-I 116 W/m 1,5 C -0,1 C 25,7 km/h (4 Bft) 96,15 %
24.02.2017 09:44 7,2 C 65 % 1008,0 hPa 0,0 l/m 13,3 km/h (3 Bft) SW 236 0 min 0,000 mm 0,0 UV-I 111 W/m 1,1 C 2,6 C 20,9 km/h (4 Bft) 95,83 %
24.02.2017 09:45 7,2 C 64 % 1007,8 hPa 0,0 l/m 11,6 km/h (2 Bft) W-SW 252 0 min 0,000 mm 0,0 UV-I 110 W/m 0,9 C 3,5 C 19,3 km/h (3 Bft) 86,96 %
24.02.2017 09:46 7,2 C 64 % 1008,0 hPa 0,0 l/m 15,6 km/h (3 Bft) W-SW 257 0 min 0,000 mm 0,0 UV-I 112 W/m 0,9 C 1,5 C 24,1 km/h (4 Bft) 100,00 %
24.02.2017 09:47 7,2 C 62 % 1008,0 hPa 0,0 l/m 16,0 km/h (3 Bft) SW 220 0 min 0,000 mm 0,0 UV-I 113 W/m 0,4 C 1,3 C 24,1 km/h (4 Bft) 95,65 %
24.02.2017 09:48 7,2 C 62 % 1008,0 hPa 0,0 l/m 16,3 km/h (3 Bft) W-SW 257 0 min 0,000 mm 0,0 UV-I 117 W/m 0,4 C 1,2 C 22,5 km/h (4 Bft) 100,00 %
24.02.2017 09:49 7,2 C 61 % 1007,9 hPa 0,0 l/m 25,0 km/h (4 Bft) W-SW 252 0 min 0,000 mm 0,0 UV-I 119 W/m 0,2 C -2,0 C 35,4 km/h (5 Bft) 93,10 %
24.02.2017 09:50 7,3 C 61 % 1008,0 hPa 0,0 l/m 24,0 km/h (4 Bft) W-NW 300 0 min 0,000 mm 0,0 UV-I 129 W/m 0,3 C -1,5 C 33,8 km/h (5 Bft) 92,59 %
24.02.2017 09:51 7,3 C 61 % 1008,1 hPa 0,0 l/m 24,8 km/h (4 Bft) SW 221 0 min 0,000 mm 0,0 UV-I 133 W/m 0,3 C -1,8 C 37,0 km/h (5 Bft) 92,86 %
24.02.2017 09:52 7,3 C 60 % 1008,1 hPa 0,0 l/m 19,9 km/h (4 Bft) SW 236 0 min 0,000 mm 0,0 UV-I 137 W/m 0,1 C -0,2 C 25,7 km/h (4 Bft) 92,59 %
24.02.2017 09:53 7,3 C 64 % 1008,0 hPa 0,0 l/m 13,0 km/h (3 Bft) S-SW 211 0 min 0,000 mm 0,0 UV-I 141 W/m 1,0 C 2,9 C 17,7 km/h (3 Bft) 100,00 %
24.02.2017 09:54 7,3 C 65 % 1008,1 hPa 0,0 l/m 17,4 km/h (3 Bft) W-NW 298 0 min 0,000 mm 0,0 UV-I 147 W/m 1,2 C 0,8 C 22,5 km/h (4 Bft) 80,00 %
24.02.2017 09:55 7,3 C 63 % 1008,1 hPa 0,0 l/m 13,4 km/h (3 Bft) W 280 0 min 0,000 mm 0,0 UV-I 149 W/m 0,7 C 2,7 C 17,7 km/h (3 Bft) 91,67 %
24.02.2017 09:56 7,3 C 62 % 1008,1 hPa 0,0 l/m 21,1 km/h (4 Bft) W-SW 249 0 min 0,000 mm 0,0 UV-I 149 W/m 0,5 C -0,6 C 35,4 km/h (5 Bft) 92,68 %
24.02.2017 09:57 7,3 C 60 % 1008,1 hPa 0,0 l/m 19,5 km/h (3 Bft) W 274 0 min 0,000 mm 0,0 UV-I 148 W/m 0,1 C -0,0 C 30,6 km/h (5 Bft) 100,00 %
24.02.2017 09:58 7,3 C 60 % 1008,1 hPa 0,0 l/m 17,7 km/h (3 Bft) W-SW 240 0 min 0,000 mm 0,0 UV-I 149 W/m 0,1 C 0,7 C 30,6 km/h (5 Bft) 100,00 %
24.02.2017 09:59 7,3 C 60 % 1008,1 hPa 0,0 l/m 16,4 km/h (3 Bft) SW 234 0 min 0,000 mm 0,0 UV-I 150 W/m 0,1 C 1,2 C 24,1 km/h (4 Bft) 91,67 %
24.02.2017 10:00 7,3 C 61 % 1008,1 hPa 0,0 l/m 11,9 km/h (2 Bft) W-SW 252 0 min 0,127 mm 0,0 UV-I 149 W/m 0,3 C 3,5 C 17,7 km/h (3 Bft) 100,00 %
24.02.2017 10:01 7,3 C 66 % 1008,1 hPa 0,0 l/m 18,1 km/h (3 Bft) W-SW 258 0 min 0,000 mm 0,0 UV-I 144 W/m 1,4 C 0,5 C 24,1 km/h (4 Bft) 100,00 %
24.02.2017 10:02 7,2 C 69 % 1008,3 hPa 0,0 l/m 17,6 km/h (3 Bft) W 259 0 min 0,000 mm 0,0 UV-I 136 W/m 1,9 C 0,6 C 24,1 km/h (4 Bft) 92,31 %
24.02.2017 10:03 7,2 C 70 % 1008,3 hPa 0,0 l/m 15,3 km/h (3 Bft) W-SW 257 0 min 0,000 mm 0,0 UV-I 130 W/m 2,1 C 1,6 C 19,3 km/h (3 Bft) 92,59 %
24.02.2017 10:04 7,1 C 71 % 1008,3 hPa 0,0 l/m 14,6 km/h (3 Bft) W 274 0 min 0,000 mm 0,0 UV-I 126 W/m 2,2 C 1,8 C 20,9 km/h (4 Bft) 85,71 %
24.02.2017 10:05 7,1 C 72 % 1008,3 hPa 0,0 l/m 8,9 km/h (2 Bft) W 263 0 min 0,000 mm 0,0 UV-I 124 W/m 2,4 C 5,1 C 14,5 km/h (3 Bft) 92,59 %
24.02.2017 10:06 7,0 C 72 % 1008,4 hPa 0,0 l/m 15,7 km/h (3 Bft) W 259 0 min 0,000 mm 0,0 UV-I 120 W/m 2,3 C 1,2 C 19,3 km/h (3 Bft) 100,00 %
24.02.2017 10:07 6,9 C 73 % 1008,4 hPa 0,0 l/m 12,2 km/h (2 Bft) SW 215 0 min 0,000 mm 0,0 UV-I 111 W/m 2,4 C 2,8 C 17,7 km/h (3 Bft) 90,91 %
24.02.2017 10:08 6,9 C 74 % 1008,4 hPa 0,0 l/m 11,9 km/h (2 Bft) W-SW 254 0 min 0,000 mm 0,0 UV-I 102 W/m 2,6 C 3,0 C 20,9 km/h (4 Bft) 94,12 %
24.02.2017 10:09 6,9 C 74 % 1008,4 hPa 0,0 l/m 11,6 km/h (2 Bft) SW 236 0 min 0,000 mm 0,0 UV-I 102 W/m 2,6 C 3,2 C 17,7 km/h (3 Bft) 92,59 %
24.02.2017 10:10 6,9 C 76 % 1008,4 hPa 0,0 l/m 12,7 km/h (3 Bft) W 261 0 min 0,000 mm 0,0 UV-I 108 W/m 3,0 C 2,6 C 16,1 km/h (3 Bft) 100,00 %
24.02.2017 10:11 6,8 C 76 % 1008,5 hPa 0,0 l/m 12,0 km/h (2 Bft) W-SW 247 0 min 0,000 mm 0,0 UV-I 113 W/m 2,9 C 2,8 C 17,7 km/h (3 Bft) 87,50 %
24.02.2017 10:12 6,8 C 76 % 1008,5 hPa 0,0 l/m 17,0 km/h (3 Bft) W-SW 248 0 min 0,000 mm 0,0 UV-I 119 W/m 2,9 C 0,3 C 22,5 km/h (4 Bft) 95,65 %
24.02.2017 10:13 6,8 C 76 % 1008,5 hPa 0,0 l/m 17,1 km/h (3 Bft) W-SW 256 0 min 0,000 mm 0,0 UV-I 129 W/m 2,9 C 0,3 C 22,5 km/h (4 Bft) 100,00 %
24.02.2017 10:14 6,8 C 76 % 1008,5 hPa 0,0 l/m 19,7 km/h (3 Bft) SW 234 0 min 0,000 mm 0,0 UV-I 141 W/m 2,9 C -0,7 C 24,1 km/h (4 Bft) 92,31 %
24.02.2017 10:15 6,8 C 76 % 1008,4 hPa 0,0 l/m 15,3 km/h (3 Bft) W-SW 240 0 min 0,000 mm 0,0 UV-I 143 W/m 2,9 C 1,1 C 20,9 km/h (4 Bft) 100,00 %
24.02.2017 10:16 6,8 C 76 % 1008,4 hPa 0,0 l/m 15,4 km/h (3 Bft) W-SW 238 0 min 0,000 mm 0,0 UV-I 137 W/m 2,9 C 1,1 C 19,3 km/h (3 Bft) 88,46 %
24.02.2017 10:17 6,7 C 77 % 1008,5 hPa 0,0 l/m 14,6 km/h (3 Bft) W 273 0 min 0,000 mm 0,0 UV-I 138 W/m 3,0 C 1,3 C 20,9 km/h (4 Bft) 100,00 %
24.02.2017 10:18 6,8 C 77 % 1008,5 hPa 0,0 l/m 13,2 km/h (3 Bft) W-SW 248 0 min 0,000 mm 0,0 UV-I 145 W/m 3,1 C 2,2 C 19,3 km/h (3 Bft) 96,15 %
24.02.2017 10:19 6,8 C 77 % 1008,5 hPa 0,0 l/m 20,2 km/h (4 Bft) W-NW 300 0 min 0,000 mm 0,0 UV-I 154 W/m 3,1 C -0,9 C 27,4 km/h (4 Bft) 93,33 %
24.02.2017 10:20 6,8 C 76 % 1008,5 hPa 0,0 l/m 13,7 km/h (3 Bft) W 261 0 min 0,000 mm 0,0 UV-I 156 W/m 2,9 C 1,9 C 20,9 km/h (4 Bft) 92,59 %
24.02.2017 10:21 6,8 C 76 % 1008,4 hPa 0,0 l/m 9,3 km/h (2 Bft) W 259 0 min 0,000 mm 0,5 UV-I 160 W/m 2,9 C 4,5 C 14,5 km/h (3 Bft) 96,15 %
24.02.2017 10:22 6,8 C 75 % 1008,4 hPa 0,0 l/m 12,6 km/h (3 Bft) SW 230 0 min 0,000 mm 0,5 UV-I 164 W/m 2,7 C 2,5 C 17,7 km/h (3 Bft) 100,00 %
24.02.2017 10:23 6,8 C 74 % 1008,5 hPa 0,0 l/m 13,3 km/h (3 Bft) SW 229 0 min 0,000 mm 0,5 UV-I 164 W/m 2,5 C 2,1 C 17,7 km/h (3 Bft) 95,65 %
24.02.2017 10:24 6,8 C 74 % 1008,4 hPa 0,0 l/m 12,0 km/h (2 Bft) W-SW 240 0 min 0,000 mm 0,5 UV-I 162 W/m 2,5 C 2,8 C 17,7 km/h (3 Bft) 100,00 %
24.02.2017 10:25 6,9 C 75 % 1008,4 hPa 0,0 l/m 14,7 km/h (3 Bft) W-SW 248 0 min 0,000 mm 0,5 UV-I 162 W/m 2,8 C 1,5 C 22,5 km/h (4 Bft) 95,65 %
24.02.2017 10:26 6,9 C 75 % 1008,4 hPa 0,0 l/m 16,0 km/h (3 Bft) W-SW 237 0 min 0,000 mm 0,5 UV-I 162 W/m 2,8 C 0,9 C 22,5 km/h (4 Bft) 87,50 %
24.02.2017 10:27 6,9 C 76 % 1008,4 hPa 0,0 l/m 16,9 km/h (3 Bft) W 270 0 min 0,000 mm 0,5 UV-I 163 W/m 3,0 C 0,5 C 22,5 km/h (4 Bft) 92,86 %
24.02.2017 10:28 6,8 C 76 % 1008,4 hPa 0,0 l/m 10,7 km/h (2 Bft) W-SW 240 0 min 0,000 mm 0,5 UV-I 162 W/m 2,9 C 3,6 C 14,5 km/h (3 Bft) 100,00 %
24.02.2017 10:29 6,9 C 76 % 1008,4 hPa 0,0 l/m 9,0 km/h (2 Bft) SW 223 0 min 0,000 mm 0,5 UV-I 162 W/m 3,0 C 4,9 C 14,5 km/h (3 Bft) 96,15 %
24.02.2017 10:30 6,9 C 76 % 1008,4 hPa 0,0 l/m 12,2 km/h (2 Bft) S-SW 213 0 min 0,000 mm 0,5 UV-I 165 W/m 3,0 C 2,8 C 17,7 km/h (3 Bft) 93,33 %
24.02.2017 10:31 6,9 C 77 % 1008,4 hPa 0,0 l/m 10,4 km/h (2 Bft) W-SW 237 0 min 0,000 mm 0,5 UV-I 167 W/m 3,2 C 3,9 C 12,9 km/h (3 Bft) 96,55 %
24.02.2017 10:32 6,9 C 77 % 1008,5 hPa 0,0 l/m 16,3 km/h (3 Bft) W-SW 258 0 min 0,000 mm 0,5 UV-I 169 W/m 3,2 C 0,8 C 22,5 km/h (4 Bft) 100,00 %
24.02.2017 10:33 6,9 C 77 % 1008,5 hPa 0,0 l/m 15,2 km/h (3 Bft) W 268 0 min 0,000 mm 0,5 UV-I 165 W/m 3,2 C 1,3 C 20,9 km/h (4 Bft) 95,65 %
24.02.2017 10:34 6,9 C 77 % 1008,5 hPa 0,0 l/m 14,1 km/h (3 Bft) SW 219 0 min 0,000 mm 0,5 UV-I 157 W/m 3,2 C 1,8 C 17,7 km/h (3 Bft) 91,67 %
24.02.2017 10:35 6,9 C 76 % 1008,5 hPa 0,0 l/m 20,3 km/h (4 Bft) W-SW 255 0 min 0,000 mm 0,5 UV-I 156 W/m 3,0 C -0,8 C 35,4 km/h (5 Bft) 100,00 %
24.02.2017 10:36 6,9 C 75 % 1008,5 hPa 0,0 l/m 18,0 km/h (3 Bft) W-SW 258 0 min 0,000 mm 0,5 UV-I 163 W/m 2,8 C 0,1 C 22,5 km/h (4 Bft) 91,67 %
24.02.2017 10:37 6,9 C 74 % 1008,5 hPa 0,0 l/m 15,6 km/h (3 Bft) W-SW 237 0 min 0,000 mm 0,5 UV-I 165 W/m 2,6 C 1,1 C 22,5 km/h (4 Bft) 100,00 %
24.02.2017 10:38 6,9 C 74 % 1008,5 hPa 0,0 l/m 14,7 km/h (3 Bft) SW 230 0 min 0,000 mm 0,5 UV-I 165 W/m 2,6 C 1,5 C 24,1 km/h (4 Bft) 100,00 %
24.02.2017 10:39 6,9 C 72 % 1008,4 hPa 0,0 l/m 17,0 km/h (3 Bft) W 269 0 min 0,000 mm 0,5 UV-I 169 W/m 2,2 C 0,5 C 22,5 km/h (4 Bft) 95,83 %
24.02.2017 10:40 7,0 C 72 % 1008,5 hPa 0,0 l/m 15,8 km/h (3 Bft) W-SW 252 0 min 0,000 mm 0,6 UV-I 177 W/m 2,3 C 1,1 C 20,9 km/h (4 Bft) 91,30 %
24.02.2017 10:41 7,1 C 71 % 1008,5 hPa 0,0 l/m 14,5 km/h (3 Bft) W 273 0 min 0,000 mm 0,6 UV-I 184 W/m 2,2 C 1,9 C 19,3 km/h (3 Bft) 95,83 %
24.02.2017 10:42 7,1 C 69 % 1008,5 hPa 0,0 l/m 17,8 km/h (3 Bft) W 276 0 min 0,000 mm 0,6 UV-I 190 W/m 1,8 C 0,4 C 29,0 km/h (5 Bft) 95,65 %
24.02.2017 10:43 7,2 C 67 % 1008,5 hPa 0,0 l/m 13,0 km/h (3 Bft) W-SW 255 0 min 0,000 mm 0,6 UV-I 194 W/m 1,5 C 2,7 C 20,9 km/h (4 Bft) 96,30 %
24.02.2017 10:44 7,2 C 66 % 1008,6 hPa 0,0 l/m 19,8 km/h (3 Bft) W-SW 246 0 min 0,000 mm 0,6 UV-I 194 W/m 1,3 C -0,3 C 24,1 km/h (4 Bft) 95,65 %
24.02.2017 10:45 7,2 C 70 % 1008,6 hPa 0,0 l/m 16,8 km/h (3 Bft) W-SW 237 0 min 0,000 mm 0,6 UV-I 193 W/m 2,1 C 0,9 C 22,5 km/h (4 Bft) 91,67 %
24.02.2017 10:46 7,2 C 72 % 1008,6 hPa 0,0 l/m 12,7 km/h (3 Bft) W-SW 255 0 min 0,000 mm 0,7 UV-I 194 W/m 2,5 C 2,9 C 17,7 km/h (3 Bft) 95,65 %
24.02.2017 10:47 7,2 C 73 % 1008,6 hPa 0,0 l/m 17,4 km/h (3 Bft) S-SW 204 0 min 0,000 mm 0,7 UV-I 198 W/m 2,7 C 0,7 C 27,4 km/h (4 Bft) 100,00 %
24.02.2017 10:48 7,2 C 72 % 1008,6 hPa 0,0 l/m 14,4 km/h (3 Bft) SW 230 0 min 0,000 mm 0,7 UV-I 199 W/m 2,5 C 2,0 C 24,1 km/h (4 Bft) 92,31 %
24.02.2017 10:49 7,2 C 73 % 1008,5 hPa 0,0 l/m 19,2 km/h (3 Bft) S-SW 198 0 min 0,000 mm 0,7 UV-I 201 W/m 2,7 C -0,0 C 29,0 km/h (5 Bft) 100,00 %
24.02.2017 10:50 7,1 C 73 % 1008,5 hPa 0,0 l/m 23,1 km/h (4 Bft) SW 235 0 min 0,000 mm 0,7 UV-I 213 W/m 2,6 C -1,5 C 32,2 km/h (5 Bft) 100,00 %
24.02.2017 10:51 7,1 C 70 % 1008,5 hPa 0,0 l/m 22,9 km/h (4 Bft) SW 232 0 min 0,000 mm 0,7 UV-I 227 W/m 2,0 C -1,5 C 30,6 km/h (5 Bft) 95,83 %
24.02.2017 10:52 7,1 C 69 % 1008,6 hPa 0,0 l/m 20,5 km/h (4 Bft) W-SW 252 0 min 0,000 mm 0,7 UV-I 238 W/m 1,8 C -0,6 C 30,6 km/h (5 Bft) 100,00 %
24.02.2017 10:53 7,2 C 67 % 1008,6 hPa 0,0 l/m 19,4 km/h (3 Bft) SW 225 0 min 0,000 mm 0,7 UV-I 243 W/m 1,5 C -0,1 C 27,4 km/h (4 Bft) 100,00 %
24.02.2017 10:54 7,2 C 65 % 1008,6 hPa 0,0 l/m 21,4 km/h (4 Bft) W-SW 254 0 min 0,000 mm 0,7 UV-I 234 W/m 1,1 C -0,8 C 32,2 km/h (5 Bft) 100,00 %
24.02.2017 10:55 7,3 C 64 % 1008,6 hPa 0,0 l/m 29,3 km/h (5 Bft) W-SW 254 0 min 0,000 mm 0,6 UV-I 220 W/m 1,0 C -3,0 C 38,6 km/h (5 Bft) 100,00 %
24.02.2017 10:56 7,3 C 63 % 1008,6 hPa 0,0 l/m 24,2 km/h (4 Bft) SW 224 0 min 0,000 mm 0,6 UV-I 209 W/m 0,7 C -1,6 C 35,4 km/h (5 Bft) 96,15 %
24.02.2017 10:57 7,3 C 65 % 1008,6 hPa 0,0 l/m 16,3 km/h (3 Bft) W-SW 251 0 min 0,000 mm 0,6 UV-I 195 W/m 1,2 C 1,3 C 24,1 km/h (4 Bft) 100,00 %
24.02.2017 10:58 7,3 C 71 % 1008,7 hPa 0,0 l/m 15,7 km/h (3 Bft) SW 227 0 min 0,000 mm 0,5 UV-I 182 W/m 2,4 C 1,5 C 22,5 km/h (4 Bft) 100,00 %
24.02.2017 10:59 7,2 C 72 % 1008,7 hPa 0,0 l/m 18,6 km/h (3 Bft) W-SW 238 0 min 0,000 mm 0,5 UV-I 157 W/m 2,5 C 0,2 C 27,4 km/h (4 Bft) 96,15 %
24.02.2017 11:00 7,1 C 72 % 1008,6 hPa 0,0 l/m 17,0 km/h (3 Bft) W-SW 248 0 min 0,102 mm 0,5 UV-I 142 W/m 2,4 C 0,7 C 22,5 km/h (4 Bft) 100,00 %
24.02.2017 11:01 7,0 C 73 % 1008,7 hPa 0,0 l/m 17,1 km/h (3 Bft) SW 227 0 min 0,000 mm 0,5 UV-I 141 W/m 2,5 C 0,6 C 27,4 km/h (4 Bft) 100,00 %
24.02.2017 11:02 6,9 C 73 % 1008,7 hPa 0,0 l/m 25,1 km/h (4 Bft) W-SW 240 0 min 0,000 mm 0,4 UV-I 139 W/m 2,4 C -2,4 C 30,6 km/h (5 Bft) 96,30 %
24.02.2017 11:03 6,9 C 74 % 1008,7 hPa 0,0 l/m 19,4 km/h (3 Bft) W-SW 237 0 min 0,000 mm 0,0 UV-I 123 W/m 2,6 C -0,5 C 25,7 km/h (4 Bft) 96,15 %
24.02.2017 11:04 6,9 C 74 % 1008,8 hPa 0,0 l/m 13,3 km/h (3 Bft) W-SW 240 0 min 0,000 mm 0,0 UV-I 106 W/m 2,6 C 2,2 C 20,9 km/h (4 Bft) 87,50 %
24.02.2017 11:05 6,8 C 74 % 1008,8 hPa 0,0 l/m 19,2 km/h (3 Bft) W-SW 254 0 min 0,000 mm 0,0 UV-I 104 W/m 2,5 C -0,5 C 25,7 km/h (4 Bft) 92,86 %
24.02.2017 11:06 6,8 C 74 % 1008,8 hPa 0,0 l/m 17,8 km/h (3 Bft) SW 224 0 min 0,000 mm 0,0 UV-I 100 W/m 2,5 C 0,0 C 22,5 km/h (4 Bft) 96,30 %
24.02.2017 11:07 6,8 C 74 % 1008,8 hPa 0,0 l/m 8,8 km/h (2 Bft) SW 227 0 min 0,000 mm 0,0 UV-I 92 W/m 2,5 C 4,9 C 16,1 km/h (3 Bft) 100,00 %
24.02.2017 11:08 6,8 C 74 % 1008,8 hPa 0,0 l/m 13,4 km/h (3 Bft) S-SW 213 0 min 0,000 mm 0,0 UV-I 85 W/m 2,5 C 2,1 C 17,7 km/h (3 Bft) 96,30 %
24.02.2017 11:09 6,8 C 74 % 1008,8 hPa 0,0 l/m 20,0 km/h (4 Bft) S-SW 198 0 min 0,000 mm 0,0 UV-I 89 W/m 2,5 C -0,8 C 29,0 km/h (5 Bft) 100,00 %
24.02.2017 11:10 6,8 C 74 % 1008,9 hPa 0,0 l/m 16,5 km/h (3 Bft) SW 236 0 min 0,000 mm 0,3 UV-I 114 W/m 2,5 C 0,6 C 20,9 km/h (4 Bft) 100,00 %
24.02.2017 11:11 6,8 C 73 % 1008,8 hPa 0,0 l/m 15,4 km/h (3 Bft) SW 227 0 min 0,000 mm 0,6 UV-I 150 W/m 2,3 C 1,1 C 25,7 km/h (4 Bft) 94,74 %
24.02.2017 11:12 6,8 C 74 % 1008,8 hPa 0,0 l/m 20,4 km/h (4 Bft) W-SW 238 0 min 0,000 mm 0,7 UV-I 182 W/m 2,5 C -1,0 C 24,1 km/h (4 Bft) 96,30 %
24.02.2017 11:13 6,7 C 74 % 1008,8 hPa 0,0 l/m 16,3 km/h (3 Bft) SW 216 0 min 0,000 mm 0,7 UV-I 188 W/m 2,4 C 0,5 C 25,7 km/h (4 Bft) 92,31 %
24.02.2017 11:14 6,7 C 74 % 1008,8 hPa 0,0 l/m 19,5 km/h (3 Bft) W-SW 242 0 min 0,000 mm 0,6 UV-I 183 W/m 2,4 C -0,8 C 29,0 km/h (5 Bft) 100,00 %
24.02.2017 11:15 6,7 C 74 % 1008,8 hPa 0,0 l/m 16,7 km/h (3 Bft) S 187 0 min 0,000 mm 0,6 UV-I 190 W/m 2,4 C 0,4 C 22,5 km/h (4 Bft) 93,33 %
24.02.2017 11:16 6,7 C 74 % 1008,9 hPa 0,0 l/m 16,6 km/h (3 Bft) W-SW 239 0 min 0,000 mm 0,8 UV-I 220 W/m 2,4 C 0,4 C 24,1 km/h (4 Bft) 96,55 %
24.02.2017 11:17 6,8 C 74 % 1008,9 hPa 0,0 l/m 12,6 km/h (3 Bft) S-SW 206 1 min 0,000 mm 0,9 UV-I 312 W/m 2,5 C 2,5 C 16,1 km/h (3 Bft) 92,31 %
24.02.2017 11:18 6,8 C 74 % 1008,8 hPa 0,0 l/m 16,5 km/h (3 Bft) W-SW 247 1 min 0,000 mm 1,0 UV-I 348 W/m 2,5 C 0,6 C 24,1 km/h (4 Bft) 93,33 %
24.02.2017 11:19 6,8 C 74 % 1008,8 hPa 0,0 l/m 17,7 km/h (3 Bft) SW 236 1 min 0,000 mm 1,0 UV-I 341 W/m 2,5 C 0,1 C 27,4 km/h (4 Bft) 92,59 %
24.02.2017 11:20 6,8 C 74 % 1008,8 hPa 0,0 l/m 13,8 km/h (3 Bft) W-SW 246 1 min 0,000 mm 1,0 UV-I 310 W/m 2,5 C 1,9 C 19,3 km/h (3 Bft) 88,46 %
24.02.2017 11:21 6,9 C 73 % 1008,8 hPa 0,0 l/m 17,8 km/h (3 Bft) W-SW 238 1 min 0,000 mm 1,0 UV-I 296 W/m 2,4 C 0,1 C 24,1 km/h (4 Bft) 95,83 %
24.02.2017 11:22 6,9 C 73 % 1008,9 hPa 0,0 l/m 10,7 km/h (2 Bft) SW 217 0 min 0,000 mm 0,9 UV-I 284 W/m 2,4 C 3,7 C 14,5 km/h (3 Bft) 84,62 %
24.02.2017 11:23 7,0 C 73 % 1008,9 hPa 0,0 l/m 20,0 km/h (4 Bft) SW 230 0 min 0,000 mm 1,0 UV-I 275 W/m 2,5 C -0,6 C 30,6 km/h (5 Bft) 95,83 %
24.02.2017 11:24 7,0 C 73 % 1008,8 hPa 0,0 l/m 21,2 km/h (4 Bft) SW 225 1 min 0,000 mm 1,0 UV-I 300 W/m 2,5 C -1,0 C 27,4 km/h (4 Bft) 96,48 %
24.02.2017 11:25 7,0 C 73 % 1008,8 hPa 0,0 l/m 21,3 km/h (4 Bft) SW 224 1 min 0,000 mm 1,1 UV-I 383 W/m 2,5 C -1,1 C 27,4 km/h (4 Bft) 89,47 %
24.02.2017 11:26 7,1 C 73 % 1008,7 hPa 0,0 l/m 22,9 km/h (4 Bft) SW 228 1 min 0,000 mm 1,1 UV-I 398 W/m 2,6 C -1,5 C 30,6 km/h (5 Bft) 82,61 %
24.02.2017 11:27 7,1 C 74 % 1008,8 hPa 0,0 l/m 20,8 km/h (4 Bft) W-SW 247 1 min 0,000 mm 1,1 UV-I 357 W/m 2,8 C -0,7 C 29,0 km/h (5 Bft) 95,83 %
24.02.2017 11:28 7,1 C 73 % 1008,9 hPa 0,0 l/m 24,5 km/h (4 Bft) SW 229 1 min 0,000 mm 1,0 UV-I 345 W/m 2,6 C -1,9 C 30,6 km/h (5 Bft) 95,65 %
24.02.2017 11:29 7,2 C 73 % 1008,8 hPa 0,0 l/m 19,2 km/h (3 Bft) W-SW 243 1 min 0,000 mm 1,1 UV-I 364 W/m 2,7 C -0,0 C 27,4 km/h (4 Bft) 91,67 %
24.02.2017 11:30 7,2 C 73 % 1008,8 hPa 0,0 l/m 22,4 km/h (4 Bft) W-SW 243 1 min 0,000 mm 1,1 UV-I 330 W/m 2,7 C -1,2 C 30,6 km/h (5 Bft) 86,96 %
24.02.2017 11:31 7,2 C 72 % 1008,8 hPa 0,0 l/m 17,6 km/h (3 Bft) W-SW 240 1 min 0,000 mm 1,0 UV-I 300 W/m 2,5 C 0,6 C 27,4 km/h (4 Bft) 85,19 %
24.02.2017 11:32 7,2 C 72 % 1008,8 hPa 0,0 l/m 18,4 km/h (3 Bft) S 173 1 min 0,000 mm 1,0 UV-I 325 W/m 2,5 C 0,3 C 25,7 km/h (4 Bft) 95,65 %
24.02.2017 11:33 7,2 C 73 % 1008,9 hPa 0,0 l/m 17,3 km/h (3 Bft) S 173 0 min 0,000 mm 0,8 UV-I 271 W/m 2,7 C 0,7 C 24,1 km/h (4 Bft) 91,67 %
24.02.2017 11:34 7,3 C 72 % 1008,9 hPa 0,0 l/m 15,0 km/h (3 Bft) SW 226 0 min 0,000 mm 0,8 UV-I 245 W/m 2,6 C 1,9 C 22,5 km/h (4 Bft) 88,46 %
24.02.2017 11:35 7,3 C 73 % 1008,9 hPa 0,0 l/m 18,5 km/h (3 Bft) S 186 0 min 0,000 mm 0,9 UV-I 266 W/m 2,8 C 0,4 C 24,1 km/h (4 Bft) 91,67 %
24.02.2017 11:36 7,3 C 73 % 1008,8 hPa 0,0 l/m 15,4 km/h (3 Bft) S-SW 199 1 min 0,000 mm 0,9 UV-I 299 W/m 2,8 C 1,7 C 20,9 km/h (4 Bft) 96,30 %
24.02.2017 11:37 7,3 C 73 % 1008,8 hPa 0,0 l/m 19,0 km/h (3 Bft) SW 215 1 min 0,000 mm 0,8 UV-I 331 W/m 2,8 C 0,2 C 24,1 km/h (4 Bft) 95,65 %
24.02.2017 11:38 7,3 C 74 % 1008,8 hPa 0,0 l/m 14,8 km/h (3 Bft) SW 219 1 min 0,000 mm 0,8 UV-I 298 W/m 3,0 C 2,0 C 17,7 km/h (3 Bft) 91,67 %
24.02.2017 11:39 7,3 C 74 % 1008,7 hPa 0,0 l/m 20,5 km/h (4 Bft) S-SW 207 0 min 0,000 mm 0,6 UV-I 210 W/m 3,0 C -0,4 C 29,0 km/h (5 Bft) 100,00 %
24.02.2017 11:40 7,2 C 74 % 1008,8 hPa 0,0 l/m 20,5 km/h (4 Bft) SW 217 0 min 0,000 mm 0,5 UV-I 185 W/m 2,9 C -0,5 C 29,0 km/h (5 Bft) 92,59 %
24.02.2017 11:41 7,2 C 74 % 1008,8 hPa 0,0 l/m 13,2 km/h (3 Bft) SW 222 0 min 0,000 mm 0,5 UV-I 157 W/m 2,9 C 2,6 C 19,3 km/h (3 Bft) 88,46 %
24.02.2017 11:42 7,2 C 74 % 1008,8 hPa 0,0 l/m 23,1 km/h (4 Bft) S-SW 213 0 min 0,000 mm 0,5 UV-I 170 W/m 2,9 C -1,4 C 30,6 km/h (5 Bft) 95,83 %
24.02.2017 11:43 7,2 C 74 % 1008,8 hPa 0,0 l/m 23,9 km/h (4 Bft) W-SW 250 0 min 0,000 mm 0,6 UV-I 187 W/m 2,9 C -1,6 C 30,6 km/h (5 Bft) 100,00 %
24.02.2017 11:44 7,1 C 75 % 1008,8 hPa 0,0 l/m 16,1 km/h (3 Bft) SW 224 0 min 0,000 mm 0,6 UV-I 186 W/m 3,0 C 1,1 C 22,5 km/h (4 Bft) 100,00 %
24.02.2017 11:45 7,1 C 75 % 1008,9 hPa 0,0 l/m 23,7 km/h (4 Bft) W-SW 254 0 min 0,000 mm 0,5 UV-I 175 W/m 3,0 C -1,7 C 33,8 km/h (5 Bft) 100,00 %
24.02.2017 11:46 7,1 C 75 % 1008,8 hPa 0,0 l/m 20,8 km/h (4 Bft) W-SW 240 0 min 0,000 mm 0,5 UV-I 143 W/m 3,0 C -0,7 C 30,6 km/h (5 Bft) 100,00 %
24.02.2017 11:47 7,1 C 75 % 1008,8 hPa 0,0 l/m 21,5 km/h (4 Bft) W 266 0 min 0,000 mm 0,5 UV-I 132 W/m 3,0 C -1,0 C 30,6 km/h (5 Bft) 92,86 %
24.02.2017 11:48 7,1 C 75 % 1008,8 hPa 0,0 l/m 23,9 km/h (4 Bft) SW 231 0 min 0,000 mm 0,0 UV-I 118 W/m 3,0 C -1,8 C 33,8 km/h (5 Bft) 92,59 %
24.02.2017 11:49 7,0 C 75 % 1008,8 hPa 0,0 l/m 22,9 km/h (4 Bft) W-SW 238 0 min 0,000 mm 0,0 UV-I 105 W/m 2,9 C -1,6 C 29,0 km/h (5 Bft) 96,00 %
24.02.2017 11:50 7,0 C 75 % 1008,8 hPa 0,0 l/m 23,5 km/h (4 Bft) SW 234 0 min 0,000 mm 0,0 UV-I 103 W/m 2,9 C -1,8 C 35,4 km/h (5 Bft) 95,83 %
24.02.2017 11:51 6,9 C 75 % 1008,8 hPa 0,0 l/m 29,1 km/h (5 Bft) W-SW 238 0 min 0,000 mm 0,0 UV-I 108 W/m 2,8 C -3,5 C 33,8 km/h (5 Bft) 100,00 %
24.02.2017 11:52 6,9 C 75 % 1008,8 hPa 0,0 l/m 23,3 km/h (4 Bft) S 189 0 min 0,000 mm 0,0 UV-I 119 W/m 2,8 C -1,8 C 30,6 km/h (5 Bft) 100,00 %
24.02.2017 11:53 6,9 C 76 % 1008,8 hPa 0,0 l/m 19,9 km/h (4 Bft) W-SW 255 0 min 0,000 mm 0,0 UV-I 151 W/m 3,0 C -0,7 C 25,7 km/h (4 Bft) 91,67 %
24.02.2017 11:54 6,9 C 76 % 1008,8 hPa 0,0 l/m 17,0 km/h (3 Bft) SW 233 0 min 0,000 mm 0,6 UV-I 181 W/m 3,0 C 0,5 C 24,1 km/h (4 Bft) 96,15 %
24.02.2017 11:55 6,9 C 76 % 1008,8 hPa 0,0 l/m 23,0 km/h (4 Bft) SW 230 0 min 0,000 mm 0,6 UV-I 200 W/m 3,0 C -1,8 C 27,4 km/h (4 Bft) 100,00 %
24.02.2017 11:56 6,8 C 76 % 1008,8 hPa 0,0 l/m 20,3 km/h (4 Bft) SW 215 0 min 0,000 mm 0,6 UV-I 207 W/m 2,9 C -1,0 C 32,2 km/h (5 Bft) 92,68 %
24.02.2017 11:57 6,8 C 76 % 1008,8 hPa 0,0 l/m 22,6 km/h (4 Bft) W-SW 247 0 min 0,000 mm 0,7 UV-I 223 W/m 2,9 C -1,8 C 32,2 km/h (5 Bft) 96,15 %
24.02.2017 11:58 6,9 C 76 % 1008,8 hPa 0,0 l/m 14,4 km/h (3 Bft) W-SW 244 0 min 0,000 mm 0,7 UV-I 243 W/m 3,0 C 1,7 C 19,3 km/h (3 Bft) 100,00 %
24.02.2017 11:59 6,9 C 77 % 1008,8 hPa 0,0 l/m 18,1 km/h (3 Bft) SW 217 0 min 0,000 mm 0,8 UV-I 254 W/m 3,2 C 0,0 C 29,0 km/h (5 Bft) 95,83 %
24.02.2017 12:00 6,9 C 76 % 1008,8 hPa 0,0 l/m 22,3 km/h (4 Bft) SW 226 0 min 0,000 mm 0,8 UV-I 249 W/m 3,0 C -1,5 C 30,6 km/h (5 Bft) 100,00 %
24.02.2017 12:01 7,0 C 76 % 1008,8 hPa 0,0 l/m 15,5 km/h (3 Bft) S-SW 192 0 min 0,127 mm 0,8 UV-I 255 W/m 3,1 C 1,3 C 25,7 km/h (4 Bft) 93,33 %
24.02.2017 12:02 7,1 C 76 % 1008,8 hPa 0,0 l/m 23,8 km/h (4 Bft) S-SW 211 0 min 0,000 mm 0,8 UV-I 262 W/m 3,2 C -1,7 C 29,0 km/h (5 Bft) 96,67 %
24.02.2017 12:03 7,1 C 75 % 1008,8 hPa 0,0 l/m 17,5 km/h (3 Bft) W-SW 257 0 min 0,000 mm 0,7 UV-I 242 W/m 3,0 C 0,5 C 22,5 km/h (4 Bft) 96,55 %
24.02.2017 12:04 7,1 C 76 % 1008,9 hPa 0,0 l/m 19,5 km/h (3 Bft) W-SW 246 0 min 0,000 mm 0,7 UV-I 206 W/m 3,2 C -0,3 C 25,7 km/h (4 Bft) 96,55 %
24.02.2017 12:05 7,1 C 76 % 1008,8 hPa 0,0 l/m 21,2 km/h (4 Bft) W-SW 238 0 min 0,000 mm 0,7 UV-I 197 W/m 3,2 C -0,9 C 35,4 km/h (5 Bft) 100,00 %
24.02.2017 12:06 7,2 C 71 % 1008,7 hPa 0,0 l/m 17,9 km/h (3 Bft) W-SW 249 0 min 0,000 mm 0,7 UV-I 208 W/m 2,3 C 0,5 C 24,1 km/h (4 Bft) 100,00 %
24.02.2017 12:07 7,2 C 71 % 1008,8 hPa 0,0 l/m 25,4 km/h (4 Bft) SW 225 0 min 0,000 mm 0,8 UV-I 236 W/m 2,3 C -2,1 C 33,8 km/h (5 Bft) 100,00 %
24.02.2017 12:08 7,3 C 68 % 1008,8 hPa 0,0 l/m 24,2 km/h (4 Bft) W 277 0 min 0,000 mm 0,9 UV-I 252 W/m 1,8 C -1,6 C 35,4 km/h (5 Bft) 95,65 %
24.02.2017 12:09 7,3 C 67 % 1008,8 hPa 0,0 l/m 25,0 km/h (4 Bft) W 266 0 min 0,000 mm 0,9 UV-I 259 W/m 1,6 C -1,8 C 30,6 km/h (5 Bft) 95,83 %
24.02.2017 12:10 7,4 C 66 % 1008,8 hPa 0,0 l/m 23,7 km/h (4 Bft) W-SW 243 0 min 0,000 mm 0,9 UV-I 266 W/m 1,5 C -1,3 C 38,6 km/h (5 Bft) 82,61 %
24.02.2017 12:11 7,4 C 65 % 1008,8 hPa 0,0 l/m 22,1 km/h (4 Bft) W-SW 253 0 min 0,000 mm 0,9 UV-I 276 W/m 1,3 C -0,8 C 32,2 km/h (5 Bft) 95,83 %
24.02.2017 12:12 7,5 C 64 % 1008,8 hPa 0,0 l/m 18,0 km/h (3 Bft) W 269 0 min 0,000 mm 0,9 UV-I 283 W/m 1,1 C 0,8 C 25,7 km/h (4 Bft) 100,00 %
24.02.2017 12:13 7,6 C 64 % 1008,9 hPa 0,0 l/m 18,0 km/h (3 Bft) W 260 0 min 0,000 mm 0,9 UV-I 283 W/m 1,2 C 0,9 C 24,1 km/h (4 Bft) 100,00 %
24.02.2017 12:14 7,7 C 64 % 1008,8 hPa 0,0 l/m 16,0 km/h (3 Bft) W-SW 257 0 min 0,000 mm 0,9 UV-I 289 W/m 1,3 C 1,9 C 20,9 km/h (4 Bft) 100,00 %
24.02.2017 12:15 7,8 C 64 % 1008,9 hPa 0,0 l/m 15,8 km/h (3 Bft) W 269 0 min 0,000 mm 0,9 UV-I 287 W/m 1,4 C 2,1 C 24,1 km/h (4 Bft) 100,00 %
24.02.2017 12:16 7,8 C 64 % 1008,9 hPa 0,0 l/m 15,1 km/h (3 Bft) W 261 0 min 0,000 mm 0,9 UV-I 282 W/m 1,4 C 2,4 C 17,7 km/h (3 Bft) 95,83 %
24.02.2017 12:17 7,9 C 63 % 1008,9 hPa 0,0 l/m 18,2 km/h (3 Bft) W-SW 246 0 min 0,000 mm 0,9 UV-I 275 W/m 1,3 C 1,2 C 24,1 km/h (4 Bft) 100,00 %
24.02.2017 12:18 7,9 C 61 % 1008,9 hPa 0,0 l/m 15,5 km/h (3 Bft) W 275 0 min 0,000 mm 0,9 UV-I 273 W/m 0,9 C 2,4 C 27,4 km/h (4 Bft) 100,00 %
24.02.2017 12:19 7,9 C 61 % 1008,9 hPa 0,0 l/m 19,4 km/h (3 Bft) W 263 0 min 0,000 mm 0,9 UV-I 269 W/m 0,9 C 0,8 C 27,4 km/h (4 Bft) 100,00 %
24.02.2017 12:20 7,9 C 60 % 1008,8 hPa 0,0 l/m 20,9 km/h (4 Bft) W-SW 238 0 min 0,000 mm 0,9 UV-I 265 W/m 0,6 C 0,3 C 32,2 km/h (5 Bft) 95,83 %
24.02.2017 12:21 7,8 C 59 % 1009,0 hPa 0,0 l/m 28,0 km/h (4 Bft) W-SW 238 0 min 0,000 mm 0,9 UV-I 264 W/m 0,3 C -2,0 C 37,0 km/h (5 Bft) 100,00 %
24.02.2017 12:22 7,8 C 60 % 1008,9 hPa 0,0 l/m 23,1 km/h (4 Bft) W 266 0 min 0,000 mm 0,9 UV-I 265 W/m 0,5 C -0,6 C 32,2 km/h (5 Bft) 95,83 %
24.02.2017 12:23 7,7 C 60 % 1008,9 hPa 0,0 l/m 21,8 km/h (4 Bft) W-SW 256 0 min 0,000 mm 0,9 UV-I 268 W/m 0,4 C -0,3 C 27,4 km/h (4 Bft) 95,65 %
24.02.2017 12:24 7,7 C 61 % 1009,0 hPa 0,0 l/m 17,4 km/h (3 Bft) W 263 0 min 0,000 mm 0,9 UV-I 276 W/m 0,7 C 1,3 C 25,7 km/h (4 Bft) 100,00 %
24.02.2017 12:25 7,7 C 60 % 1008,9 hPa 0,0 l/m 19,6 km/h (3 Bft) W 268 0 min 0,000 mm 0,9 UV-I 285 W/m 0,4 C 0,5 C 27,4 km/h (4 Bft) 100,00 %
24.02.2017 12:26 7,7 C 61 % 1008,9 hPa 0,0 l/m 23,8 km/h (4 Bft) W 265 0 min 0,000 mm 1,0 UV-I 293 W/m 0,7 C -0,9 C 32,2 km/h (5 Bft) 100,00 %
24.02.2017 12:27 7,7 C 60 % 1009,0 hPa 0,0 l/m 25,1 km/h (4 Bft) W 259 1 min 0,000 mm 1,0 UV-I 301 W/m 0,4 C -1,3 C 30,6 km/h (5 Bft) 96,55 %
24.02.2017 12:28 7,6 C 60 % 1008,9 hPa 0,0 l/m 29,4 km/h (5 Bft) W-SW 250 0 min 0,000 mm 1,0 UV-I 296 W/m 0,3 C -2,6 C 38,6 km/h (5 Bft) 100,00 %
24.02.2017 12:29 7,6 C 61 % 1008,9 hPa 0,0 l/m 25,2 km/h (4 Bft) W-SW 248 0 min 0,000 mm 1,0 UV-I 296 W/m 0,6 C -1,5 C 38,6 km/h (5 Bft) 90,91 %
24.02.2017 12:30 7,6 C 61 % 1008,8 hPa 0,0 l/m 28,6 km/h (4 Bft) W 259 0 min 0,000 mm 1,0 UV-I 288 W/m 0,6 C -2,4 C 43,5 km/h (6 Bft) 100,00 %
24.02.2017 12:31 7,6 C 61 % 1008,9 hPa 0,0 l/m 19,9 km/h (4 Bft) W-SW 246 0 min 0,000 mm 1,0 UV-I 282 W/m 0,6 C 0,2 C 33,8 km/h (5 Bft) 96,15 %
24.02.2017 12:32 7,6 C 61 % 1008,8 hPa 0,0 l/m 28,5 km/h (4 Bft) NW 305 0 min 0,000 mm 0,9 UV-I 272 W/m 0,6 C -2,4 C 37,0 km/h (5 Bft) 100,00 %
24.02.2017 12:33 7,5 C 61 % 1008,8 hPa 0,0 l/m 17,1 km/h (3 Bft) W 261 0 min 0,000 mm 0,9 UV-I 266 W/m 0,5 C 1,2 C 24,1 km/h (4 Bft) 100,00 %
24.02.2017 12:34 7,6 C 62 % 1008,8 hPa 0,0 l/m 14,5 km/h (3 Bft) W 261 0 min 0,000 mm 0,9 UV-I 278 W/m 0,8 C 2,5 C 24,1 km/h (4 Bft) 100,00 %
24.02.2017 12:35 7,6 C 62 % 1008,8 hPa 0,0 l/m 25,7 km/h (4 Bft) W-NW 294 0 min 0,000 mm 0,9 UV-I 272 W/m 0,8 C -1,6 C 30,6 km/h (5 Bft) 100,00 %
24.02.2017 12:36 7,5 C 61 % 1008,8 hPa 0,0 l/m 22,9 km/h (4 Bft) W 263 0 min 0,000 mm 0,9 UV-I 277 W/m 0,5 C -0,9 C 32,2 km/h (5 Bft) 100,00 %
24.02.2017 12:37 7,5 C 61 % 1008,8 hPa 0,0 l/m 21,2 km/h (4 Bft) W-SW 250 1 min 0,000 mm 0,9 UV-I 307 W/m 0,5 C -0,4 C 32,2 km/h (5 Bft) 91,67 %
24.02.2017 12:38 7,6 C 61 % 1008,9 hPa 0,0 l/m 13,4 km/h (3 Bft) W 261 1 min 0,000 mm 1,0 UV-I 316 W/m 0,6 C 3,0 C 17,7 km/h (3 Bft) 100,00 %
24.02.2017 12:39 7,6 C 62 % 1009,0 hPa 0,0 l/m 25,9 km/h (4 Bft) W 275 1 min 0,000 mm 0,9 UV-I 302 W/m 0,8 C -1,7 C 40,2 km/h (6 Bft) 100,00 %
24.02.2017 12:40 7,6 C 61 % 1008,9 hPa 0,0 l/m 18,5 km/h (3 Bft) W 277 0 min 0,000 mm 0,9 UV-I 291 W/m 0,6 C 0,7 C 22,5 km/h (4 Bft) 89,66 %
24.02.2017 12:41 7,6 C 61 % 1008,9 hPa 0,0 l/m 18,4 km/h (3 Bft) W-NW 285 0 min 0,000 mm 0,8 UV-I 270 W/m 0,6 C 0,8 C 24,1 km/h (4 Bft) 100,00 %
24.02.2017 12:42 7,6 C 61 % 1008,9 hPa 0,0 l/m 16,3 km/h (3 Bft) W-SW 251 0 min 0,000 mm 0,8 UV-I 250 W/m 0,6 C 1,6 C 20,9 km/h (4 Bft) 96,15 %
24.02.2017 12:43 7,6 C 61 % 1009,0 hPa 0,0 l/m 18,9 km/h (3 Bft) W-SW 258 0 min 0,000 mm 0,8 UV-I 235 W/m 0,6 C 0,6 C 29,0 km/h (5 Bft) 96,30 %
24.02.2017 12:44 7,6 C 61 % 1009,0 hPa 0,0 l/m 17,0 km/h (3 Bft) W 259 0 min 0,000 mm 0,7 UV-I 250 W/m 0,6 C 1,3 C 25,7 km/h (4 Bft) 100,00 %
24.02.2017 12:45 7,6 C 61 % 1009,0 hPa 0,0 l/m 18,3 km/h (3 Bft) W 279 0 min 0,000 mm 0,7 UV-I 221 W/m 0,6 C 0,8 C 27,4 km/h (4 Bft) 100,00 %
24.02.2017 12:46 7,6 C 61 % 1009,1 hPa 0,0 l/m 13,4 km/h (3 Bft) W-SW 240 0 min 0,000 mm 0,6 UV-I 194 W/m 0,6 C 3,0 C 16,1 km/h (3 Bft) 96,43 %
24.02.2017 12:47 7,6 C 61 % 1009,1 hPa 0,0 l/m 16,0 km/h (3 Bft) W 267 0 min 0,000 mm 0,6 UV-I 180 W/m 0,6 C 1,8 C 20,9 km/h (4 Bft) 100,00 %
24.02.2017 12:48 7,6 C 62 % 1009,1 hPa 0,0 l/m 9,7 km/h (2 Bft) W-SW 254 0 min 0,000 mm 0,6 UV-I 172 W/m 0,8 C 5,1 C 17,7 km/h (3 Bft) 100,00 %
24.02.2017 12:49 7,6 C 61 % 1009,1 hPa 0,0 l/m 13,2 km/h (3 Bft) W 281 0 min 0,000 mm 0,6 UV-I 169 W/m 0,6 C 3,1 C 22,5 km/h (4 Bft) 100,00 %
24.02.2017 12:50 7,6 C 60 % 1009,2 hPa 0,0 l/m 14,6 km/h (3 Bft) W-SW 253 0 min 0,000 mm 0,6 UV-I 166 W/m 0,3 C 2,4 C 22,5 km/h (4 Bft) 100,00 %
24.02.2017 12:51 7,6 C 60 % 1009,1 hPa 0,0 l/m 17,4 km/h (3 Bft) W-SW 248 0 min 0,000 mm 0,5 UV-I 139 W/m 0,3 C 1,2 C 27,4 km/h (4 Bft) 100,00 %
24.02.2017 12:52 7,5 C 60 % 1009,2 hPa 0,0 l/m 18,1 km/h (3 Bft) W-NW 282 0 min 0,000 mm 0,0 UV-I 116 W/m 0,2 C 0,8 C 24,1 km/h (4 Bft) 100,00 %
24.02.2017 12:53 7,4 C 60 % 1009,2 hPa 0,0 l/m 12,3 km/h (3 Bft) W-SW 256 0 min 0,000 mm 0,0 UV-I 106 W/m 0,2 C 3,4 C 20,9 km/h (4 Bft) 100,00 %
24.02.2017 12:54 7,4 C 60 % 1009,2 hPa 0,0 l/m 22,5 km/h (4 Bft) W 281 0 min 0,000 mm 0,0 UV-I 105 W/m 0,2 C -0,9 C 38,6 km/h (5 Bft) 93,33 %
24.02.2017 12:55 7,4 C 60 % 1009,1 hPa 0,0 l/m 18,5 km/h (3 Bft) W-SW 246 0 min 0,000 mm 0,0 UV-I 102 W/m 0,2 C 0,5 C 25,7 km/h (4 Bft) 92,31 %
24.02.2017 12:56 7,3 C 60 % 1009,2 hPa 0,0 l/m 15,6 km/h (3 Bft) W-SW 250 0 min 0,000 mm 0,0 UV-I 106 W/m 0,1 C 1,6 C 24,1 km/h (4 Bft) 100,00 %
24.02.2017 12:57 7,3 C 60 % 1009,1 hPa 0,0 l/m 22,0 km/h (4 Bft) W 269 0 min 0,000 mm 0,0 UV-I 112 W/m 0,1 C -0,9 C 29,0 km/h (5 Bft) 100,00 %
24.02.2017 12:58 7,3 C 59 % 1009,1 hPa 0,0 l/m 21,0 km/h (4 Bft) W-SW 255 0 min 0,000 mm 0,0 UV-I 99 W/m -0,2 C -0,6 C 29,0 km/h (5 Bft) 95,83 %
24.02.2017 12:59 7,3 C 59 % 1009,1 hPa 0,0 l/m 24,1 km/h (4 Bft) SW 229 0 min 0,000 mm 0,0 UV-I 82 W/m -0,2 C -1,6 C 33,8 km/h (5 Bft) 100,00 %
24.02.2017 13:00 7,3 C 59 % 1009,1 hPa 0,0 l/m 14,1 km/h (3 Bft) W-NW 282 0 min 0,000 mm 0,0 UV-I 75 W/m -0,2 C 2,3 C 20,9 km/h (4 Bft) 100,00 %
24.02.2017 13:01 7,3 C 60 % 1009,1 hPa 0,0 l/m 22,5 km/h (4 Bft) W-SW 258 0 min 0,178 mm 0,0 UV-I 80 W/m 0,1 C -1,1 C 29,0 km/h (5 Bft) 91,30 %
24.02.2017 13:02 7,2 C 60 % 1009,1 hPa 0,0 l/m 24,3 km/h (4 Bft) W-SW 248 0 min 0,000 mm 0,0 UV-I 105 W/m -0,0 C -1,8 C 32,2 km/h (5 Bft) 95,83 %
24.02.2017 13:03 7,2 C 60 % 1009,1 hPa 0,0 l/m 23,1 km/h (4 Bft) W-SW 256 0 min 0,000 mm 0,4 UV-I 150 W/m -0,0 C -1,4 C 30,6 km/h (5 Bft) 100,00 %
24.02.2017 13:04 7,2 C 59 % 1009,2 hPa 0,0 l/m 19,0 km/h (3 Bft) W-NW 282 0 min 0,000 mm 0,5 UV-I 178 W/m -0,3 C 0,0 C 29,0 km/h (5 Bft) 95,83 %
24.02.2017 13:05 7,2 C 59 % 1009,1 hPa 0,0 l/m 19,2 km/h (3 Bft) W-SW 254 0 min 0,000 mm 0,6 UV-I 203 W/m -0,3 C -0,0 C 27,4 km/h (4 Bft) 100,00 %
24.02.2017 13:06 7,2 C 60 % 1009,2 hPa 0,0 l/m 17,0 km/h (3 Bft) W 259 0 min 0,000 mm 0,6 UV-I 236 W/m -0,0 C 0,8 C 20,9 km/h (4 Bft) 95,83 %
24.02.2017 13:07 7,2 C 60 % 1009,2 hPa 0,0 l/m 16,4 km/h (3 Bft) W-SW 241 0 min 0,000 mm 0,6 UV-I 241 W/m -0,0 C 1,1 C 25,7 km/h (4 Bft) 100,00 %
24.02.2017 13:08 7,2 C 60 % 1009,2 hPa 0,0 l/m 18,7 km/h (3 Bft) SW 229 0 min 0,000 mm 0,7 UV-I 239 W/m -0,0 C 0,2 C 27,4 km/h (4 Bft) 95,83 %
24.02.2017 13:09 7,3 C 61 % 1009,2 hPa 0,0 l/m 23,3 km/h (4 Bft) W 272 0 min 0,000 mm 0,7 UV-I 234 W/m 0,3 C -1,3 C 33,8 km/h (5 Bft) 100,00 %
24.02.2017 13:10 7,3 C 60 % 1009,1 hPa 0,0 l/m 28,3 km/h (4 Bft) W-SW 254 0 min 0,000 mm 0,7 UV-I 237 W/m 0,1 C -2,7 C 41,8 km/h (6 Bft) 96,30 %
24.02.2017 13:11 7,3 C 59 % 1009,2 hPa 0,0 l/m 24,0 km/h (4 Bft) W 259 0 min 0,000 mm 0,7 UV-I 248 W/m -0,2 C -1,5 C 33,8 km/h (5 Bft) 95,65 %
24.02.2017 13:12 7,3 C 60 % 1009,2 hPa 0,0 l/m 19,2 km/h (3 Bft) W-NW 286 0 min 0,000 mm 0,7 UV-I 253 W/m 0,1 C 0,1 C 29,0 km/h (5 Bft) 100,00 %
24.02.2017 13:13 7,3 C 59 % 1009,2 hPa 0,0 l/m 27,7 km/h (4 Bft) W 262 0 min 0,000 mm 0,8 UV-I 271 W/m -0,2 C -2,6 C 35,4 km/h (5 Bft) 86,96 %
24.02.2017 13:14 7,3 C 59 % 1009,2 hPa 0,0 l/m 26,5 km/h (4 Bft) W-SW 254 0 min 0,000 mm 0,8 UV-I 276 W/m -0,2 C -2,2 C 45,1 km/h (6 Bft) 95,83 %
24.02.2017 13:15 7,3 C 58 % 1009,2 hPa 0,0 l/m 31,8 km/h (5 Bft) W 261 0 min 0,000 mm 0,9 UV-I 274 W/m -0,4 C -3,6 C 43,5 km/h (6 Bft) 86,96 %
24.02.2017 13:16 7,3 C 58 % 1009,2 hPa 0,0 l/m 33,9 km/h (5 Bft) SW 231 0 min 0,000 mm 0,8 UV-I 259 W/m -0,4 C -4,0 C 45,1 km/h (6 Bft) 96,48 %
24.02.2017 13:17 7,3 C 58 % 1009,3 hPa 0,0 l/m 20,6 km/h (4 Bft) S-SW 208 0 min 0,000 mm 0,8 UV-I 262 W/m -0,4 C -0,4 C 27,4 km/h (4 Bft) 95,24 %
24.02.2017 13:18 7,3 C 59 % 1009,3 hPa 0,0 l/m 19,6 km/h (3 Bft) W 264 0 min 0,000 mm 0,9 UV-I 274 W/m -0,2 C -0,1 C 25,7 km/h (4 Bft) 100,00 %
24.02.2017 13:19 7,3 C 61 % 1009,3 hPa 0,0 l/m 16,5 km/h (3 Bft) W-SW 240 0 min 0,000 mm 0,9 UV-I 273 W/m 0,3 C 1,2 C 24,1 km/h (4 Bft) 95,83 %
24.02.2017 13:20 7,3 C 64 % 1009,3 hPa 0,0 l/m 14,4 km/h (3 Bft) SW 234 0 min 0,000 mm 0,9 UV-I 283 W/m 1,0 C 2,1 C 25,7 km/h (4 Bft) 86,96 %
24.02.2017 13:21 7,3 C 66 % 1009,3 hPa 0,0 l/m 15,7 km/h (3 Bft) W 263 0 min 0,000 mm 0,9 UV-I 265 W/m 1,4 C 1,5 C 24,1 km/h (4 Bft) 100,00 %
24.02.2017 13:22 7,2 C 68 % 1009,3 hPa 0,0 l/m 18,3 km/h (3 Bft) SW 231 0 min 0,000 mm 0,9 UV-I 256 W/m 1,7 C 0,3 C 22,5 km/h (4 Bft) 95,65 %
24.02.2017 13:23 7,1 C 70 % 1009,2 hPa 0,0 l/m 14,3 km/h (3 Bft) W-SW 247 0 min 0,000 mm 0,9 UV-I 251 W/m 2,0 C 2,0 C 19,3 km/h (3 Bft) 95,83 %
24.02.2017 13:24 7,1 C 70 % 1009,2 hPa 0,0 l/m 13,1 km/h (3 Bft) SW 228 0 min 0,000 mm 0,9 UV-I 245 W/m 2,0 C 2,6 C 20,9 km/h (4 Bft) 95,65 %
24.02.2017 13:25 7,1 C 71 % 1009,2 hPa 0,0 l/m 12,9 km/h (3 Bft) SW 225 0 min 0,000 mm 0,9 UV-I 243 W/m 2,2 C 2,7 C 16,1 km/h (3 Bft) 100,00 %
24.02.2017 13:26 7,1 C 72 % 1009,3 hPa 0,0 l/m 20,8 km/h (4 Bft) SW 229 0 min 0,000 mm 0,8 UV-I 241 W/m 2,4 C -0,7 C 25,7 km/h (4 Bft) 85,71 %
24.02.2017 13:27 7,0 C 72 % 1009,2 hPa 0,0 l/m 11,3 km/h (2 Bft) W-SW 244 0 min 0,000 mm 0,8 UV-I 235 W/m 2,3 C 3,5 C 14,5 km/h (3 Bft) 92,59 %
24.02.2017 13:28 6,9 C 73 % 1009,2 hPa 0,0 l/m 14,2 km/h (3 Bft) SW 229 0 min 0,000 mm 0,8 UV-I 242 W/m 2,4 C 1,8 C 17,7 km/h (3 Bft) 93,33 %
24.02.2017 13:29 6,9 C 73 % 1009,2 hPa 0,0 l/m 18,2 km/h (3 Bft) SW 236 0 min 0,000 mm 0,9 UV-I 251 W/m 2,4 C -0,0 C 30,6 km/h (5 Bft) 96,55 %
24.02.2017 13:30 6,9 C 73 % 1009,2 hPa 0,0 l/m 20,9 km/h (4 Bft) SW 225 0 min 0,000 mm 0,9 UV-I 255 W/m 2,4 C -1,0 C 32,2 km/h (5 Bft) 96,15 %
24.02.2017 13:31 6,8 C 72 % 1009,1 hPa 0,0 l/m 16,0 km/h (3 Bft) W 273 0 min 0,000 mm 0,9 UV-I 242 W/m 2,1 C 0,8 C 20,9 km/h (4 Bft) 96,30 %
24.02.2017 13:32 6,8 C 72 % 1009,1 hPa 0,0 l/m 14,1 km/h (3 Bft) SW 236 0 min 0,000 mm 0,9 UV-I 279 W/m 2,1 C 1,7 C 19,3 km/h (3 Bft) 100,00 %
24.02.2017 13:33 6,8 C 72 % 1009,1 hPa 0,0 l/m 18,2 km/h (3 Bft) W-SW 244 1 min 0,000 mm 1,0 UV-I 309 W/m 2,1 C -0,2 C 27,4 km/h (4 Bft) 91,67 %
24.02.2017 13:34 6,9 C 72 % 1009,1 hPa 0,0 l/m 14,4 km/h (3 Bft) SW 236 1 min 0,000 mm 0,9 UV-I 315 W/m 2,2 C 1,7 C 22,5 km/h (4 Bft) 91,67 %
24.02.2017 13:35 6,9 C 72 % 1009,1 hPa 0,0 l/m 18,0 km/h (3 Bft) SW 232 1 min 0,000 mm 1,0 UV-I 351 W/m 2,2 C 0,1 C 24,1 km/h (4 Bft) 100,00 %
24.02.2017 13:36 6,9 C 73 % 1009,1 hPa 0,0 l/m 18,6 km/h (3 Bft) S-SW 197 1 min 0,000 mm 1,0 UV-I 361 W/m 2,4 C -0,2 C 27,4 km/h (4 Bft) 100,00 %
24.02.2017 13:37 6,9 C 72 % 1009,0 hPa 0,0 l/m 20,2 km/h (4 Bft) S-SW 201 1 min 0,000 mm 0,9 UV-I 312 W/m 2,2 C -0,8 C 25,7 km/h (4 Bft) 95,65 %
24.02.2017 13:38 6,9 C 72 % 1009,0 hPa 0,0 l/m 15,5 km/h (3 Bft) W-SW 246 0 min 0,000 mm 0,9 UV-I 258 W/m 2,2 C 1,1 C 22,5 km/h (4 Bft) 100,00 %
24.02.2017 13:39 6,9 C 73 % 1009,0 hPa 0,0 l/m 19,5 km/h (3 Bft) W-SW 242 0 min 0,000 mm 0,9 UV-I 255 W/m 2,4 C -0,5 C 25,7 km/h (4 Bft) 95,65 %
24.02.2017 13:40 6,9 C 73 % 1009,0 hPa 0,0 l/m 20,3 km/h (4 Bft) SW 219 0 min 0,000 mm 0,9 UV-I 239 W/m 2,4 C -0,8 C 27,4 km/h (4 Bft) 100,00 %
24.02.2017 13:41 6,9 C 73 % 1009,0 hPa 0,0 l/m 17,8 km/h (3 Bft) SW 230 0 min 0,000 mm 0,9 UV-I 248 W/m 2,4 C 0,1 C 25,7 km/h (4 Bft) 96,55 %
24.02.2017 13:42 6,8 C 73 % 1009,0 hPa 0,0 l/m 18,8 km/h (3 Bft) SW 224 0 min 0,000 mm 0,9 UV-I 238 W/m 2,3 C -0,4 C 32,2 km/h (5 Bft) 100,00 %
24.02.2017 13:43 6,8 C 72 % 1009,0 hPa 0,0 l/m 20,4 km/h (4 Bft) SW 236 1 min 0,000 mm 0,9 UV-I 288 W/m 2,1 C -1,0 C 27,4 km/h (4 Bft) 100,00 %
24.02.2017 13:44 6,8 C 72 % 1009,0 hPa 0,0 l/m 16,4 km/h (3 Bft) S-SW 211 1 min 0,000 mm 0,9 UV-I 309 W/m 2,1 C 0,6 C 20,9 km/h (4 Bft) 100,00 %
24.02.2017 13:45 6,9 C 73 % 1009,0 hPa 0,0 l/m 17,5 km/h (3 Bft) SW 227 1 min 0,000 mm 0,9 UV-I 316 W/m 2,4 C 0,3 C 27,4 km/h (4 Bft) 100,00 %
24.02.2017 13:46 6,9 C 73 % 1009,0 hPa 0,0 l/m 17,8 km/h (3 Bft) S-SW 213 1 min 0,000 mm 1,0 UV-I 329 W/m 2,4 C 0,1 C 25,7 km/h (4 Bft) 96,67 %
24.02.2017 13:47 7,0 C 73 % 1009,1 hPa 0,0 l/m 13,9 km/h (3 Bft) W-SW 252 1 min 0,000 mm 0,9 UV-I 335 W/m 2,5 C 2,0 C 20,9 km/h (4 Bft) 100,00 %
24.02.2017 13:48 7,0 C 73 % 1009,1 hPa 0,0 l/m 13,0 km/h (3 Bft) W-SW 243 1 min 0,000 mm 1,0 UV-I 365 W/m 2,5 C 2,5 C 19,3 km/h (3 Bft) 95,83 %
24.02.2017 13:49 7,1 C 72 % 1009,0 hPa 0,0 l/m 14,7 km/h (3 Bft) SW 228 1 min 0,000 mm 1,0 UV-I 420 W/m 2,4 C 1,8 C 19,3 km/h (3 Bft) 100,00 %
24.02.2017 13:50 7,2 C 73 % 1009,0 hPa 0,0 l/m 19,5 km/h (3 Bft) SW 235 1 min 0,000 mm 1,0 UV-I 431 W/m 2,7 C -0,1 C 27,4 km/h (4 Bft) 100,00 %
24.02.2017 13:51 7,2 C 71 % 1008,9 hPa 0,0 l/m 22,6 km/h (4 Bft) W-SW 244 1 min 0,000 mm 0,9 UV-I 397 W/m 2,3 C -1,2 C 30,6 km/h (5 Bft) 100,00 %
24.02.2017 13:52 7,3 C 67 % 1009,0 hPa 0,0 l/m 22,1 km/h (4 Bft) W-SW 257 1 min 0,000 mm 1,1 UV-I 350 W/m 1,6 C -0,9 C 32,2 km/h (5 Bft) 100,00 %
24.02.2017 13:53 7,3 C 65 % 1009,0 hPa 0,0 l/m 26,5 km/h (4 Bft) W-SW 257 1 min 0,000 mm 1,0 UV-I 381 W/m 1,2 C -2,2 C 43,5 km/h (6 Bft) 91,67 %
24.02.2017 13:54 7,4 C 65 % 1009,0 hPa 0,0 l/m 22,8 km/h (4 Bft) W-SW 252 1 min 0,000 mm 1,0 UV-I 459 W/m 1,3 C -1,0 C 27,4 km/h (4 Bft) 100,00 %
24.02.2017 13:55 7,4 C 65 % 1009,0 hPa 0,0 l/m 25,2 km/h (4 Bft) W-SW 253 1 min 0,000 mm 1,0 UV-I 498 W/m 1,3 C -1,7 C 29,0 km/h (5 Bft) 100,00 %
24.02.2017 13:56 7,6 C 66 % 1008,9 hPa 0,0 l/m 17,0 km/h (3 Bft) W-SW 257 1 min 0,000 mm 0,9 UV-I 522 W/m 1,7 C 1,3 C 22,5 km/h (4 Bft) 100,00 %
24.02.2017 13:57 7,6 C 65 % 1008,9 hPa 0,0 l/m 16,4 km/h (3 Bft) SW 224 1 min 0,000 mm 0,9 UV-I 452 W/m 1,5 C 1,6 C 27,4 km/h (4 Bft) 100,00 %
24.02.2017 13:58 7,7 C 65 % 1008,9 hPa 0,0 l/m 17,6 km/h (3 Bft) W-SW 243 1 min 0,000 mm 0,7 UV-I 420 W/m 1,5 C 1,2 C 30,6 km/h (5 Bft) 100,00 %
24.02.2017 13:59 7,8 C 64 % 1009,0 hPa 0,0 l/m 15,8 km/h (3 Bft) W-SW 250 1 min 0,000 mm 0,6 UV-I 309 W/m 1,4 C 2,1 C 22,5 km/h (4 Bft) 96,30 %
24.02.2017 14:00 7,8 C 63 % 1009,0 hPa 0,0 l/m 21,7 km/h (4 Bft) W-SW 253 0 min 0,177 mm 0,6 UV-I 257 W/m 1,2 C -0,1 C 32,2 km/h (5 Bft) 100,00 %
24.02.2017 14:01 7,8 C 61 % 1009,0 hPa 0,0 l/m 22,3 km/h (4 Bft) W-NW 298 1 min 0,000 mm 0,7 UV-I 267 W/m 0,8 C -0,3 C 27,4 km/h (4 Bft) 100,00 %
24.02.2017 14:02 7,8 C 61 % 1008,9 hPa 0,0 l/m 14,8 km/h (3 Bft) W 278 1 min 0,000 mm 0,5 UV-I 380 W/m 0,8 C 2,6 C 22,5 km/h (4 Bft) 95,65 %
24.02.2017 14:03 7,8 C 60 % 1008,9 hPa 0,0 l/m 11,7 km/h (2 Bft) W-SW 248 1 min 0,000 mm 0,5 UV-I 304 W/m 0,5 C 4,1 C 17,7 km/h (3 Bft) 87,50 %
24.02.2017 14:04 7,7 C 60 % 1009,0 hPa 0,0 l/m 11,4 km/h (2 Bft) W-SW 247 0 min 0,000 mm 0,5 UV-I 185 W/m 0,4 C 4,2 C 17,7 km/h (3 Bft) 100,00 %
24.02.2017 14:05 7,7 C 61 % 1009,0 hPa 0,0 l/m 15,0 km/h (3 Bft) W 261 0 min 0,000 mm 0,5 UV-I 157 W/m 0,7 C 2,3 C 22,5 km/h (4 Bft) 100,00 %
24.02.2017 14:06 7,7 C 61 % 1009,0 hPa 0,0 l/m 23,6 km/h (4 Bft) W 267 0 min 0,000 mm 0,1 UV-I 142 W/m 0,7 C -0,9 C 30,6 km/h (5 Bft) 100,00 %
24.02.2017 14:07 7,7 C 61 % 1009,0 hPa 0,0 l/m 17,6 km/h (3 Bft) W-SW 256 0 min 0,000 mm 0,0 UV-I 137 W/m 0,7 C 1,2 C 29,0 km/h (5 Bft) 100,00 %
24.02.2017 14:08 7,6 C 61 % 1009,0 hPa 0,0 l/m 15,1 km/h (3 Bft) W 261 0 min 0,000 mm 0,0 UV-I 134 W/m 0,6 C 2,2 C 17,7 km/h (3 Bft) 100,00 %
24.02.2017 14:09 7,6 C 61 % 1009,0 hPa 0,0 l/m 17,9 km/h (3 Bft) W-SW 246 0 min 0,000 mm 0,0 UV-I 133 W/m 0,6 C 1,0 C 25,7 km/h (4 Bft) 100,00 %
24.02.2017 14:10 7,6 C 61 % 1009,0 hPa 0,0 l/m 17,0 km/h (3 Bft) W 266 0 min 0,000 mm 0,0 UV-I 139 W/m 0,6 C 1,3 C 30,6 km/h (5 Bft) 88,46 %
24.02.2017 14:11 7,5 C 60 % 1009,0 hPa 0,0 l/m 24,7 km/h (4 Bft) W 271 0 min 0,000 mm 0,0 UV-I 156 W/m 0,2 C -1,5 C 38,6 km/h (5 Bft) 100,00 %
24.02.2017 14:12 7,4 C 60 % 1009,0 hPa 0,0 l/m 19,9 km/h (4 Bft) W-SW 248 0 min 0,000 mm 0,0 UV-I 170 W/m 0,2 C -0,0 C 29,0 km/h (5 Bft) 100,00 %
24.02.2017 14:13 7,4 C 60 % 1009,0 hPa 0,0 l/m 32,4 km/h (5 Bft) W-SW 252 0 min 0,000 mm 0,0 UV-I 138 W/m 0,2 C -3,5 C 46,7 km/h (6 Bft) 100,00 %
24.02.2017 14:14 7,3 C 60 % 1009,1 hPa 0,0 l/m 26,9 km/h (4 Bft) W-SW 257 0 min 0,000 mm 0,0 UV-I 104 W/m 0,1 C -2,4 C 41,8 km/h (6 Bft) 93,75 %
24.02.2017 14:15 7,3 C 60 % 1009,1 hPa 0,0 l/m 16,3 km/h (3 Bft) W-SW 250 0 min 0,000 mm 0,0 UV-I 90 W/m 0,1 C 1,3 C 22,5 km/h (4 Bft) 96,15 %
24.02.2017 14:16 7,3 C 61 % 1009,1 hPa 0,0 l/m 15,1 km/h (3 Bft) W 262 0 min 0,000 mm 0,0 UV-I 82 W/m 0,3 C 1,8 C 17,7 km/h (3 Bft) 100,00 %
24.02.2017 14:17 7,3 C 61 % 1009,1 hPa 0,0 l/m 22,4 km/h (4 Bft) W 261 0 min 0,000 mm 0,0 UV-I 75 W/m 0,3 C -1,0 C 29,0 km/h (5 Bft) 96,88 %
24.02.2017 14:18 7,3 C 61 % 1009,1 hPa 0,0 l/m 20,5 km/h (4 Bft) W-SW 256 0 min 0,000 mm 0,0 UV-I 67 W/m 0,3 C -0,4 C 25,7 km/h (4 Bft) 100,00 %
24.02.2017 14:19 7,2 C 61 % 1009,1 hPa 0,0 l/m 20,9 km/h (4 Bft) W-SW 247 0 min 0,000 mm 0,0 UV-I 61 W/m 0,2 C -0,7 C 32,2 km/h (5 Bft) 95,65 %
24.02.2017 14:20 7,2 C 60 % 1009,1 hPa 0,0 l/m 30,3 km/h (5 Bft) W-SW 250 0 min 0,000 mm 0,0 UV-I 56 W/m -0,0 C -3,4 C 41,8 km/h (6 Bft) 86,67 %
24.02.2017 14:21 7,2 C 60 % 1009,1 hPa 0,0 l/m 24,6 km/h (4 Bft) W 259 0 min 0,000 mm 0,0 UV-I 51 W/m -0,0 C -1,8 C 32,2 km/h (5 Bft) 96,15 %
24.02.2017 14:22 7,1 C 61 % 1009,1 hPa 0,0 l/m 16,8 km/h (3 Bft) W-SW 245 0 min 0,000 mm 0,0 UV-I 46 W/m 0,1 C 0,8 C 20,9 km/h (4 Bft) 100,00 %
24.02.2017 14:23 7,1 C 62 % 1009,2 hPa 0,0 l/m 19,2 km/h (3 Bft) W-SW 239 0 min 0,000 mm 0,0 UV-I 44 W/m 0,3 C -0,2 C 30,6 km/h (5 Bft) 100,00 %
24.02.2017 14:24 7,1 C 61 % 1009,2 hPa 0,0 l/m 24,0 km/h (4 Bft) W-SW 250 0 min 0,000 mm 0,0 UV-I 47 W/m 0,1 C -1,8 C 33,8 km/h (5 Bft) 100,00 %
24.02.2017 14:25 7,0 C 61 % 1009,2 hPa 0,0 l/m 23,5 km/h (4 Bft) W 266 0 min 0,000 mm 0,0 UV-I 53 W/m 0,0 C -1,8 C 33,8 km/h (5 Bft) 100,00 %
24.02.2017 14:26 7,0 C 61 % 1009,2 hPa 0,0 l/m 21,7 km/h (4 Bft) W-SW 248 0 min 0,000 mm 0,0 UV-I 67 W/m 0,0 C -1,2 C 30,6 km/h (5 Bft) 95,83 %
24.02.2017 14:27 6,9 C 62 % 1009,1 hPa 0,0 l/m 21,9 km/h (4 Bft) W 264 0 min 0,000 mm 0,0 UV-I 87 W/m 0,1 C -1,4 C 30,6 km/h (5 Bft) 89,66 %
24.02.2017 14:28 6,9 C 61 % 1009,1 hPa 0,0 l/m 23,3 km/h (4 Bft) SW 228 0 min 0,000 mm 0,0 UV-I 105 W/m -0,1 C -1,8 C 33,8 km/h (5 Bft) 100,00 %
24.02.2017 14:29 6,9 C 61 % 1009,1 hPa 0,0 l/m 15,6 km/h (3 Bft) W-SW 238 0 min 0,000 mm 0,0 UV-I 118 W/m -0,1 C 1,1 C 20,9 km/h (4 Bft) 100,00 %
24.02.2017 14:30 6,9 C 62 % 1009,2 hPa 0,0 l/m 22,7 km/h (4 Bft) SW 232 0 min 0,000 mm 0,0 UV-I 125 W/m 0,1 C -1,7 C 43,5 km/h (6 Bft) 100,00 %
24.02.2017 14:31 6,9 C 62 % 1009,2 hPa 0,0 l/m 28,8 km/h (4 Bft) W 272 0 min 0,000 mm 0,0 UV-I 134 W/m 0,1 C -3,4 C 46,7 km/h (6 Bft) 100,00 %
24.02.2017 14:32 6,9 C 62 % 1009,1 hPa 0,0 l/m 22,9 km/h (4 Bft) SW 234 0 min 0,000 mm 0,0 UV-I 143 W/m 0,1 C -1,7 C 32,2 km/h (5 Bft) 100,00 %
24.02.2017 14:33 6,9 C 62 % 1009,3 hPa 0,0 l/m 21,3 km/h (4 Bft) W-SW 252 0 min 0,000 mm 0,0 UV-I 145 W/m 0,1 C -1,2 C 32,2 km/h (5 Bft) 96,60 %
24.02.2017 14:34 6,9 C 62 % 1009,2 hPa 0,0 l/m 18,8 km/h (3 Bft) W-SW 254 0 min 0,000 mm 0,0 UV-I 145 W/m 0,1 C -0,3 C 24,1 km/h (4 Bft) 100,00 %
24.02.2017 14:35 7,0 C 63 % 1009,3 hPa 0,0 l/m 26,1 km/h (4 Bft) W-SW 241 0 min 0,000 mm 0,0 UV-I 118 W/m 0,4 C -2,5 C 35,4 km/h (5 Bft) 100,00 %
24.02.2017 14:36 6,9 C 62 % 1009,3 hPa 0,0 l/m 24,5 km/h (4 Bft) W 259 0 min 0,000 mm 0,0 UV-I 101 W/m 0,1 C -2,2 C 37,0 km/h (5 Bft) 100,00 %
24.02.2017 14:37 6,9 C 63 % 1009,3 hPa 0,0 l/m 20,5 km/h (4 Bft) W 265 0 min 0,000 mm 0,0 UV-I 101 W/m 0,4 C -0,9 C 29,0 km/h (5 Bft) 100,00 %
24.02.2017 14:38 6,9 C 64 % 1009,3 hPa 0,0 l/m 27,1 km/h (4 Bft) SW 229 0 min 0,000 mm 0,0 UV-I 120 W/m 0,6 C -3,0 C 32,2 km/h (5 Bft) 96,15 %
24.02.2017 14:39 6,9 C 65 % 1009,3 hPa 0,0 l/m 22,7 km/h (4 Bft) W-SW 248 0 min 0,000 mm 0,0 UV-I 151 W/m 0,8 C -1,7 C 32,2 km/h (5 Bft) 96,30 %
24.02.2017 14:40 6,9 C 65 % 1009,3 hPa 0,0 l/m 20,0 km/h (4 Bft) SW 232 0 min 0,000 mm 0,0 UV-I 171 W/m 0,8 C -0,7 C 30,6 km/h (5 Bft) 100,00 %
24.02.2017 14:41 6,8 C 66 % 1009,3 hPa 0,0 l/m 27,5 km/h (4 Bft) S-SW 192 0 min 0,000 mm 0,0 UV-I 173 W/m 0,9 C -3,2 C 40,2 km/h (6 Bft) 100,00 %
24.02.2017 14:42 6,7 C 67 % 1009,3 hPa 0,0 l/m 16,4 km/h (3 Bft) W 260 0 min 0,000 mm 0,0 UV-I 177 W/m 1,0 C 0,5 C 22,5 km/h (4 Bft) 92,31 %
24.02.2017 14:43 6,7 C 68 % 1009,3 hPa 0,0 l/m 17,9 km/h (3 Bft) W-SW 241 0 min 0,000 mm 0,0 UV-I 184 W/m 1,2 C -0,2 C 24,1 km/h (4 Bft) 92,00 %
24.02.2017 14:44 6,6 C 68 % 1009,3 hPa 0,0 l/m 23,8 km/h (4 Bft) W-SW 245 0 min 0,000 mm 0,5 UV-I 180 W/m 1,1 C -2,4 C 32,2 km/h (5 Bft) 96,15 %
24.02.2017 14:45 6,6 C 69 % 1009,3 hPa 0,0 l/m 20,0 km/h (4 Bft) W 267 0 min 0,000 mm 0,5 UV-I 174 W/m 1,3 C -1,1 C 30,6 km/h (5 Bft) 96,30 %
24.02.2017 14:46 6,6 C 70 % 1009,3 hPa 0,0 l/m 19,4 km/h (3 Bft) S-SW 192 0 min 0,000 mm 0,5 UV-I 179 W/m 1,5 C -0,9 C 25,7 km/h (4 Bft) 100,00 %
24.02.2017 14:47 6,5 C 70 % 1009,3 hPa 0,0 l/m 21,6 km/h (4 Bft) SW 215 0 min 0,000 mm 0,5 UV-I 194 W/m 1,4 C -1,8 C 33,8 km/h (5 Bft) 100,00 %
24.02.2017 14:48 6,4 C 71 % 1009,3 hPa 0,0 l/m 21,8 km/h (4 Bft) W-SW 242 0 min 0,000 mm 0,5 UV-I 213 W/m 1,5 C -2,0 C 29,0 km/h (5 Bft) 100,00 %
24.02.2017 14:49 6,4 C 72 % 1009,3 hPa 0,0 l/m 15,7 km/h (3 Bft) SW 234 0 min 0,000 mm 0,5 UV-I 212 W/m 1,7 C 0,4 C 30,6 km/h (5 Bft) 95,83 %
24.02.2017 14:50 6,3 C 73 % 1009,3 hPa 0,0 l/m 23,4 km/h (4 Bft) SW 222 0 min 0,000 mm 0,5 UV-I 204 W/m 1,8 C -2,7 C 30,6 km/h (5 Bft) 84,62 %
24.02.2017 14:51 6,3 C 73 % 1009,3 hPa 0,0 l/m 21,2 km/h (4 Bft) SW 218 0 min 0,000 mm 0,6 UV-I 216 W/m 1,8 C -1,9 C 29,0 km/h (5 Bft) 96,30 %
24.02.2017 14:52 6,3 C 74 % 1009,3 hPa 0,0 l/m 19,5 km/h (3 Bft) W-SW 237 1 min 0,000 mm 0,7 UV-I 367 W/m 2,0 C -1,3 C 29,0 km/h (5 Bft) 93,33 %
24.02.2017 14:53 6,3 C 74 % 1009,3 hPa 0,0 l/m 21,9 km/h (4 Bft) W-SW 257 1 min 0,000 mm 0,7 UV-I 400 W/m 2,0 C -2,2 C 32,2 km/h (5 Bft) 100,00 %
24.02.2017 14:54 6,2 C 74 % 1009,3 hPa 0,0 l/m 29,2 km/h (5 Bft) W-SW 252 1 min 0,000 mm 0,7 UV-I 390 W/m 1,9 C -4,5 C 37,0 km/h (5 Bft) 91,67 %
24.02.2017 14:55 6,2 C 73 % 1009,3 hPa 0,0 l/m 26,6 km/h (4 Bft) SW 230 1 min 0,000 mm 0,7 UV-I 355 W/m 1,7 C -3,8 C 43,5 km/h (6 Bft) 95,12 %
24.02.2017 14:56 6,2 C 73 % 1009,3 hPa 0,0 l/m 20,3 km/h (4 Bft) SW 236 1 min 0,000 mm 0,7 UV-I 308 W/m 1,7 C -1,7 C 27,4 km/h (4 Bft) 100,00 %
24.02.2017 14:57 6,2 C 74 % 1009,3 hPa 0,0 l/m 21,2 km/h (4 Bft) W-SW 239 1 min 0,000 mm 0,6 UV-I 331 W/m 1,9 C -2,1 C 29,0 km/h (5 Bft) 93,10 %
24.02.2017 14:58 6,2 C 74 % 1009,3 hPa 0,0 l/m 17,9 km/h (3 Bft) W-SW 252 1 min 0,000 mm 0,6 UV-I 338 W/m 1,9 C -0,8 C 24,1 km/h (4 Bft) 92,59 %
24.02.2017 14:59 6,3 C 75 % 1009,3 hPa 0,0 l/m 16,0 km/h (3 Bft) W-SW 238 1 min 0,000 mm 0,7 UV-I 317 W/m 2,2 C 0,2 C 20,9 km/h (4 Bft) 81,82 %
24.02.2017 15:00 6,3 C 75 % 1009,2 hPa 0,0 l/m 20,2 km/h (4 Bft) W-SW 238 1 min 0,000 mm 0,6 UV-I 243 W/m 2,2 C -1,6 C 25,7 km/h (4 Bft) 96,30 %
24.02.2017 15:01 6,3 C 74 % 1009,3 hPa 0,0 l/m 19,7 km/h (3 Bft) W 265 0 min 0,153 mm 0,6 UV-I 202 W/m 2,0 C -1,4 C 25,7 km/h (4 Bft) 95,83 %
24.02.2017 15:02 6,3 C 74 % 1009,2 hPa 0,0 l/m 15,0 km/h (3 Bft) S-SW 209 1 min 0,000 mm 0,6 UV-I 252 W/m 2,0 C 0,7 C 24,1 km/h (4 Bft) 96,30 %
24.02.2017 15:03 6,3 C 74 % 1009,3 hPa 0,0 l/m 13,4 km/h (3 Bft) W 259 1 min 0,000 mm 0,6 UV-I 277 W/m 2,0 C 1,5 C 17,7 km/h (3 Bft) 95,65 %
24.02.2017 15:04 6,3 C 75 % 1009,2 hPa 0,0 l/m 15,9 km/h (3 Bft) S-SW 194 1 min 0,000 mm 0,6 UV-I 310 W/m 2,2 C 0,2 C 22,5 km/h (4 Bft) 91,67 %
24.02.2017 15:05 6,3 C 76 % 1009,3 hPa 0,0 l/m 23,3 km/h (4 Bft) SW 219 1 min 0,000 mm 0,6 UV-I 368 W/m 2,4 C -2,6 C 30,6 km/h (5 Bft) 95,65 %
24.02.2017 15:06 6,2 C 75 % 1009,3 hPa 0,0 l/m 25,4 km/h (4 Bft) W-SW 240 1 min 0,000 mm 0,6 UV-I 307 W/m 2,1 C -3,4 C 38,6 km/h (5 Bft) 95,83 %
24.02.2017 15:07 6,2 C 75 % 1009,2 hPa 0,0 l/m 19,8 km/h (3 Bft) SW 225 1 min 0,000 mm 0,6 UV-I 260 W/m 2,1 C -1,5 C 25,7 km/h (4 Bft) 91,67 %
24.02.2017 15:08 6,2 C 76 % 1009,2 hPa 0,0 l/m 18,1 km/h (3 Bft) SW 229 1 min 0,000 mm 0,6 UV-I 317 W/m 2,3 C -0,9 C 27,4 km/h (4 Bft) 96,55 %
24.02.2017 15:09 6,1 C 75 % 1009,2 hPa 0,0 l/m 18,7 km/h (3 Bft) W-SW 248 1 min 0,000 mm 0,6 UV-I 326 W/m 2,0 C -1,2 C 30,6 km/h (5 Bft) 100,00 %
24.02.2017 15:10 6,2 C 76 % 1009,2 hPa 0,0 l/m 13,8 km/h (3 Bft) W-SW 247 1 min 0,000 mm 0,6 UV-I 331 W/m 2,3 C 1,1 C 20,9 km/h (4 Bft) 91,67 %
24.02.2017 15:11 6,2 C 76 % 1009,2 hPa 0,0 l/m 20,5 km/h (4 Bft) W-SW 248 1 min 0,000 mm 0,5 UV-I 334 W/m 2,3 C -1,8 C 27,4 km/h (4 Bft) 96,30 %
24.02.2017 15:12 6,2 C 75 % 1009,2 hPa 0,0 l/m 22,9 km/h (4 Bft) SW 229 1 min 0,000 mm 0,6 UV-I 327 W/m 2,1 C -2,7 C 29,0 km/h (5 Bft) 95,65 %
24.02.2017 15:13 6,2 C 76 % 1009,1 hPa 0,0 l/m 21,0 km/h (4 Bft) SW 236 1 min 0,000 mm 0,6 UV-I 325 W/m 2,3 C -2,0 C 32,2 km/h (5 Bft) 96,55 %
24.02.2017 15:14 6,1 C 76 % 1009,2 hPa 0,0 l/m 21,4 km/h (4 Bft) SW 232 1 min 0,000 mm 0,5 UV-I 313 W/m 2,2 C -2,3 C 33,8 km/h (5 Bft) 96,30 %
24.02.2017 15:15 6,1 C 76 % 1009,1 hPa 0,0 l/m 22,9 km/h (4 Bft) SW 231 1 min 0,000 mm 0,5 UV-I 313 W/m 2,2 C -2,8 C 32,2 km/h (5 Bft) 91,67 %
24.02.2017 15:16 5,9 C 77 % 1009,2 hPa 0,0 l/m 22,6 km/h (4 Bft) SW 226 1 min 0,000 mm 0,5 UV-I 315 W/m 2,2 C -2,9 C 37,0 km/h (5 Bft) 100,00 %
24.02.2017 15:17 5,9 C 77 % 1009,1 hPa 0,0 l/m 24,8 km/h (4 Bft) SW 225 1 min 0,000 mm 0,5 UV-I 320 W/m 2,2 C -3,7 C 37,0 km/h (5 Bft) 91,67 %
24.02.2017 15:18 5,9 C 78 % 1009,1 hPa 0,0 l/m 17,5 km/h (3 Bft) SW 227 1 min 0,000 mm 0,5 UV-I 296 W/m 2,4 C -1,0 C 27,4 km/h (4 Bft) 96,15 %
24.02.2017 15:19 5,9 C 78 % 1009,2 hPa 0,0 l/m 18,7 km/h (3 Bft) W-SW 240 1 min 0,000 mm 0,5 UV-I 268 W/m 2,4 C -1,5 C 29,0 km/h (5 Bft) 100,00 %
24.02.2017 15:20 5,9 C 78 % 1009,2 hPa 0,0 l/m 19,9 km/h (4 Bft) W-SW 242 1 min 0,000 mm 0,5 UV-I 257 W/m 2,4 C -2,0 C 25,7 km/h (4 Bft) 96,15 %
24.02.2017 15:21 5,9 C 77 % 1009,2 hPa 0,0 l/m 17,8 km/h (3 Bft) S-SW 208 1 min 0,000 mm 0,5 UV-I 292 W/m 2,2 C -1,1 C 25,7 km/h (4 Bft) 100,00 %
24.02.2017 15:22 5,8 C 77 % 1009,2 hPa 0,0 l/m 23,7 km/h (4 Bft) W-SW 239 1 min 0,000 mm 0,2 UV-I 228 W/m 2,1 C -3,4 C 38,6 km/h (5 Bft) 100,00 %
24.02.2017 15:23 5,8 C 77 % 1009,2 hPa 0,0 l/m 24,0 km/h (4 Bft) SW 221 1 min 0,000 mm 0,0 UV-I 221 W/m 2,1 C -3,5 C 33,8 km/h (5 Bft) 100,00 %
24.02.2017 15:24 5,8 C 78 % 1009,2 hPa 0,0 l/m 21,8 km/h (4 Bft) SW 235 1 min 0,000 mm 0,0 UV-I 201 W/m 2,3 C -2,8 C 30,6 km/h (5 Bft) 95,65 %
24.02.2017 15:25 5,8 C 78 % 1009,3 hPa 0,0 l/m 22,5 km/h (4 Bft) SW 225 1 min 0,000 mm 0,0 UV-I 185 W/m 2,3 C -3,0 C 32,2 km/h (5 Bft) 100,00 %
24.02.2017 15:26 5,8 C 78 % 1009,4 hPa 0,0 l/m 25,2 km/h (4 Bft) S-SW 207 1 min 0,000 mm 0,0 UV-I 194 W/m 2,3 C -3,9 C 35,4 km/h (5 Bft) 100,00 %
24.02.2017 15:27 5,8 C 78 % 1009,3 hPa 0,0 l/m 18,6 km/h (3 Bft) W-SW 245 1 min 0,000 mm 0,0 UV-I 200 W/m 2,3 C -1,6 C 25,7 km/h (4 Bft) 92,59 %
24.02.2017 15:28 5,8 C 78 % 1009,3 hPa 0,0 l/m 16,7 km/h (3 Bft) SW 236 1 min 0,000 mm 0,0 UV-I 310 W/m 2,3 C -0,8 C 29,0 km/h (5 Bft) 100,00 %
24.02.2017 15:29 5,8 C 79 % 1009,4 hPa 0,0 l/m 19,8 km/h (3 Bft) W-SW 244 1 min 0,000 mm 0,0 UV-I 309 W/m 2,4 C -2,1 C 27,4 km/h (4 Bft) 100,00 %
24.02.2017 15:30 5,8 C 79 % 1009,3 hPa 0,0 l/m 22,7 km/h (4 Bft) W-SW 238 0 min 0,000 mm 0,0 UV-I 141 W/m 2,4 C -3,1 C 30,6 km/h (5 Bft) 100,00 %
24.02.2017 15:31 5,8 C 78 % 1009,3 hPa 0,0 l/m 22,8 km/h (4 Bft) SW 225 0 min 0,000 mm 0,0 UV-I 143 W/m 2,3 C -3,1 C 29,0 km/h (5 Bft) 100,00 %
24.02.2017 15:32 5,8 C 79 % 1009,3 hPa 0,0 l/m 15,6 km/h (3 Bft) S-SW 208 0 min 0,000 mm 0,0 UV-I 141 W/m 2,4 C -0,2 C 20,9 km/h (4 Bft) 100,00 %
24.02.2017 15:33 5,8 C 79 % 1009,3 hPa 0,0 l/m 17,0 km/h (3 Bft) S-SW 203 1 min 0,000 mm 0,0 UV-I 179 W/m 2,4 C -0,9 C 22,5 km/h (4 Bft) 93,33 %
24.02.2017 15:34 5,8 C 79 % 1009,4 hPa 0,0 l/m 14,3 km/h (3 Bft) SW 219 0 min 0,000 mm 0,0 UV-I 140 W/m 2,4 C 0,4 C 20,9 km/h (4 Bft) 95,83 %
24.02.2017 15:35 5,9 C 79 % 1009,3 hPa 0,0 l/m 18,2 km/h (3 Bft) SW 234 0 min 0,000 mm 0,0 UV-I 132 W/m 2,5 C -1,3 C 29,0 km/h (5 Bft) 95,65 %
24.02.2017 15:36 5,8 C 79 % 1009,3 hPa 0,0 l/m 22,2 km/h (4 Bft) SW 221 0 min 0,000 mm 0,0 UV-I 129 W/m 2,4 C -2,9 C 35,4 km/h (5 Bft) 100,00 %
24.02.2017 15:37 5,8 C 79 % 1009,3 hPa 0,0 l/m 26,4 km/h (4 Bft) SW 221 0 min 0,000 mm 0,0 UV-I 116 W/m 2,4 C -4,3 C 35,4 km/h (5 Bft) 86,96 %
24.02.2017 15:38 5,8 C 79 % 1009,3 hPa 0,0 l/m 26,9 km/h (4 Bft) SW 234 0 min 0,000 mm 0,0 UV-I 100 W/m 2,4 C -4,4 C 32,2 km/h (5 Bft) 100,00 %
24.02.2017 15:39 5,8 C 79 % 1009,4 hPa 0,0 l/m 19,7 km/h (3 Bft) S-SW 196 0 min 0,000 mm 0,0 UV-I 95 W/m 2,4 C -2,0 C 24,1 km/h (4 Bft) 100,00 %
24.02.2017 15:40 5,7 C 79 % 1009,4 hPa 0,0 l/m 17,7 km/h (3 Bft) S-SW 192 0 min 0,000 mm 0,0 UV-I 107 W/m 2,3 C -1,3 C 20,9 km/h (4 Bft) 100,00 %
24.02.2017 15:41 5,7 C 79 % 1009,3 hPa 0,0 l/m 19,2 km/h (3 Bft) SW 236 0 min 0,000 mm 0,0 UV-I 138 W/m 2,3 C -2,0 C 29,0 km/h (5 Bft) 100,00 %
24.02.2017 15:42 5,7 C 79 % 1009,4 hPa 0,0 l/m 17,9 km/h (3 Bft) SW 233 0 min 0,000 mm 0,0 UV-I 140 W/m 2,3 C -1,4 C 25,7 km/h (4 Bft) 97,62 %
24.02.2017 15:43 5,7 C 79 % 1009,3 hPa 0,0 l/m 21,2 km/h (4 Bft) SW 227 1 min 0,000 mm 0,0 UV-I 169 W/m 2,3 C -2,7 C 30,6 km/h (5 Bft) 100,00 %
24.02.2017 15:44 5,7 C 80 % 1009,4 hPa 0,0 l/m 20,4 km/h (4 Bft) W 271 0 min 0,000 mm 0,0 UV-I 160 W/m 2,5 C -2,4 C 29,0 km/h (5 Bft) 100,00 %
24.02.2017 15:45 5,7 C 80 % 1009,4 hPa 0,0 l/m 19,5 km/h (3 Bft) W-SW 241 1 min 0,000 mm 0,0 UV-I 160 W/m 2,5 C -2,1 C 25,7 km/h (4 Bft) 100,00 %
24.02.2017 15:46 5,7 C 80 % 1009,4 hPa 0,0 l/m 18,2 km/h (3 Bft) SW 232 1 min 0,000 mm 0,0 UV-I 175 W/m 2,5 C -1,5 C 25,7 km/h (4 Bft) 100,00 %
24.02.2017 15:47 5,7 C 80 % 1009,5 hPa 0,0 l/m 23,9 km/h (4 Bft) SW 227 1 min 0,000 mm 0,0 UV-I 168 W/m 2,5 C -3,6 C 30,6 km/h (5 Bft) 100,00 %
24.02.2017 15:48 5,7 C 80 % 1009,3 hPa 0,0 l/m 23,4 km/h (4 Bft) W-SW 258 1 min 0,000 mm 0,0 UV-I 156 W/m 2,5 C -3,5 C 37,0 km/h (5 Bft) 100,00 %
24.02.2017 15:49 5,7 C 80 % 1009,4 hPa 0,0 l/m 20,4 km/h (4 Bft) S-SW 212 0 min 0,000 mm 0,0 UV-I 138 W/m 2,5 C -2,4 C 29,0 km/h (5 Bft) 96,15 %
24.02.2017 15:50 5,7 C 80 % 1009,4 hPa 0,0 l/m 21,1 km/h (4 Bft) SW 217 1 min 0,000 mm 0,0 UV-I 153 W/m 2,5 C -2,7 C 29,0 km/h (5 Bft) 95,83 %
24.02.2017 15:51 5,6 C 80 % 1009,4 hPa 0,0 l/m 16,2 km/h (3 Bft) S-SW 207 1 min 0,000 mm 0,0 UV-I 181 W/m 2,4 C -0,8 C 20,9 km/h (4 Bft) 100,00 %
24.02.2017 15:52 5,6 C 80 % 1009,4 hPa 0,0 l/m 20,9 km/h (4 Bft) SW 223 1 min 0,000 mm 0,0 UV-I 203 W/m 2,4 C -2,7 C 27,4 km/h (4 Bft) 100,00 %
24.02.2017 15:53 5,6 C 80 % 1009,5 hPa 0,0 l/m 19,6 km/h (3 Bft) SW 232 1 min 0,000 mm 0,0 UV-I 243 W/m 2,4 C -2,2 C 30,6 km/h (5 Bft) 91,67 %
24.02.2017 15:54 5,6 C 81 % 1009,5 hPa 0,0 l/m 24,2 km/h (4 Bft) SW 230 1 min 0,000 mm 0,0 UV-I 233 W/m 2,6 C -3,9 C 30,6 km/h (5 Bft) 100,00 %
24.02.2017 15:55 5,7 C 81 % 1009,6 hPa 0,0 l/m 23,2 km/h (4 Bft) W-SW 238 1 min 0,000 mm 0,0 UV-I 248 W/m 2,7 C -3,4 C 32,2 km/h (5 Bft) 100,00 %
24.02.2017 15:56 5,7 C 80 % 1009,7 hPa 0,0 l/m 23,2 km/h (4 Bft) W-SW 243 1 min 0,000 mm 0,0 UV-I 306 W/m 2,5 C -3,4 C 29,0 km/h (5 Bft) 92,31 %
24.02.2017 15:57 5,7 C 80 % 1009,7 hPa 0,0 l/m 21,5 km/h (4 Bft) W-SW 241 1 min 0,000 mm 0,0 UV-I 332 W/m 2,5 C -2,8 C 25,7 km/h (4 Bft) 100,00 %
24.02.2017 15:58 5,7 C 80 % 1009,7 hPa 0,0 l/m 16,7 km/h (3 Bft) W-SW 239 1 min 0,000 mm 0,0 UV-I 301 W/m 2,5 C -0,9 C 24,1 km/h (4 Bft) 92,31 %
24.02.2017 15:59 5,8 C 80 % 1009,8 hPa 0,0 l/m 22,9 km/h (4 Bft) W-SW 243 1 min 0,000 mm 0,0 UV-I 262 W/m 2,6 C -3,2 C 30,6 km/h (5 Bft) 100,00 %
24.02.2017 16:00 5,8 C 80 % 1009,7 hPa 0,0 l/m 19,4 km/h (3 Bft) W 278 1 min 0,000 mm 0,0 UV-I 231 W/m 2,6 C -1,9 C 27,4 km/h (4 Bft) 100,00 %
24.02.2017 16:01 5,8 C 80 % 1009,7 hPa 0,0 l/m 16,3 km/h (3 Bft) W-SW 254 1 min 0,127 mm 0,0 UV-I 205 W/m 2,6 C -0,6 C 24,1 km/h (4 Bft) 92,59 %
24.02.2017 16:02 5,8 C 80 % 1009,7 hPa 0,0 l/m 20,3 km/h (4 Bft) SW 217 1 min 0,000 mm 0,0 UV-I 199 W/m 2,6 C -2,3 C 29,0 km/h (5 Bft) 100,00 %
24.02.2017 16:03 5,8 C 80 % 1009,7 hPa 0,0 l/m 21,1 km/h (4 Bft) SW 236 1 min 0,000 mm 0,0 UV-I 189 W/m 2,6 C -2,6 C 30,6 km/h (5 Bft) 100,00 %
24.02.2017 16:04 5,8 C 80 % 1009,7 hPa 0,0 l/m 18,3 km/h (3 Bft) SW 219 1 min 0,000 mm 0,0 UV-I 178 W/m 2,6 C -1,5 C 25,7 km/h (4 Bft) 92,31 %
24.02.2017 16:05 5,8 C 80 % 1009,8 hPa 0,0 l/m 22,4 km/h (4 Bft) W-SW 245 1 min 0,000 mm 0,0 UV-I 164 W/m 2,6 C -3,0 C 32,2 km/h (5 Bft) 100,00 %
24.02.2017 16:06 5,8 C 80 % 1009,7 hPa 0,0 l/m 20,5 km/h (4 Bft) S-SW 209 1 min 0,000 mm 0,0 UV-I 137 W/m 2,6 C -2,3 C 32,2 km/h (5 Bft) 100,00 %
24.02.2017 16:07 5,8 C 80 % 1009,7 hPa 0,0 l/m 19,1 km/h (3 Bft) SW 222 0 min 0,000 mm 0,0 UV-I 123 W/m 2,6 C -1,8 C 22,5 km/h (4 Bft) 96,30 %
24.02.2017 16:08 5,7 C 80 % 1009,7 hPa 0,0 l/m 22,5 km/h (4 Bft) SW 226 1 min 0,000 mm 0,0 UV-I 130 W/m 2,5 C -3,2 C 37,0 km/h (5 Bft) 100,00 %
24.02.2017 16:09 5,7 C 80 % 1009,8 hPa 0,0 l/m 19,3 km/h (3 Bft) S-SW 207 0 min 0,000 mm 0,0 UV-I 95 W/m 2,5 C -2,0 C 29,0 km/h (5 Bft) 100,00 %
24.02.2017 16:10 5,7 C 80 % 1009,7 hPa 0,0 l/m 23,6 km/h (4 Bft) SW 234 0 min 0,000 mm 0,0 UV-I 79 W/m 2,5 C -3,5 C 37,0 km/h (5 Bft) 100,00 %
24.02.2017 16:11 5,6 C 80 % 1009,8 hPa 0,0 l/m 19,7 km/h (3 Bft) W-SW 244 0 min 0,000 mm 0,0 UV-I 81 W/m 2,4 C -2,3 C 25,7 km/h (4 Bft) 100,00 %
24.02.2017 16:12 5,6 C 80 % 1009,8 hPa 0,0 l/m 19,7 km/h (3 Bft) W-SW 238 0 min 0,000 mm 0,0 UV-I 83 W/m 2,4 C -2,3 C 22,5 km/h (4 Bft) 95,83 %
24.02.2017 16:13 5,6 C 80 % 1009,8 hPa 0,0 l/m 18,2 km/h (3 Bft) SW 221 0 min 0,000 mm 0,0 UV-I 115 W/m 2,4 C -1,7 C 24,1 km/h (4 Bft) 100,00 %
24.02.2017 16:14 5,5 C 80 % 1009,8 hPa 0,0 l/m 18,2 km/h (3 Bft) SW 223 0 min 0,000 mm 0,0 UV-I 95 W/m 2,3 C -1,8 C 30,6 km/h (5 Bft) 95,83 %
24.02.2017 16:15 5,5 C 81 % 1009,8 hPa 0,0 l/m 17,8 km/h (3 Bft) S-SW 202 1 min 0,000 mm 0,0 UV-I 142 W/m 2,5 C -1,6 C 27,4 km/h (4 Bft) 91,30 %
24.02.2017 16:16 5,4 C 81 % 1009,8 hPa 0,0 l/m 20,3 km/h (4 Bft) SW 225 0 min 0,000 mm 0,0 UV-I 68 W/m 2,4 C -2,8 C 30,6 km/h (5 Bft) 100,00 %
24.02.2017 16:17 5,4 C 81 % 1009,8 hPa 0,0 l/m 16,0 km/h (3 Bft) W-SW 249 0 min 0,000 mm 0,0 UV-I 66 W/m 2,4 C -0,9 C 22,5 km/h (4 Bft) 100,00 %
24.02.2017 16:18 5,4 C 81 % 1009,8 hPa 0,0 l/m 21,0 km/h (4 Bft) W-SW 238 0 min 0,000 mm 0,0 UV-I 66 W/m 2,4 C -3,0 C 32,2 km/h (5 Bft) 100,00 %
24.02.2017 16:19 5,3 C 81 % 1009,8 hPa 0,0 l/m 19,6 km/h (3 Bft) SW 236 0 min 0,000 mm 0,0 UV-I 62 W/m 2,3 C -2,6 C 29,0 km/h (5 Bft) 100,00 %
24.02.2017 16:20 5,3 C 81 % 1009,9 hPa 0,0 l/m 20,6 km/h (4 Bft) W-SW 241 0 min 0,000 mm 0,0 UV-I 59 W/m 2,3 C -3,0 C 29,0 km/h (5 Bft) 100,00 %
24.02.2017 16:21 5,3 C 81 % 1009,9 hPa 0,0 l/m 27,9 km/h (4 Bft) SW 231 0 min 0,000 mm 0,0 UV-I 60 W/m 2,3 C -5,4 C 33,8 km/h (5 Bft) 91,30 %
24.02.2017 16:22 5,2 C 81 % 1010,0 hPa 0,0 l/m 16,8 km/h (3 Bft) W-SW 245 1 min 0,000 mm 0,0 UV-I 112 W/m 2,2 C -1,6 C 22,5 km/h (4 Bft) 100,00 %
24.02.2017 16:23 5,2 C 81 % 1010,0 hPa 0,0 l/m 21,1 km/h (4 Bft) SW 222 1 min 0,000 mm 0,0 UV-I 146 W/m 2,2 C -3,3 C 29,0 km/h (5 Bft) 100,00 %
24.02.2017 16:24 5,2 C 81 % 1010,0 hPa 0,0 l/m 22,5 km/h (4 Bft) S-SW 207 1 min 0,000 mm 0,0 UV-I 172 W/m 2,2 C -3,8 C 29,0 km/h (5 Bft) 100,00 %
24.02.2017 16:25 5,2 C 81 % 1010,1 hPa 0,0 l/m 18,4 km/h (3 Bft) W-SW 238 1 min 0,000 mm 0,0 UV-I 162 W/m 2,2 C -2,3 C 24,1 km/h (4 Bft) 95,65 %
24.02.2017 16:26 5,2 C 81 % 1010,1 hPa 0,0 l/m 19,2 km/h (3 Bft) W-SW 243 0 min 0,000 mm 0,0 UV-I 91 W/m 2,2 C -2,6 C 24,1 km/h (4 Bft) 95,83 %
24.02.2017 16:27 5,2 C 81 % 1010,1 hPa 0,0 l/m 20,9 km/h (4 Bft) W-SW 244 0 min 0,000 mm 0,0 UV-I 54 W/m 2,2 C -3,3 C 25,7 km/h (4 Bft) 100,00 %
24.02.2017 16:28 5,2 C 81 % 1010,1 hPa 0,0 l/m 16,8 km/h (3 Bft) SW 234 0 min 0,000 mm 0,0 UV-I 51 W/m 2,2 C -1,6 C 25,7 km/h (4 Bft) 100,00 %
24.02.2017 16:29 5,2 C 81 % 1010,1 hPa 0,0 l/m 23,7 km/h (4 Bft) SW 234 0 min 0,000 mm 0,0 UV-I 52 W/m 2,2 C -4,3 C 30,6 km/h (5 Bft) 95,65 %
24.02.2017 16:30 5,2 C 81 % 1010,1 hPa 0,0 l/m 24,9 km/h (4 Bft) W 260 0 min 0,000 mm 0,0 UV-I 53 W/m 2,2 C -4,6 C 32,2 km/h (5 Bft) 95,83 %
24.02.2017 16:31 5,2 C 80 % 1010,1 hPa 0,0 l/m 20,2 km/h (4 Bft) SW 227 0 min 0,000 mm 0,0 UV-I 53 W/m 2,0 C -3,0 C 27,4 km/h (4 Bft) 95,83 %
24.02.2017 16:32 5,1 C 80 % 1010,2 hPa 0,0 l/m 21,3 km/h (4 Bft) W-SW 252 0 min 0,000 mm 0,0 UV-I 52 W/m 1,9 C -3,5 C 32,2 km/h (5 Bft) 91,30 %
24.02.2017 16:33 5,1 C 80 % 1010,2 hPa 0,0 l/m 15,4 km/h (3 Bft) SW 225 0 min 0,000 mm 0,0 UV-I 51 W/m 1,9 C -1,0 C 19,3 km/h (3 Bft) 91,67 %
24.02.2017 16:34 5,1 C 80 % 1010,3 hPa 0,0 l/m 15,2 km/h (3 Bft) W-SW 237 0 min 0,000 mm 0,0 UV-I 49 W/m 1,9 C -0,9 C 20,9 km/h (4 Bft) 100,00 %
24.02.2017 16:35 5,1 C 81 % 1010,3 hPa 0,0 l/m 19,4 km/h (3 Bft) SW 230 0 min 0,000 mm 0,0 UV-I 48 W/m 2,1 C -2,8 C 27,4 km/h (4 Bft) 91,67 %
24.02.2017 16:36 5,1 C 81 % 1010,2 hPa 0,0 l/m 20,6 km/h (4 Bft) W-SW 240 0 min 0,000 mm 0,0 UV-I 48 W/m 2,1 C -3,3 C 27,4 km/h (4 Bft) 95,65 %
24.02.2017 16:37 5,0 C 81 % 1010,3 hPa 0,0 l/m 13,5 km/h (3 Bft) S-SW 192 0 min 0,000 mm 0,0 UV-I 58 W/m 2,0 C -0,1 C 17,7 km/h (3 Bft) 87,50 %
24.02.2017 16:38 5,0 C 81 % 1010,3 hPa 0,0 l/m 19,4 km/h (3 Bft) W-SW 244 0 min 0,000 mm 0,0 UV-I 54 W/m 2,0 C -2,9 C 32,2 km/h (5 Bft) 100,00 %
24.02.2017 16:39 5,0 C 81 % 1010,3 hPa 0,0 l/m 17,9 km/h (3 Bft) W-SW 254 0 min 0,000 mm 0,0 UV-I 53 W/m 2,0 C -2,3 C 24,1 km/h (4 Bft) 91,67 %
24.02.2017 16:40 5,0 C 81 % 1010,3 hPa 0,0 l/m 21,6 km/h (4 Bft) SW 225 0 min 0,000 mm 0,0 UV-I 52 W/m 2,0 C -3,8 C 33,8 km/h (5 Bft) 95,65 %
24.02.2017 16:41 4,9 C 81 % 1010,3 hPa 0,0 l/m 13,1 km/h (3 Bft) W-SW 239 0 min 0,000 mm 0,0 UV-I 53 W/m 1,9 C -0,0 C 20,9 km/h (4 Bft) 85,00 %
24.02.2017 16:42 4,9 C 81 % 1010,2 hPa 0,0 l/m 23,2 km/h (4 Bft) W-SW 257 0 min 0,000 mm 0,0 UV-I 53 W/m 1,9 C -4,5 C 30,6 km/h (5 Bft) 86,96 %
24.02.2017 16:43 4,9 C 81 % 1010,3 hPa 0,0 l/m 17,1 km/h (3 Bft) SW 231 0 min 0,000 mm 0,0 UV-I 54 W/m 1,9 C -2,1 C 22,5 km/h (4 Bft) 87,50 %
24.02.2017 16:44 4,9 C 81 % 1010,4 hPa 0,0 l/m 17,6 km/h (3 Bft) W-SW 244 0 min 0,000 mm 0,0 UV-I 58 W/m 1,9 C -2,3 C 24,1 km/h (4 Bft) 100,00 %
24.02.2017 16:45 4,9 C 81 % 1010,3 hPa 0,0 l/m 18,4 km/h (3 Bft) W-SW 238 0 min 0,000 mm 0,0 UV-I 60 W/m 1,9 C -2,6 C 25,7 km/h (4 Bft) 93,10 %
24.02.2017 16:46 4,9 C 81 % 1010,3 hPa 0,0 l/m 15,4 km/h (3 Bft) W 262 0 min 0,000 mm 0,0 UV-I 62 W/m 1,9 C -1,2 C 22,5 km/h (4 Bft) 100,00 %
24.02.2017 16:47 4,9 C 81 % 1010,3 hPa 0,0 l/m 16,1 km/h (3 Bft) W-SW 241 0 min 0,000 mm 0,0 UV-I 70 W/m 1,9 C -1,6 C 24,1 km/h (4 Bft) 95,83 %
24.02.2017 16:48 4,9 C 81 % 1010,3 hPa 0,0 l/m 16,8 km/h (3 Bft) W-SW 238 1 min 0,000 mm 0,0 UV-I 74 W/m 1,9 C -1,9 C 22,5 km/h (4 Bft) 100,00 %
24.02.2017 16:49 4,9 C 81 % 1010,3 hPa 0,0 l/m 17,5 km/h (3 Bft) W-SW 243 1 min 0,000 mm 0,0 UV-I 92 W/m 1,9 C -2,2 C 24,1 km/h (4 Bft) 92,31 %
24.02.2017 16:50 4,9 C 81 % 1010,4 hPa 0,0 l/m 23,4 km/h (4 Bft) SW 231 1 min 0,000 mm 0,0 UV-I 94 W/m 1,9 C -4,6 C 32,2 km/h (5 Bft) 91,67 %
24.02.2017 16:51 5,0 C 81 % 1010,4 hPa 0,0 l/m 19,7 km/h (3 Bft) W-SW 242 1 min 0,000 mm 0,0 UV-I 80 W/m 2,0 C -3,1 C 32,2 km/h (5 Bft) 96,55 %
24.02.2017 16:52 5,0 C 81 % 1010,4 hPa 0,0 l/m 18,6 km/h (3 Bft) SW 214 1 min 0,000 mm 0,0 UV-I 89 W/m 2,0 C -2,6 C 25,7 km/h (4 Bft) 96,67 %
24.02.2017 16:53 5,0 C 81 % 1010,4 hPa 0,0 l/m 13,1 km/h (3 Bft) SW 235 1 min 0,000 mm 0,0 UV-I 95 W/m 2,0 C 0,1 C 22,5 km/h (4 Bft) 96,55 %
24.02.2017 16:54 5,1 C 81 % 1010,4 hPa 0,0 l/m 15,4 km/h (3 Bft) W-SW 248 1 min 0,000 mm 0,0 UV-I 90 W/m 2,1 C -1,0 C 22,5 km/h (4 Bft) 91,30 %
24.02.2017 16:55 5,1 C 81 % 1010,5 hPa 0,0 l/m 16,1 km/h (3 Bft) SW 234 1 min 0,000 mm 0,0 UV-I 80 W/m 2,1 C -1,3 C 24,1 km/h (4 Bft) 100,00 %
24.02.2017 16:56 5,1 C 81 % 1010,4 hPa 0,0 l/m 16,8 km/h (3 Bft) SW 221 1 min 0,000 mm 0,0 UV-I 83 W/m 2,1 C -1,7 C 25,7 km/h (4 Bft) 96,30 %
24.02.2017 16:57 5,1 C 81 % 1010,5 hPa 0,0 l/m 24,5 km/h (4 Bft) SW 232 0 min 0,000 mm 0,0 UV-I 52 W/m 2,1 C -4,6 C 33,8 km/h (5 Bft) 96,15 %
24.02.2017 16:58 5,1 C 81 % 1010,5 hPa 0,0 l/m 21,0 km/h (4 Bft) SW 229 0 min 0,000 mm 0,0 UV-I 51 W/m 2,1 C -3,4 C 29,0 km/h (5 Bft) 95,83 %
24.02.2017 16:59 5,0 C 81 % 1010,5 hPa 0,0 l/m 12,7 km/h (3 Bft) S-SW 212 1 min 0,000 mm 0,0 UV-I 66 W/m 2,0 C 0,3 C 22,5 km/h (4 Bft) 95,65 %
24.02.2017 17:00 5,0 C 81 % 1010,5 hPa 0,0 l/m 20,1 km/h (4 Bft) SW 232 1 min 0,000 mm 0,0 UV-I 75 W/m 2,0 C -3,2 C 29,0 km/h (5 Bft) 100,00 %
24.02.2017 17:01 5,0 C 81 % 1010,5 hPa 0,0 l/m 23,1 km/h (4 Bft) SW 235 1 min 0,076 mm 0,0 UV-I 83 W/m 2,0 C -4,3 C 35,4 km/h (5 Bft) 95,65 %
24.02.2017 17:02 5,0 C 81 % 1010,5 hPa 0,0 l/m 25,3 km/h (4 Bft) SW 228 1 min 0,000 mm 0,0 UV-I 84 W/m 2,0 C -5,0 C 35,4 km/h (5 Bft) 95,83 %
24.02.2017 17:03 5,0 C 80 % 1010,5 hPa 0,0 l/m 22,9 km/h (4 Bft) W-SW 249 1 min 0,000 mm 0,0 UV-I 83 W/m 1,8 C -4,2 C 33,8 km/h (5 Bft) 95,65 %
24.02.2017 17:04 5,0 C 80 % 1010,5 hPa 0,0 l/m 17,1 km/h (3 Bft) W-SW 237 1 min 0,000 mm 0,0 UV-I 77 W/m 1,8 C -1,9 C 25,7 km/h (4 Bft) 100,00 %
24.02.2017 17:05 5,0 C 80 % 1010,5 hPa 0,0 l/m 22,1 km/h (4 Bft) W-SW 247 1 min 0,000 mm 0,0 UV-I 74 W/m 1,8 C -4,0 C 32,2 km/h (5 Bft) 89,66 %
24.02.2017 17:07 4,9 C 81 % 1010,5 hPa 0,0 l/m 23,5 km/h (4 Bft) S-SW 213 2 min 0,000 mm 0,0 UV-I 69 W/m 1,9 C -4,6 C 37,0 km/h (5 Bft) 97,56 %
24.02.2017 17:08 4,9 C 81 % 1010,5 hPa 0,0 l/m 28,5 km/h (4 Bft) SW 227 1 min 0,000 mm 0,0 UV-I 67 W/m 1,9 C -6,1 C 37,0 km/h (5 Bft) 92,59 %
24.02.2017 17:09 4,9 C 80 % 1010,5 hPa 0,0 l/m 25,7 km/h (4 Bft) SW 221 1 min 0,000 mm 0,0 UV-I 63 W/m 1,7 C -5,3 C 37,0 km/h (5 Bft) 100,00 %
24.02.2017 17:10 4,9 C 80 % 1010,6 hPa 0,0 l/m 24,8 km/h (4 Bft) SW 230 1 min 0,000 mm 0,0 UV-I 60 W/m 1,7 C -5,0 C 30,6 km/h (5 Bft) 89,29 %
24.02.2017 17:11 4,9 C 80 % 1010,6 hPa 0,0 l/m 22,6 km/h (4 Bft) SW 225 1 min 0,000 mm 0,0 UV-I 58 W/m 1,7 C -4,3 C 30,6 km/h (5 Bft) 93,10 %
24.02.2017 17:12 4,9 C 80 % 1010,6 hPa 0,0 l/m 23,6 km/h (4 Bft) W-SW 239 1 min 0,000 mm 0,0 UV-I 57 W/m 1,7 C -4,6 C 32,2 km/h (5 Bft) 92,59 %
24.02.2017 17:13 4,8 C 80 % 1010,7 hPa 0,0 l/m 26,7 km/h (4 Bft) W-SW 240 1 min 0,000 mm 0,0 UV-I 54 W/m 1,6 C -5,7 C 38,6 km/h (5 Bft) 100,00 %
24.02.2017 17:14 4,8 C 80 % 1010,7 hPa 0,0 l/m 19,8 km/h (3 Bft) S-SW 207 1 min 0,000 mm 0,0 UV-I 51 W/m 1,6 C -3,4 C 25,7 km/h (4 Bft) 96,15 %
24.02.2017 17:15 4,8 C 81 % 1010,7 hPa 0,0 l/m 23,6 km/h (4 Bft) SW 221 1 min 0,000 mm 0,0 UV-I 49 W/m 1,8 C -4,8 C 35,4 km/h (5 Bft) 95,83 %
24.02.2017 17:16 4,8 C 81 % 1010,8 hPa 0,0 l/m 27,1 km/h (4 Bft) SW 225 1 min 0,000 mm 0,0 UV-I 47 W/m 1,8 C -5,9 C 35,4 km/h (5 Bft) 86,96 %
24.02.2017 17:17 4,8 C 81 % 1010,8 hPa 0,0 l/m 27,2 km/h (4 Bft) W-SW 237 1 min 0,000 mm 0,0 UV-I 44 W/m 1,8 C -5,9 C 37,0 km/h (5 Bft) 95,83 %
24.02.2017 17:18 4,8 C 80 % 1010,8 hPa 0,0 l/m 22,1 km/h (4 Bft) SW 236 1 min 0,000 mm 0,0 UV-I 42 W/m 1,6 C -4,2 C 32,2 km/h (5 Bft) 95,65 %
24.02.2017 17:19 4,8 C 80 % 1010,8 hPa 0,0 l/m 17,0 km/h (3 Bft) SW 236 1 min 0,000 mm 0,0 UV-I 40 W/m 1,6 C -2,1 C 38,6 km/h (5 Bft) 100,00 %
24.02.2017 17:20 4,8 C 81 % 1010,8 hPa 0,0 l/m 30,8 km/h (5 Bft) SW 215 1 min 0,000 mm 0,0 UV-I 33 W/m 1,8 C -6,9 C 43,5 km/h (6 Bft) 95,65 %
24.02.2017 17:21 4,8 C 81 % 1010,8 hPa 0,0 l/m 22,3 km/h (4 Bft) W-SW 246 1 min 0,000 mm 0,0 UV-I 25 W/m 1,8 C -4,3 C 33,8 km/h (5 Bft) 100,00 %
24.02.2017 17:22 4,7 C 81 % 1010,8 hPa 0,0 l/m 20,6 km/h (4 Bft) W 261 0 min 0,000 mm 0,0 UV-I 20 W/m 1,7 C -3,8 C 32,2 km/h (5 Bft) 95,65 %
24.02.2017 17:23 4,7 C 81 % 1010,9 hPa 0,0 l/m 17,4 km/h (3 Bft) SW 229 0 min 0,000 mm 0,0 UV-I 18 W/m 1,7 C -2,5 C 24,1 km/h (4 Bft) 95,83 %
24.02.2017 17:24 4,7 C 81 % 1010,9 hPa 0,0 l/m 23,5 km/h (4 Bft) W-SW 244 0 min 0,000 mm 0,0 UV-I 17 W/m 1,7 C -4,9 C 35,4 km/h (5 Bft) 95,65 %
24.02.2017 17:25 4,7 C 81 % 1010,9 hPa 0,0 l/m 26,0 km/h (4 Bft) SW 234 1 min 0,000 mm 0,0 UV-I 16 W/m 1,7 C -5,7 C 37,0 km/h (5 Bft) 100,00 %
24.02.2017 17:26 4,7 C 81 % 1010,9 hPa 0,0 l/m 20,1 km/h (4 Bft) SW 224 0 min 0,000 mm 0,0 UV-I 14 W/m 1,7 C -3,6 C 30,6 km/h (5 Bft) 95,65 %
24.02.2017 17:27 4,7 C 81 % 1010,9 hPa 0,0 l/m 20,2 km/h (4 Bft) SW 232 0 min 0,000 mm 0,0 UV-I 12 W/m 1,7 C -3,6 C 27,4 km/h (4 Bft) 100,00 %
24.02.2017 17:28 4,7 C 81 % 1011,0 hPa 0,0 l/m 27,8 km/h (4 Bft) S-SW 204 0 min 0,000 mm 0,0 UV-I 11 W/m 1,7 C -6,2 C 35,4 km/h (5 Bft) 95,65 %
24.02.2017 17:29 4,7 C 81 % 1011,0 hPa 0,0 l/m 27,9 km/h (4 Bft) W-SW 248 1 min 0,000 mm 0,0 UV-I 11 W/m 1,7 C -6,2 C 35,4 km/h (5 Bft) 95,83 %
24.02.2017 17:30 4,7 C 81 % 1011,0 hPa 0,0 l/m 24,7 km/h (4 Bft) W-SW 252 0 min 0,000 mm 0,0 UV-I 10 W/m 1,7 C -5,3 C 35,4 km/h (5 Bft) 95,83 %
24.02.2017 17:31 4,6 C 81 % 1011,1 hPa 0,0 l/m 18,9 km/h (3 Bft) W-SW 257 0 min 0,000 mm 0,0 UV-I 9 W/m 1,6 C -3,2 C 25,7 km/h (4 Bft) 100,00 %
24.02.2017 17:32 4,6 C 81 % 1011,1 hPa 0,0 l/m 17,5 km/h (3 Bft) SW 236 0 min 0,000 mm 0,0 UV-I 9 W/m 1,6 C -2,6 C 29,0 km/h (5 Bft) 100,00 %
24.02.2017 17:33 4,6 C 81 % 1011,1 hPa 0,0 l/m 16,0 km/h (3 Bft) W-SW 250 0 min 0,000 mm 0,0 UV-I 9 W/m 1,6 C -1,9 C 24,1 km/h (4 Bft) 95,65 %
24.02.2017 17:34 4,6 C 82 % 1011,1 hPa 0,0 l/m 21,0 km/h (4 Bft) W 266 0 min 0,000 mm 0,0 UV-I 9 W/m 1,8 C -4,1 C 32,2 km/h (5 Bft) 100,00 %
24.02.2017 17:35 4,6 C 82 % 1011,2 hPa 0,0 l/m 19,9 km/h (4 Bft) W-SW 255 0 min 0,000 mm 0,0 UV-I 9 W/m 1,8 C -3,6 C 25,7 km/h (4 Bft) 100,00 %
24.02.2017 17:36 4,6 C 82 % 1011,2 hPa 0,0 l/m 20,5 km/h (4 Bft) W-SW 247 0 min 0,000 mm 0,0 UV-I 9 W/m 1,8 C -3,9 C 29,0 km/h (5 Bft) 100,00 %
24.02.2017 17:37 4,5 C 82 % 1011,3 hPa 0,0 l/m 16,8 km/h (3 Bft) W-SW 237 0 min 0,000 mm 0,0 UV-I 9 W/m 1,7 C -2,4 C 22,5 km/h (4 Bft) 95,65 %
24.02.2017 17:38 4,5 C 82 % 1011,3 hPa 0,0 l/m 15,3 km/h (3 Bft) W-SW 250 0 min 0,000 mm 0,0 UV-I 7 W/m 1,7 C -1,7 C 22,5 km/h (4 Bft) 100,00 %
24.02.2017 17:39 4,4 C 82 % 1011,3 hPa 0,0 l/m 11,8 km/h (2 Bft) SW 224 0 min 0,000 mm 0,0 UV-I 7 W/m 1,6 C 0,2 C 17,7 km/h (3 Bft) 100,00 %
24.02.2017 17:40 4,4 C 82 % 1011,4 hPa 0,0 l/m 16,4 km/h (3 Bft) W-SW 238 0 min 0,000 mm 0,0 UV-I 7 W/m 1,6 C -2,4 C 24,1 km/h (4 Bft) 91,67 %
24.02.2017 17:41 4,4 C 82 % 1011,4 hPa 0,0 l/m 15,3 km/h (3 Bft) W-SW 246 0 min 0,000 mm 0,0 UV-I 7 W/m 1,6 C -1,8 C 17,7 km/h (3 Bft) 100,00 %
24.02.2017 17:42 4,4 C 82 % 1011,5 hPa 0,0 l/m 17,2 km/h (3 Bft) W-SW 239 0 min 0,000 mm 0,0 UV-I 7 W/m 1,6 C -2,7 C 22,5 km/h (4 Bft) 100,00 %
24.02.2017 17:43 4,4 C 82 % 1011,4 hPa 0,0 l/m 20,1 km/h (4 Bft) W 268 0 min 0,000 mm 0,0 UV-I 7 W/m 1,6 C -4,0 C 24,1 km/h (4 Bft) 100,00 %
24.02.2017 17:44 4,4 C 82 % 1011,4 hPa 0,0 l/m 15,9 km/h (3 Bft) W-SW 249 0 min 0,000 mm 0,0 UV-I 7 W/m 1,6 C -2,1 C 22,5 km/h (4 Bft) 91,67 %
24.02.2017 17:45 4,3 C 82 % 1011,5 hPa 0,0 l/m 14,1 km/h (3 Bft) S-SW 210 0 min 0,000 mm 0,0 UV-I 7 W/m 1,5 C -1,3 C 17,7 km/h (3 Bft) 95,65 %
24.02.2017 17:46 4,3 C 82 % 1011,5 hPa 0,0 l/m 17,0 km/h (3 Bft) SW 236 0 min 0,000 mm 0,0 UV-I 7 W/m 1,5 C -2,8 C 22,5 km/h (4 Bft) 83,33 %
24.02.2017 17:47 4,3 C 82 % 1011,5 hPa 0,0 l/m 22,1 km/h (4 Bft) W-SW 252 0 min 0,000 mm 0,0 UV-I 7 W/m 1,5 C -4,9 C 32,2 km/h (5 Bft) 95,65 %
24.02.2017 17:48 4,3 C 82 % 1011,5 hPa 0,0 l/m 21,8 km/h (4 Bft) W-SW 241 0 min 0,000 mm 0,0 UV-I 6 W/m 1,5 C -4,8 C 32,2 km/h (5 Bft) 95,83 %
24.02.2017 17:49 4,3 C 82 % 1011,6 hPa 0,0 l/m 19,2 km/h (3 Bft) W-SW 237 0 min 0,000 mm 0,0 UV-I 5 W/m 1,5 C -3,7 C 29,0 km/h (5 Bft) 100,00 %
24.02.2017 17:50 4,3 C 82 % 1011,6 hPa 0,0 l/m 15,7 km/h (3 Bft) W-SW 244 0 min 0,000 mm 0,0 UV-I 5 W/m 1,5 C -2,1 C 24,1 km/h (4 Bft) 91,67 %
24.02.2017 17:51 4,3 C 82 % 1011,5 hPa 0,0 l/m 22,1 km/h (4 Bft) S-SW 213 0 min 0,000 mm 0,0 UV-I 5 W/m 1,5 C -4,9 C 30,6 km/h (5 Bft) 86,96 %
24.02.2017 17:52 4,3 C 82 % 1011,7 hPa 0,0 l/m 17,6 km/h (3 Bft) W-SW 242 0 min 0,000 mm 0,0 UV-I 2 W/m 1,5 C -3,0 C 24,1 km/h (4 Bft) 93,33 %
24.02.2017 17:53 4,3 C 82 % 1011,7 hPa 0,0 l/m 16,6 km/h (3 Bft) W-SW 239 0 min 0,000 mm 0,0 UV-I 0 W/m 1,5 C -2,6 C 25,7 km/h (4 Bft) 100,00 %
24.02.2017 17:54 4,3 C 82 % 1011,8 hPa 0,0 l/m 14,1 km/h (3 Bft) W-SW 252 0 min 0,000 mm 0,0 UV-I 0 W/m 1,5 C -1,3 C 19,3 km/h (3 Bft) 91,30 %
24.02.2017 17:55 4,3 C 82 % 1011,8 hPa 0,0 l/m 12,1 km/h (2 Bft) W-SW 242 0 min 0,000 mm 0,0 UV-I 0 W/m 1,5 C -0,1 C 19,3 km/h (3 Bft) 95,83 %
24.02.2017 17:56 4,3 C 82 % 1011,9 hPa 0,0 l/m 19,4 km/h (3 Bft) SW 236 0 min 0,000 mm 0,0 UV-I 0 W/m 1,5 C -3,8 C 33,8 km/h (5 Bft) 100,00 %
24.02.2017 17:57 4,3 C 83 % 1011,9 hPa 0,0 l/m 23,7 km/h (4 Bft) SW 226 0 min 0,000 mm 0,0 UV-I 0 W/m 1,7 C -5,5 C 30,6 km/h (5 Bft) 100,00 %
24.02.2017 17:58 4,3 C 83 % 1011,9 hPa 0,0 l/m 22,0 km/h (4 Bft) W-SW 247 0 min 0,000 mm 0,0 UV-I 0 W/m 1,7 C -4,9 C 27,4 km/h (4 Bft) 100,00 %
24.02.2017 17:59 4,3 C 82 % 1011,9 hPa 0,0 l/m 20,3 km/h (4 Bft) W-SW 254 0 min 0,000 mm 0,0 UV-I 0 W/m 1,5 C -4,2 C 24,1 km/h (4 Bft) 91,67 %
24.02.2017 18:00 4,3 C 82 % 1011,9 hPa 0,0 l/m 20,4 km/h (4 Bft) W 263 0 min 0,000 mm 0,0 UV-I 0 W/m 1,5 C -4,2 C 29,0 km/h (5 Bft) 92,31 %
24.02.2017 18:01 4,3 C 82 % 1011,9 hPa 0,0 l/m 17,6 km/h (3 Bft) W-SW 248 0 min 0,051 mm 0,0 UV-I 0 W/m 1,5 C -3,0 C 24,1 km/h (4 Bft) 96,30 %
24.02.2017 18:02 4,3 C 82 % 1011,9 hPa 0,0 l/m 20,6 km/h (4 Bft) W-SW 240 0 min 0,000 mm 0,0 UV-I 0 W/m 1,5 C -4,3 C 33,8 km/h (5 Bft) 100,00 %
24.02.2017 18:03 4,3 C 82 % 1011,9 hPa 0,0 l/m 23,1 km/h (4 Bft) W-SW 248 0 min 0,000 mm 0,0 UV-I 0 W/m 1,5 C -5,2 C 32,2 km/h (5 Bft) 91,67 %
24.02.2017 18:04 4,3 C 82 % 1012,0 hPa 0,0 l/m 20,0 km/h (4 Bft) W-SW 257 0 min 0,000 mm 0,0 UV-I 0 W/m 1,5 C -4,1 C 27,4 km/h (4 Bft) 91,30 %
24.02.2017 18:05 4,3 C 82 % 1012,0 hPa 0,0 l/m 18,1 km/h (3 Bft) W-SW 251 0 min 0,000 mm 0,0 UV-I 0 W/m 1,5 C -3,3 C 25,7 km/h (4 Bft) 95,83 %
24.02.2017 18:06 4,3 C 82 % 1012,1 hPa 0,0 l/m 21,1 km/h (4 Bft) SW 220 0 min 0,000 mm 0,0 UV-I 0 W/m 1,5 C -4,5 C 24,1 km/h (4 Bft) 92,31 %
24.02.2017 18:07 4,3 C 82 % 1012,1 hPa 0,0 l/m 15,4 km/h (3 Bft) SW 231 0 min 0,000 mm 0,0 UV-I 0 W/m 1,5 C -2,0 C 17,7 km/h (3 Bft) 95,83 %
24.02.2017 18:08 4,3 C 82 % 1012,1 hPa 0,0 l/m 15,9 km/h (3 Bft) SW 230 0 min 0,000 mm 0,0 UV-I 0 W/m 1,5 C -2,2 C 22,5 km/h (4 Bft) 100,00 %
24.02.2017 18:09 4,3 C 82 % 1012,1 hPa 0,0 l/m 15,5 km/h (3 Bft) W-SW 242 0 min 0,000 mm 0,0 UV-I 0 W/m 1,5 C -2,0 C 20,9 km/h (4 Bft) 95,65 %
24.02.2017 18:10 4,3 C 82 % 1012,2 hPa 0,0 l/m 14,2 km/h (3 Bft) S 188 0 min 0,000 mm 0,0 UV-I 0 W/m 1,5 C -1,3 C 17,7 km/h (3 Bft) 100,00 %
24.02.2017 18:11 4,3 C 82 % 1012,3 hPa 0,0 l/m 21,2 km/h (4 Bft) SW 215 0 min 0,000 mm 0,0 UV-I 0 W/m 1,5 C -4,6 C 25,7 km/h (4 Bft) 100,00 %
24.02.2017 18:12 4,2 C 81 % 1012,3 hPa 0,0 l/m 14,5 km/h (3 Bft) SW 221 0 min 0,000 mm 0,0 UV-I 0 W/m 1,2 C -1,6 C 19,3 km/h (3 Bft) 91,67 %
24.02.2017 18:13 4,2 C 81 % 1012,3 hPa 0,0 l/m 16,4 km/h (3 Bft) SW 234 0 min 0,000 mm 0,0 UV-I 0 W/m 1,2 C -2,6 C 22,5 km/h (4 Bft) 95,65 %
24.02.2017 18:14 4,2 C 82 % 1012,3 hPa 0,0 l/m 19,6 km/h (3 Bft) SW 223 0 min 0,000 mm 0,0 UV-I 0 W/m 1,4 C -4,0 C 29,0 km/h (5 Bft) 91,67 %
24.02.2017 18:15 4,2 C 82 % 1012,3 hPa 0,0 l/m 17,4 km/h (3 Bft) W-SW 251 0 min 0,000 mm 0,0 UV-I 0 W/m 1,4 C -3,1 C 25,7 km/h (4 Bft) 95,65 %
24.02.2017 18:16 4,2 C 82 % 1012,3 hPa 0,0 l/m 15,0 km/h (3 Bft) SW 232 0 min 0,000 mm 0,0 UV-I 0 W/m 1,4 C -1,9 C 22,5 km/h (4 Bft) 95,83 %
24.02.2017 18:17 4,2 C 82 % 1012,5 hPa 0,0 l/m 17,7 km/h (3 Bft) W-SW 257 0 min 0,000 mm 0,0 UV-I 0 W/m 1,4 C -3,2 C 27,4 km/h (4 Bft) 100,00 %
24.02.2017 18:18 4,2 C 82 % 1012,4 hPa 0,0 l/m 20,8 km/h (4 Bft) W-SW 237 0 min 0,000 mm 0,0 UV-I 0 W/m 1,4 C -4,5 C 27,4 km/h (4 Bft) 95,83 %
24.02.2017 18:19 4,2 C 82 % 1012,4 hPa 0,0 l/m 18,0 km/h (3 Bft) SW 232 0 min 0,000 mm 0,0 UV-I 0 W/m 1,4 C -3,4 C 24,1 km/h (4 Bft) 91,30 %
24.02.2017 18:20 4,2 C 81 % 1012,5 hPa 0,0 l/m 15,6 km/h (3 Bft) SW 219 0 min 0,000 mm 0,0 UV-I 0 W/m 1,2 C -2,2 C 22,5 km/h (4 Bft) 95,83 %
24.02.2017 18:21 4,2 C 81 % 1012,5 hPa 0,0 l/m 20,0 km/h (4 Bft) SW 214 0 min 0,000 mm 0,0 UV-I 0 W/m 1,2 C -4,2 C 29,0 km/h (5 Bft) 95,65 %
24.02.2017 18:22 4,1 C 82 % 1012,5 hPa 0,0 l/m 24,0 km/h (4 Bft) SW 223 0 min 0,000 mm 0,0 UV-I 0 W/m 1,3 C -5,8 C 32,2 km/h (5 Bft) 100,00 %
24.02.2017 18:23 4,1 C 81 % 1012,5 hPa 0,0 l/m 17,2 km/h (3 Bft) SW 225 0 min 0,000 mm 0,0 UV-I 0 W/m 1,1 C -3,1 C 29,0 km/h (5 Bft) 95,65 %
24.02.2017 18:24 4,1 C 81 % 1012,5 hPa 0,0 l/m 21,9 km/h (4 Bft) SW 230 0 min 0,000 mm 0,0 UV-I 0 W/m 1,1 C -5,1 C 29,0 km/h (5 Bft) 100,00 %
24.02.2017 18:25 4,1 C 81 % 1012,5 hPa 0,0 l/m 18,3 km/h (3 Bft) S-SW 209 0 min 0,000 mm 0,0 UV-I 0 W/m 1,1 C -3,6 C 24,1 km/h (4 Bft) 100,00 %
24.02.2017 18:26 4,1 C 82 % 1012,7 hPa 0,0 l/m 19,4 km/h (3 Bft) W-SW 250 0 min 0,000 mm 0,0 UV-I 0 W/m 1,3 C -4,1 C 27,4 km/h (4 Bft) 92,59 %
24.02.2017 18:27 4,1 C 82 % 1012,7 hPa 0,0 l/m 19,3 km/h (3 Bft) SW 221 0 min 0,000 mm 0,0 UV-I 0 W/m 1,3 C -4,0 C 29,0 km/h (5 Bft) 95,65 %
24.02.2017 18:28 4,1 C 82 % 1012,7 hPa 0,0 l/m 20,5 km/h (4 Bft) W-SW 239 0 min 0,000 mm 0,0 UV-I 0 W/m 1,3 C -4,5 C 25,7 km/h (4 Bft) 95,83 %
24.02.2017 18:30 4,0 C 82 % 1012,7 hPa 0,0 l/m 19,4 km/h (3 Bft) SW 230 0 min 0,000 mm 0,0 UV-I 0 W/m 1,2 C -4,2 C 24,1 km/h (4 Bft) 100,00 %
24.02.2017 18:32 4,0 C 82 % 1012,7 hPa 0,0 l/m 18,3 km/h (3 Bft) SW 232 0 min 0,000 mm 0,0 UV-I 0 W/m 1,2 C -3,7 C 30,6 km/h (5 Bft) 92,45 %
24.02.2017 18:34 3,9 C 82 % 1012,8 hPa 0,0 l/m 17,9 km/h (3 Bft) W-SW 250 0 min 0,000 mm 0,0 UV-I 0 W/m 1,1 C -3,7 C 29,0 km/h (5 Bft) 94,00 %
24.02.2017 18:36 3,9 C 82 % 1012,8 hPa 0,0 l/m 17,5 km/h (3 Bft) W-SW 239 0 min 0,000 mm 0,0 UV-I 0 W/m 1,1 C -3,5 C 25,7 km/h (4 Bft) 100,00 %
24.02.2017 18:38 3,9 C 82 % 1012,9 hPa 0,0 l/m 16,6 km/h (3 Bft) W-SW 238 0 min 0,000 mm 0,0 UV-I 0 W/m 1,1 C -3,1 C 25,7 km/h (4 Bft) 92,45 %
24.02.2017 18:40 3,9 C 82 % 1013,0 hPa 0,0 l/m 17,4 km/h (3 Bft) W-SW 239 0 min 0,000 mm 0,0 UV-I 0 W/m 1,1 C -3,5 C 24,1 km/h (4 Bft) 92,68 %
24.02.2017 18:42 3,8 C 82 % 1013,0 hPa 0,0 l/m 15,1 km/h (3 Bft) SW 221 0 min 0,000 mm 0,0 UV-I 0 W/m 1,0 C -2,4 C 20,9 km/h (4 Bft) 98,11 %
24.02.2017 18:44 3,8 C 82 % 1013,1 hPa 0,0 l/m 18,0 km/h (3 Bft) SW 227 0 min 0,000 mm 0,0 UV-I 0 W/m 1,0 C -3,9 C 25,7 km/h (4 Bft) 94,74 %
24.02.2017 18:46 3,8 C 82 % 1013,2 hPa 0,0 l/m 18,4 km/h (3 Bft) W-SW 250 0 min 0,000 mm 0,0 UV-I 0 W/m 1,0 C -4,0 C 25,7 km/h (4 Bft) 100,00 %
24.02.2017 18:48 3,8 C 82 % 1013,2 hPa 0,0 l/m 13,0 km/h (3 Bft) SW 217 0 min 0,000 mm 0,0 UV-I 0 W/m 1,0 C -1,2 C 19,3 km/h (3 Bft) 95,83 %
24.02.2017 18:50 3,8 C 82 % 1013,3 hPa 0,0 l/m 15,5 km/h (3 Bft) SW 236 0 min 0,000 mm 0,0 UV-I 0 W/m 1,0 C -2,6 C 24,1 km/h (4 Bft) 94,00 %
24.02.2017 18:52 3,8 C 82 % 1013,3 hPa 0,0 l/m 13,3 km/h (3 Bft) W-SW 258 0 min 0,000 mm 0,0 UV-I 0 W/m 1,0 C -1,4 C 17,7 km/h (3 Bft) 92,00 %
24.02.2017 18:54 3,8 C 82 % 1013,4 hPa 0,0 l/m 15,8 km/h (3 Bft) W-SW 241 0 min 0,000 mm 0,0 UV-I 0 W/m 1,0 C -2,8 C 24,1 km/h (4 Bft) 97,56 %
24.02.2017 18:56 3,8 C 82 % 1013,5 hPa 0,0 l/m 14,3 km/h (3 Bft) SW 219 0 min 0,000 mm 0,0 UV-I 0 W/m 1,0 C -2,0 C 20,9 km/h (4 Bft) 96,00 %
24.02.2017 18:58 3,8 C 82 % 1013,5 hPa 0,0 l/m 15,9 km/h (3 Bft) SW 234 0 min 0,000 mm 0,0 UV-I 0 W/m 1,0 C -2,8 C 24,1 km/h (4 Bft) 86,00 %
24.02.2017 19:00 3,8 C 82 % 1013,6 hPa 0,0 l/m 13,4 km/h (3 Bft) W-SW 242 0 min 0,025 mm 0,0 UV-I 0 W/m 1,0 C -1,5 C 17,7 km/h (3 Bft) 97,87 %
24.02.2017 19:02 3,8 C 82 % 1013,6 hPa 0,0 l/m 13,8 km/h (3 Bft) W 265 0 min 0,000 mm 0,0 UV-I 0 W/m 1,0 C -1,7 C 19,3 km/h (3 Bft) 97,14 %
24.02.2017 19:04 3,8 C 82 % 1013,6 hPa 0,0 l/m 12,6 km/h (3 Bft) W-SW 238 0 min 0,000 mm 0,0 UV-I 0 W/m 1,0 C -1,0 C 22,5 km/h (4 Bft) 92,86 %
24.02.2017 19:06 3,8 C 82 % 1013,6 hPa 0,0 l/m 16,0 km/h (3 Bft) S-SW 194 0 min 0,000 mm 0,0 UV-I 0 W/m 1,0 C -2,9 C 24,1 km/h (4 Bft) 93,62 %
24.02.2017 19:08 3,8 C 82 % 1013,6 hPa 0,0 l/m 15,9 km/h (3 Bft) W 271 0 min 0,000 mm 0,0 UV-I 0 W/m 1,0 C -2,8 C 27,4 km/h (4 Bft) 95,12 %
24.02.2017 19:10 3,8 C 82 % 1013,7 hPa 0,0 l/m 15,7 km/h (3 Bft) W 259 0 min 0,000 mm 0,0 UV-I 0 W/m 1,0 C -2,7 C 22,5 km/h (4 Bft) 92,00 %
24.02.2017 19:13 3,7 C 82 % 1013,9 hPa 0,0 l/m 16,5 km/h (3 Bft) SW 229 0 min 0,000 mm 0,0 UV-I 0 W/m 0,9 C -3,3 C 24,1 km/h (4 Bft) 96,10 %
24.02.2017 19:14 3,7 C 82 % 1013,9 hPa 0,0 l/m 18,0 km/h (3 Bft) W-SW 246 0 min 0,000 mm 0,0 UV-I 0 W/m 0,9 C -4,0 C 20,9 km/h (4 Bft) 100,00 %
24.02.2017 19:16 3,7 C 82 % 1013,9 hPa 0,0 l/m 14,6 km/h (3 Bft) SW 234 0 min 0,000 mm 0,0 UV-I 0 W/m 0,9 C -2,3 C 19,3 km/h (3 Bft) 94,29 %
24.02.2017 19:18 3,7 C 82 % 1013,9 hPa 0,0 l/m 14,3 km/h (3 Bft) W-SW 246 0 min 0,000 mm 0,0 UV-I 0 W/m 0,9 C -2,1 C 17,7 km/h (3 Bft) 90,57 %
24.02.2017 19:20 3,7 C 83 % 1013,9 hPa 0,0 l/m 12,7 km/h (3 Bft) SW 225 0 min 0,000 mm 0,0 UV-I 0 W/m 1,1 C -1,2 C 19,3 km/h (3 Bft) 98,11 %
24.02.2017 19:22 3,6 C 83 % 1013,9 hPa 0,0 l/m 17,4 km/h (3 Bft) S-SW 212 0 min 0,000 mm 0,0 UV-I 0 W/m 1,0 C -3,8 C 24,1 km/h (4 Bft) 96,30 %
24.02.2017 19:24 3,6 C 83 % 1014,0 hPa 0,0 l/m 14,6 km/h (3 Bft) W-SW 254 0 min 0,000 mm 0,0 UV-I 0 W/m 1,0 C -2,4 C 19,3 km/h (3 Bft) 97,01 %
24.02.2017 19:26 3,6 C 83 % 1014,0 hPa 0,0 l/m 15,9 km/h (3 Bft) SW 229 0 min 0,000 mm 0,0 UV-I 0 W/m 1,0 C -3,1 C 20,9 km/h (4 Bft) 92,11 %
24.02.2017 19:28 3,5 C 83 % 1014,0 hPa 0,0 l/m 15,0 km/h (3 Bft) SW 225 0 min 0,000 mm 0,0 UV-I 0 W/m 0,9 C -2,7 C 20,9 km/h (4 Bft) 100,00 %
24.02.2017 19:30 3,5 C 83 % 1014,2 hPa 0,0 l/m 13,9 km/h (3 Bft) W-SW 237 0 min 0,000 mm 0,0 UV-I 0 W/m 0,9 C -2,1 C 20,9 km/h (4 Bft) 100,00 %
24.02.2017 19:32 3,5 C 83 % 1014,2 hPa 0,0 l/m 13,2 km/h (3 Bft) SW 233 0 min 0,000 mm 0,0 UV-I 0 W/m 0,9 C -1,7 C 20,9 km/h (4 Bft) 92,86 %
24.02.2017 19:34 3,4 C 83 % 1014,3 hPa 0,0 l/m 13,9 km/h (3 Bft) SW 235 0 min 0,000 mm 0,0 UV-I 0 W/m 0,8 C -2,2 C 19,3 km/h (3 Bft) 96,23 %
24.02.2017 19:36 3,4 C 83 % 1014,4 hPa 0,0 l/m 14,7 km/h (3 Bft) S-SW 212 0 min 0,000 mm 0,0 UV-I 0 W/m 0,8 C -2,7 C 20,9 km/h (4 Bft) 97,37 %
24.02.2017 19:38 3,4 C 84 % 1014,4 hPa 0,0 l/m 16,0 km/h (3 Bft) W-SW 247 0 min 0,000 mm 0,0 UV-I 0 W/m 1,0 C -3,4 C 22,5 km/h (4 Bft) 92,00 %
24.02.2017 19:40 3,4 C 84 % 1014,4 hPa 0,0 l/m 12,9 km/h (3 Bft) W-SW 246 0 min 0,000 mm 0,0 UV-I 0 W/m 1,0 C -1,7 C 19,3 km/h (3 Bft) 98,11 %
24.02.2017 19:42 3,4 C 84 % 1014,4 hPa 0,0 l/m 12,1 km/h (2 Bft) W-SW 245 0 min 0,000 mm 0,0 UV-I 0 W/m 1,0 C -1,2 C 16,1 km/h (3 Bft) 93,62 %
24.02.2017 19:44 3,4 C 84 % 1014,4 hPa 0,0 l/m 14,2 km/h (3 Bft) SW 233 0 min 0,000 mm 0,0 UV-I 0 W/m 1,0 C -2,4 C 24,1 km/h (4 Bft) 97,14 %
24.02.2017 19:46 3,4 C 84 % 1014,4 hPa 0,0 l/m 11,3 km/h (2 Bft) SW 234 0 min 0,000 mm 0,0 UV-I 0 W/m 1,0 C -0,6 C 17,7 km/h (3 Bft) 97,56 %
24.02.2017 19:48 3,4 C 84 % 1014,4 hPa 0,0 l/m 12,8 km/h (3 Bft) W-SW 249 0 min 0,000 mm 0,0 UV-I 0 W/m 1,0 C -1,6 C 20,9 km/h (4 Bft) 96,43 %
24.02.2017 19:50 3,4 C 84 % 1014,3 hPa 0,0 l/m 15,0 km/h (3 Bft) W-SW 248 0 min 0,000 mm 0,0 UV-I 0 W/m 1,0 C -2,9 C 24,1 km/h (4 Bft) 98,11 %
24.02.2017 19:52 3,4 C 84 % 1014,4 hPa 0,0 l/m 13,3 km/h (3 Bft) SW 219 0 min 0,000 mm 0,0 UV-I 0 W/m 1,0 C -1,9 C 17,7 km/h (3 Bft) 95,12 %
24.02.2017 19:54 3,3 C 84 % 1014,4 hPa 0,0 l/m 10,9 km/h (2 Bft) W-SW 250 0 min 0,000 mm 0,0 UV-I 0 W/m 0,9 C -0,5 C 16,1 km/h (3 Bft) 100,00 %
24.02.2017 19:56 3,3 C 84 % 1014,4 hPa 0,0 l/m 12,9 km/h (3 Bft) SW 229 0 min 0,000 mm 0,0 UV-I 0 W/m 0,9 C -1,8 C 19,3 km/h (3 Bft) 100,00 %
24.02.2017 19:58 3,3 C 84 % 1014,5 hPa 0,0 l/m 13,1 km/h (3 Bft) W 259 0 min 0,000 mm 0,0 UV-I 0 W/m 0,9 C -1,9 C 19,3 km/h (3 Bft) 97,37 %
24.02.2017 20:00 3,3 C 84 % 1014,5 hPa 0,0 l/m 13,0 km/h (3 Bft) SW 220 0 min 0,000 mm 0,0 UV-I 0 W/m 0,9 C -1,8 C 17,7 km/h (3 Bft) 97,73 %
24.02.2017 20:02 3,3 C 84 % 1014,5 hPa 0,0 l/m 12,1 km/h (2 Bft) W-SW 257 0 min 0,026 mm 0,0 UV-I 0 W/m 0,9 C -1,3 C 20,9 km/h (4 Bft) 94,00 %
24.02.2017 20:04 3,2 C 85 % 1014,6 hPa 0,0 l/m 12,3 km/h (3 Bft) W-SW 258 0 min 0,000 mm 0,0 UV-I 0 W/m 0,9 C -1,5 C 17,7 km/h (3 Bft) 94,34 %
24.02.2017 20:06 3,2 C 85 % 1014,6 hPa 0,0 l/m 12,8 km/h (3 Bft) W-SW 246 0 min 0,000 mm 0,0 UV-I 0 W/m 0,9 C -1,8 C 19,3 km/h (3 Bft) 100,00 %
24.02.2017 20:08 3,1 C 85 % 1014,7 hPa 0,0 l/m 11,3 km/h (2 Bft) SW 236 0 min 0,000 mm 0,0 UV-I 0 W/m 0,8 C -1,0 C 16,1 km/h (3 Bft) 98,11 %
24.02.2017 20:10 3,1 C 85 % 1014,7 hPa 0,0 l/m 12,4 km/h (3 Bft) W-SW 249 0 min 0,000 mm 0,0 UV-I 0 W/m 0,8 C -1,7 C 16,1 km/h (3 Bft) 92,86 %
24.02.2017 20:12 3,1 C 85 % 1014,7 hPa 0,0 l/m 12,2 km/h (2 Bft) W-SW 253 0 min 0,000 mm 0,0 UV-I 0 W/m 0,8 C -1,6 C 17,7 km/h (3 Bft) 94,34 %
24.02.2017 20:14 3,0 C 85 % 1014,8 hPa 0,0 l/m 14,8 km/h (3 Bft) SW 232 0 min 0,000 mm 0,0 UV-I 0 W/m 0,7 C -3,2 C 20,9 km/h (4 Bft) 94,74 %
24.02.2017 20:16 3,0 C 85 % 1014,8 hPa 0,0 l/m 10,7 km/h (2 Bft) W-SW 251 0 min 0,000 mm 0,0 UV-I 0 W/m 0,7 C -0,7 C 16,1 km/h (3 Bft) 92,31 %
24.02.2017 20:18 3,0 C 85 % 1014,9 hPa 0,0 l/m 9,8 km/h (2 Bft) W-SW 245 0 min 0,000 mm 0,0 UV-I 0 W/m 0,7 C 0,0 C 14,5 km/h (3 Bft) 97,40 %
24.02.2017 20:20 2,9 C 85 % 1014,9 hPa 0,0 l/m 10,5 km/h (2 Bft) SW 232 0 min 0,000 mm 0,0 UV-I 0 W/m 0,6 C -0,6 C 16,1 km/h (3 Bft) 89,47 %
24.02.2017 20:23 2,9 C 85 % 1015,0 hPa 0,0 l/m 8,5 km/h (2 Bft) SW 227 0 min 0,000 mm 0,0 UV-I 0 W/m 0,6 C 1,0 C 12,9 km/h (3 Bft) 98,51 %
24.02.2017 20:24 2,9 C 85 % 1015,0 hPa 0,0 l/m 8,8 km/h (2 Bft) SW 223 0 min 0,000 mm 0,0 UV-I 0 W/m 0,6 C 0,7 C 12,9 km/h (3 Bft) 96,30 %
24.02.2017 20:26 2,9 C 85 % 1015,1 hPa 0,0 l/m 9,4 km/h (2 Bft) SW 223 0 min 0,000 mm 0,0 UV-I 0 W/m 0,6 C 0,2 C 14,5 km/h (3 Bft) 93,62 %
24.02.2017 20:28 2,8 C 85 % 1015,2 hPa 0,0 l/m 8,3 km/h (2 Bft) W-SW 244 0 min 0,000 mm 0,0 UV-I 0 W/m 0,5 C 1,0 C 16,1 km/h (3 Bft) 97,56 %
24.02.2017 20:30 2,8 C 85 % 1015,3 hPa 0,0 l/m 6,8 km/h (2 Bft) SW 235 0 min 0,000 mm 0,0 UV-I 0 W/m 0,5 C 2,4 C 9,7 km/h (2 Bft) 96,23 %
24.02.2017 20:32 2,8 C 86 % 1015,3 hPa 0,0 l/m 8,1 km/h (2 Bft) SW 215 0 min 0,000 mm 0,0 UV-I 0 W/m 0,7 C 1,2 C 14,5 km/h (3 Bft) 98,11 %
24.02.2017 20:34 2,8 C 86 % 1015,4 hPa 0,0 l/m 8,7 km/h (2 Bft) S-SW 205 0 min 0,000 mm 0,0 UV-I 0 W/m 0,7 C 0,7 C 14,5 km/h (3 Bft) 95,45 %
24.02.2017 20:36 2,8 C 86 % 1015,5 hPa 0,0 l/m 8,7 km/h (2 Bft) S-SW 213 0 min 0,000 mm 0,0 UV-I 0 W/m 0,7 C 0,7 C 12,9 km/h (3 Bft) 95,45 %
24.02.2017 20:38 2,8 C 86 % 1015,5 hPa 0,0 l/m 9,9 km/h (2 Bft) W-SW 246 0 min 0,000 mm 0,0 UV-I 0 W/m 0,7 C -0,3 C 14,5 km/h (3 Bft) 95,74 %
24.02.2017 20:40 2,7 C 86 % 1015,6 hPa 0,0 l/m 7,5 km/h (2 Bft) SW 229 0 min 0,000 mm 0,0 UV-I 0 W/m 0,6 C 1,6 C 11,3 km/h (2 Bft) 90,57 %
24.02.2017 20:42 2,7 C 86 % 1015,6 hPa 0,0 l/m 7,2 km/h (2 Bft) W-SW 240 0 min 0,000 mm 0,0 UV-I 0 W/m 0,6 C 1,9 C 11,3 km/h (2 Bft) 90,24 %
24.02.2017 20:44 2,7 C 86 % 1015,7 hPa 0,0 l/m 6,9 km/h (2 Bft) W-SW 243 0 min 0,000 mm 0,0 UV-I 0 W/m 0,6 C 2,2 C 9,7 km/h (2 Bft) 95,74 %
24.02.2017 20:46 2,6 C 86 % 1015,8 hPa 0,0 l/m 6,3 km/h (2 Bft) S-SW 209 0 min 0,000 mm 0,0 UV-I 0 W/m 0,5 C 2,6 C 9,7 km/h (2 Bft) 95,56 %
24.02.2017 20:48 2,6 C 87 % 1015,8 hPa 0,0 l/m 7,2 km/h (2 Bft) S-SW 210 0 min 0,000 mm 0,0 UV-I 0 W/m 0,7 C 1,8 C 9,7 km/h (2 Bft) 95,92 %
24.02.2017 20:50 2,6 C 87 % 1015,9 hPa 0,0 l/m 8,3 km/h (2 Bft) S-SW 205 0 min 0,000 mm 0,0 UV-I 0 W/m 0,7 C 0,8 C 11,3 km/h (2 Bft) 97,44 %
24.02.2017 20:52 2,6 C 87 % 1015,9 hPa 0,0 l/m 7,4 km/h (2 Bft) S-SW 209 0 min 0,000 mm 0,0 UV-I 0 W/m 0,7 C 1,6 C 11,3 km/h (2 Bft) 96,67 %
24.02.2017 20:54 2,6 C 87 % 1016,0 hPa 0,0 l/m 7,8 km/h (2 Bft) SW 217 0 min 0,000 mm 0,0 UV-I 0 W/m 0,7 C 1,3 C 12,9 km/h (3 Bft) 89,74 %
24.02.2017 20:56 2,6 C 87 % 1016,0 hPa 0,0 l/m 7,8 km/h (2 Bft) SW 236 0 min 0,000 mm 0,0 UV-I 0 W/m 0,7 C 1,3 C 11,3 km/h (2 Bft) 94,00 %
24.02.2017 20:58 2,6 C 87 % 1016,1 hPa 0,0 l/m 8,3 km/h (2 Bft) SW 234 0 min 0,000 mm 0,0 UV-I 0 W/m 0,7 C 0,8 C 12,9 km/h (3 Bft) 91,49 %
24.02.2017 21:00 2,6 C 87 % 1016,1 hPa 0,0 l/m 9,9 km/h (2 Bft) S-SW 207 0 min 0,025 mm 0,0 UV-I 0 W/m 0,7 C -0,5 C 14,5 km/h (3 Bft) 92,00 %
24.02.2017 21:02 2,6 C 87 % 1016,1 hPa 0,0 l/m 9,4 km/h (2 Bft) W-SW 256 0 min 0,000 mm 0,0 UV-I 0 W/m 0,7 C -0,1 C 14,5 km/h (3 Bft) 94,74 %
24.02.2017 21:04 2,7 C 87 % 1016,2 hPa 0,0 l/m 9,9 km/h (2 Bft) S-SW 196 0 min 0,000 mm 0,0 UV-I 0 W/m 0,8 C -0,4 C 16,1 km/h (3 Bft) 98,00 %
24.02.2017 21:06 2,7 C 87 % 1016,3 hPa 0,0 l/m 9,3 km/h (2 Bft) W-SW 257 0 min 0,000 mm 0,0 UV-I 0 W/m 0,8 C 0,1 C 16,1 km/h (3 Bft) 88,68 %
24.02.2017 21:08 2,8 C 87 % 1016,3 hPa 0,0 l/m 10,3 km/h (2 Bft) SW 225 0 min 0,000 mm 0,0 UV-I 0 W/m 0,9 C -0,6 C 16,1 km/h (3 Bft) 91,49 %
24.02.2017 21:10 2,8 C 86 % 1016,4 hPa 0,0 l/m 10,1 km/h (2 Bft) SW 229 0 min 0,000 mm 0,0 UV-I 0 W/m 0,7 C -0,4 C 14,5 km/h (3 Bft) 92,68 %
24.02.2017 21:12 2,8 C 86 % 1016,4 hPa 0,0 l/m 8,3 km/h (2 Bft) S-SW 212 0 min 0,000 mm 0,0 UV-I 0 W/m 0,7 C 1,0 C 12,9 km/h (3 Bft) 94,00 %
24.02.2017 21:14 2,9 C 86 % 1016,5 hPa 0,0 l/m 10,4 km/h (2 Bft) SW 219 0 min 0,000 mm 0,0 UV-I 0 W/m 0,8 C -0,5 C 16,1 km/h (3 Bft) 95,74 %
24.02.2017 21:16 2,9 C 86 % 1016,5 hPa 0,0 l/m 9,9 km/h (2 Bft) W-SW 246 0 min 0,000 mm 0,0 UV-I 0 W/m 0,8 C -0,2 C 16,1 km/h (3 Bft) 95,74 %
24.02.2017 21:18 2,9 C 86 % 1016,6 hPa 0,0 l/m 9,7 km/h (2 Bft) S-SW 202 0 min 0,000 mm 0,0 UV-I 0 W/m 0,8 C -0,0 C 14,5 km/h (3 Bft) 92,68 %
24.02.2017 21:20 2,9 C 86 % 1016,6 hPa 0,0 l/m 13,3 km/h (3 Bft) SW 230 0 min 0,000 mm 0,0 UV-I 0 W/m 0,8 C -2,5 C 17,7 km/h (3 Bft) 97,56 %
24.02.2017 21:22 3,0 C 86 % 1016,6 hPa 0,0 l/m 11,5 km/h (2 Bft) SW 232 0 min 0,000 mm 0,0 UV-I 0 W/m 0,9 C -1,2 C 20,9 km/h (4 Bft) 98,39 %
24.02.2017 21:24 3,1 C 85 % 1016,6 hPa 0,0 l/m 13,6 km/h (3 Bft) S-SW 209 0 min 0,000 mm 0,0 UV-I 0 W/m 0,8 C -2,4 C 19,3 km/h (3 Bft) 92,68 %
24.02.2017 21:26 3,1 C 85 % 1016,7 hPa 0,0 l/m 11,3 km/h (2 Bft) S-SW 207 0 min 0,000 mm 0,0 UV-I 0 W/m 0,8 C -1,0 C 19,3 km/h (3 Bft) 94,00 %
24.02.2017 21:28 3,1 C 85 % 1016,7 hPa 0,0 l/m 12,5 km/h (3 Bft) SW 223 0 min 0,000 mm 0,0 UV-I 0 W/m 0,8 C -1,8 C 20,9 km/h (4 Bft) 93,62 %
24.02.2017 21:30 3,1 C 85 % 1016,7 hPa 0,0 l/m 13,4 km/h (3 Bft) S-SW 210 0 min 0,000 mm 0,0 UV-I 0 W/m 0,8 C -2,3 C 20,9 km/h (4 Bft) 97,62 %
24.02.2017 21:32 3,1 C 85 % 1016,7 hPa 0,0 l/m 10,8 km/h (2 Bft) SW 214 0 min 0,000 mm 0,0 UV-I 0 W/m 0,8 C -0,6 C 16,1 km/h (3 Bft) 94,00 %
24.02.2017 21:34 3,1 C 85 % 1016,8 hPa 0,0 l/m 13,8 km/h (3 Bft) S-SW 207 0 min 0,000 mm 0,0 UV-I 0 W/m 0,8 C -2,5 C 22,5 km/h (4 Bft) 98,00 %
24.02.2017 21:36 3,1 C 85 % 1016,8 hPa 0,0 l/m 13,4 km/h (3 Bft) SW 215 0 min 0,000 mm 0,0 UV-I 0 W/m 0,8 C -2,3 C 20,9 km/h (4 Bft) 100,00 %
24.02.2017 21:38 3,1 C 85 % 1016,9 hPa 0,0 l/m 10,3 km/h (2 Bft) S-SW 205 0 min 0,000 mm 0,0 UV-I 0 W/m 0,8 C -0,2 C 20,9 km/h (4 Bft) 88,00 %
24.02.2017 21:40 3,0 C 86 % 1016,9 hPa 0,0 l/m 12,5 km/h (3 Bft) S-SW 213 0 min 0,000 mm 0,0 UV-I 0 W/m 0,9 C -1,9 C 20,9 km/h (4 Bft) 100,00 %
24.02.2017 21:43 3,0 C 86 % 1017,0 hPa 0,0 l/m 9,8 km/h (2 Bft) SW 234 0 min 0,000 mm 0,0 UV-I 0 W/m 0,9 C 0,0 C 17,7 km/h (3 Bft) 95,89 %
24.02.2017 21:44 3,0 C 86 % 1017,0 hPa 0,0 l/m 9,1 km/h (2 Bft) W-SW 240 0 min 0,000 mm 0,0 UV-I 0 W/m 0,9 C 0,6 C 12,9 km/h (3 Bft) 93,33 %
24.02.2017 21:46 2,9 C 86 % 1017,0 hPa 0,0 l/m 11,6 km/h (2 Bft) SW 235 0 min 0,000 mm 0,0 UV-I 0 W/m 0,8 C -1,4 C 16,1 km/h (3 Bft) 92,00 %
24.02.2017 21:48 2,9 C 86 % 1017,0 hPa 0,0 l/m 9,9 km/h (2 Bft) SW 223 0 min 0,000 mm 0,0 UV-I 0 W/m 0,8 C -0,2 C 16,1 km/h (3 Bft) 92,68 %
24.02.2017 21:50 2,9 C 86 % 1017,0 hPa 0,0 l/m 12,8 km/h (3 Bft) SW 225 0 min 0,000 mm 0,0 UV-I 0 W/m 0,8 C -2,2 C 19,3 km/h (3 Bft) 98,00 %
24.02.2017 21:53 2,8 C 86 % 1017,1 hPa 0,0 l/m 13,0 km/h (3 Bft) S-SW 209 0 min 0,000 mm 0,0 UV-I 0 W/m 0,7 C -2,4 C 19,3 km/h (3 Bft) 93,51 %
24.02.2017 21:54 2,8 C 86 % 1017,1 hPa 0,0 l/m 8,1 km/h (2 Bft) W-SW 245 0 min 0,000 mm 0,0 UV-I 0 W/m 0,7 C 1,2 C 17,7 km/h (3 Bft) 90,91 %
24.02.2017 21:56 2,8 C 86 % 1017,1 hPa 0,0 l/m 10,3 km/h (2 Bft) W-SW 257 0 min 0,000 mm 0,0 UV-I 0 W/m 0,7 C -0,6 C 14,5 km/h (3 Bft) 98,31 %
24.02.2017 21:58 2,7 C 87 % 1017,1 hPa 0,0 l/m 10,6 km/h (2 Bft) SW 227 0 min 0,000 mm 0,0 UV-I 0 W/m 0,8 C -0,9 C 17,7 km/h (3 Bft) 95,45 %
24.02.2017 22:00 2,7 C 87 % 1017,2 hPa 0,0 l/m 8,6 km/h (2 Bft) W 261 0 min 0,000 mm 0,0 UV-I 0 W/m 0,8 C 0,7 C 14,5 km/h (3 Bft) 97,73 %
24.02.2017 22:02 2,7 C 87 % 1017,2 hPa 0,0 l/m 11,0 km/h (2 Bft) W-SW 242 0 min 0,025 mm 0,0 UV-I 0 W/m 0,8 C -1,2 C 16,1 km/h (3 Bft) 100,00 %
24.02.2017 22:04 2,6 C 87 % 1017,3 hPa 0,0 l/m 9,9 km/h (2 Bft) W 270 0 min 0,000 mm 0,0 UV-I 0 W/m 0,7 C -0,5 C 12,9 km/h (3 Bft) 95,45 %
24.02.2017 22:06 2,6 C 87 % 1017,4 hPa 0,0 l/m 10,8 km/h (2 Bft) SW 234 0 min 0,000 mm 0,0 UV-I 0 W/m 0,7 C -1,2 C 16,1 km/h (3 Bft) 100,00 %
24.02.2017 22:08 2,6 C 87 % 1017,4 hPa 0,0 l/m 11,7 km/h (2 Bft) W-SW 250 0 min 0,000 mm 0,0 UV-I 0 W/m 0,7 C -1,8 C 16,1 km/h (3 Bft) 98,00 %
24.02.2017 22:10 2,6 C 87 % 1017,4 hPa 0,0 l/m 12,0 km/h (2 Bft) W-SW 246 0 min 0,000 mm 0,0 UV-I 0 W/m 0,7 C -2,0 C 16,1 km/h (3 Bft) 94,23 %
24.02.2017 22:13 2,6 C 87 % 1017,4 hPa 0,0 l/m 8,3 km/h (2 Bft) SW 216 0 min 0,000 mm 0,0 UV-I 0 W/m 0,7 C 0,8 C 14,5 km/h (3 Bft) 98,46 %
24.02.2017 22:14 2,6 C 87 % 1017,4 hPa 0,0 l/m 8,8 km/h (2 Bft) W-SW 250 0 min 0,000 mm 0,0 UV-I 0 W/m 0,7 C 0,4 C 12,9 km/h (3 Bft) 100,00 %
24.02.2017 22:16 2,6 C 87 % 1017,5 hPa 0,0 l/m 10,4 km/h (2 Bft) W-SW 248 0 min 0,000 mm 0,0 UV-I 0 W/m 0,7 C -0,9 C 16,1 km/h (3 Bft) 97,87 %
24.02.2017 22:18 2,5 C 87 % 1017,5 hPa 0,0 l/m 8,6 km/h (2 Bft) SW 218 0 min 0,000 mm 0,0 UV-I 0 W/m 0,6 C 0,4 C 11,3 km/h (2 Bft) 97,56 %
24.02.2017 22:20 2,4 C 87 % 1017,6 hPa 0,0 l/m 8,3 km/h (2 Bft) W-SW 242 0 min 0,000 mm 0,0 UV-I 0 W/m 0,5 C 0,6 C 12,9 km/h (3 Bft) 94,34 %
24.02.2017 22:23 2,4 C 87 % 1017,6 hPa 0,0 l/m 7,6 km/h (2 Bft) SW 231 0 min 0,000 mm 0,0 UV-I 0 W/m 0,5 C 1,2 C 14,5 km/h (3 Bft) 97,37 %
24.02.2017 22:24 2,3 C 87 % 1017,6 hPa 0,0 l/m 9,7 km/h (2 Bft) SW 234 0 min 0,000 mm 0,0 UV-I 0 W/m 0,4 C -0,7 C 14,5 km/h (3 Bft) 100,00 %
24.02.2017 22:26 2,3 C 87 % 1017,7 hPa 0,0 l/m 8,9 km/h (2 Bft) SW 219 0 min 0,000 mm 0,0 UV-I 0 W/m 0,4 C -0,0 C 12,9 km/h (3 Bft) 97,37 %
24.02.2017 22:28 2,3 C 87 % 1017,7 hPa 0,0 l/m 9,7 km/h (2 Bft) SW 231 0 min 0,000 mm 0,0 UV-I 0 W/m 0,4 C -0,7 C 14,5 km/h (3 Bft) 96,23 %
24.02.2017 22:30 2,2 C 87 % 1017,7 hPa 0,0 l/m 9,4 km/h (2 Bft) SW 225 0 min 0,000 mm 0,0 UV-I 0 W/m 0,3 C -0,5 C 14,5 km/h (3 Bft) 96,61 %
24.02.2017 22:32 2,2 C 88 % 1017,7 hPa 0,0 l/m 9,6 km/h (2 Bft) SW 225 0 min 0,000 mm 0,0 UV-I 0 W/m 0,4 C -0,7 C 12,9 km/h (3 Bft) 97,56 %
24.02.2017 22:34 2,2 C 88 % 1017,8 hPa 0,0 l/m 11,5 km/h (2 Bft) W-SW 243 0 min 0,000 mm 0,0 UV-I 0 W/m 0,4 C -2,1 C 17,7 km/h (3 Bft) 93,18 %
24.02.2017 22:36 2,2 C 88 % 1017,7 hPa 0,0 l/m 11,7 km/h (2 Bft) W-SW 243 0 min 0,000 mm 0,0 UV-I 0 W/m 0,4 C -2,3 C 17,7 km/h (3 Bft) 98,11 %
24.02.2017 22:38 2,2 C 88 % 1017,7 hPa 0,0 l/m 12,5 km/h (3 Bft) SW 227 0 min 0,000 mm 0,0 UV-I 0 W/m 0,4 C -2,8 C 17,7 km/h (3 Bft) 95,74 %
24.02.2017 22:40 2,1 C 88 % 1017,7 hPa 0,0 l/m 12,6 km/h (3 Bft) S-SW 198 0 min 0,000 mm 0,0 UV-I 0 W/m 0,3 C -3,0 C 17,7 km/h (3 Bft) 97,56 %
24.02.2017 22:42 2,1 C 88 % 1017,7 hPa 0,0 l/m 11,3 km/h (2 Bft) SW 236 0 min 0,000 mm 0,0 UV-I 0 W/m 0,3 C -2,1 C 16,1 km/h (3 Bft) 96,23 %
24.02.2017 22:44 2,1 C 88 % 1017,8 hPa 0,0 l/m 11,4 km/h (2 Bft) W-SW 243 0 min 0,000 mm 0,0 UV-I 0 W/m 0,3 C -2,2 C 17,7 km/h (3 Bft) 95,12 %
24.02.2017 22:46 2,1 C 88 % 1017,8 hPa 0,0 l/m 13,2 km/h (3 Bft) SW 234 0 min 0,000 mm 0,0 UV-I 0 W/m 0,3 C -3,4 C 17,7 km/h (3 Bft) 95,83 %
24.02.2017 22:48 2,0 C 88 % 1017,8 hPa 0,0 l/m 13,6 km/h (3 Bft) W 260 0 min 0,000 mm 0,0 UV-I 0 W/m 0,2 C -3,7 C 16,1 km/h (3 Bft) 97,56 %
24.02.2017 22:50 2,0 C 88 % 1017,8 hPa 0,0 l/m 13,3 km/h (3 Bft) SW 229 0 min 0,000 mm 0,0 UV-I 0 W/m 0,2 C -3,5 C 19,3 km/h (3 Bft) 92,86 %
24.02.2017 22:52 2,0 C 88 % 1017,8 hPa 0,0 l/m 11,2 km/h (2 Bft) SW 234 0 min 0,000 mm 0,0 UV-I 0 W/m 0,2 C -2,1 C 14,5 km/h (3 Bft) 97,56 %
24.02.2017 22:54 2,0 C 88 % 1017,9 hPa 0,0 l/m 11,6 km/h (2 Bft) SW 223 0 min 0,000 mm 0,0 UV-I 0 W/m 0,2 C -2,4 C 16,1 km/h (3 Bft) 97,87 %
24.02.2017 22:56 1,9 C 88 % 1018,0 hPa 0,0 l/m 12,7 km/h (3 Bft) SW 234 0 min 0,000 mm 0,0 UV-I 0 W/m 0,1 C -3,3 C 19,3 km/h (3 Bft) 95,74 %
24.02.2017 22:58 1,9 C 88 % 1018,0 hPa 0,0 l/m 11,1 km/h (2 Bft) W-SW 238 0 min 0,000 mm 0,0 UV-I 0 W/m 0,1 C -2,2 C 14,5 km/h (3 Bft) 100,00 %
24.02.2017 23:00 1,9 C 88 % 1018,0 hPa 0,0 l/m 9,6 km/h (2 Bft) S-SW 212 0 min 0,000 mm 0,0 UV-I 0 W/m 0,1 C -1,0 C 14,5 km/h (3 Bft) 94,64 %
24.02.2017 23:02 1,9 C 88 % 1018,1 hPa 0,0 l/m 12,0 km/h (2 Bft) SW 234 0 min 0,026 mm 0,0 UV-I 0 W/m 0,1 C -2,8 C 16,1 km/h (3 Bft) 97,73 %
24.02.2017 23:04 1,8 C 88 % 1018,1 hPa 0,0 l/m 11,3 km/h (2 Bft) SW 214 0 min 0,000 mm 0,0 UV-I 0 W/m 0,0 C -2,4 C 17,7 km/h (3 Bft) 100,00 %
24.02.2017 23:06 1,8 C 88 % 1018,1 hPa 0,0 l/m 11,9 km/h (2 Bft) SW 223 0 min 0,000 mm 0,0 UV-I 0 W/m 0,0 C -2,9 C 16,1 km/h (3 Bft) 95,12 %
24.02.2017 23:08 1,8 C 88 % 1018,1 hPa 0,0 l/m 12,5 km/h (3 Bft) SW 225 0 min 0,000 mm 0,0 UV-I 0 W/m 0,0 C -3,3 C 17,7 km/h (3 Bft) 94,34 %
24.02.2017 23:10 1,8 C 88 % 1018,1 hPa 0,0 l/m 12,8 km/h (3 Bft) SW 224 0 min 0,000 mm 0,0 UV-I 0 W/m 0,0 C -3,5 C 17,7 km/h (3 Bft) 95,45 %
24.02.2017 23:13 1,8 C 88 % 1018,1 hPa 0,0 l/m 11,3 km/h (2 Bft) W-SW 238 0 min 0,000 mm 0,0 UV-I 0 W/m 0,0 C -2,4 C 17,7 km/h (3 Bft) 97,18 %
24.02.2017 23:14 1,8 C 88 % 1018,1 hPa 0,0 l/m 12,6 km/h (3 Bft) SW 223 0 min 0,000 mm 0,0 UV-I 0 W/m 0,0 C -3,3 C 17,7 km/h (3 Bft) 91,30 %
24.02.2017 23:16 1,7 C 88 % 1018,2 hPa 0,0 l/m 11,4 km/h (2 Bft) W-SW 242 0 min 0,000 mm 0,0 UV-I 0 W/m -0,1 C -2,6 C 17,7 km/h (3 Bft) 97,37 %
24.02.2017 23:18 1,7 C 88 % 1018,2 hPa 0,0 l/m 9,5 km/h (2 Bft) W-SW 241 0 min 0,000 mm 0,0 UV-I 0 W/m -0,1 C -1,2 C 14,5 km/h (3 Bft) 94,12 %
24.02.2017 23:20 1,7 C 88 % 1018,2 hPa 0,0 l/m 10,2 km/h (2 Bft) SW 221 0 min 0,000 mm 0,0 UV-I 0 W/m -0,1 C -1,7 C 14,5 km/h (3 Bft) 97,44 %
24.02.2017 23:22 1,7 C 88 % 1018,2 hPa 0,0 l/m 10,1 km/h (2 Bft) S-SW 198 0 min 0,000 mm 0,0 UV-I 0 W/m -0,1 C -1,7 C 16,1 km/h (3 Bft) 94,23 %
24.02.2017 23:24 1,7 C 88 % 1018,2 hPa 0,0 l/m 12,3 km/h (3 Bft) SW 233 0 min 0,000 mm 0,0 UV-I 0 W/m -0,1 C -3,2 C 16,1 km/h (3 Bft) 94,64 %
24.02.2017 23:26 1,6 C 88 % 1018,2 hPa 0,0 l/m 9,7 km/h (2 Bft) W-SW 240 0 min 0,000 mm 0,0 UV-I 0 W/m -0,2 C -1,4 C 14,5 km/h (3 Bft) 92,68 %
24.02.2017 23:28 1,6 C 88 % 1018,3 hPa 0,0 l/m 11,2 km/h (2 Bft) SW 234 0 min 0,000 mm 0,0 UV-I 0 W/m -0,2 C -2,6 C 16,1 km/h (3 Bft) 94,87 %
24.02.2017 23:30 1,6 C 88 % 1018,3 hPa 0,0 l/m 10,8 km/h (2 Bft) SW 230 0 min 0,000 mm 0,0 UV-I 0 W/m -0,2 C -2,3 C 16,1 km/h (3 Bft) 91,53 %
24.02.2017 23:32 1,6 C 88 % 1018,2 hPa 0,0 l/m 10,1 km/h (2 Bft) SW 218 0 min 0,000 mm 0,0 UV-I 0 W/m -0,2 C -1,8 C 14,5 km/h (3 Bft) 96,15 %
24.02.2017 23:34 1,6 C 88 % 1018,3 hPa 0,0 l/m 9,0 km/h (2 Bft) SW 227 0 min 0,000 mm 0,0 UV-I 0 W/m -0,2 C -0,9 C 11,3 km/h (2 Bft) 89,23 %
24.02.2017 23:36 1,6 C 88 % 1018,3 hPa 0,0 l/m 9,8 km/h (2 Bft) S-SW 205 0 min 0,000 mm 0,0 UV-I 0 W/m -0,2 C -1,5 C 12,9 km/h (3 Bft) 98,11 %
24.02.2017 23:38 1,6 C 88 % 1018,4 hPa 0,0 l/m 8,9 km/h (2 Bft) W-SW 240 0 min 0,000 mm 0,0 UV-I 0 W/m -0,2 C -0,8 C 12,9 km/h (3 Bft) 97,37 %
24.02.2017 23:40 1,5 C 89 % 1018,4 hPa 0,0 l/m 9,4 km/h (2 Bft) W-SW 244 0 min 0,000 mm 0,0 UV-I 0 W/m -0,1 C -1,3 C 12,9 km/h (3 Bft) 98,11 %
24.02.2017 23:42 1,5 C 89 % 1018,4 hPa 0,0 l/m 10,1 km/h (2 Bft) W-SW 238 0 min 0,000 mm 0,0 UV-I 0 W/m -0,1 C -1,9 C 14,5 km/h (3 Bft) 95,74 %
24.02.2017 23:44 1,5 C 89 % 1018,4 hPa 0,0 l/m 9,5 km/h (2 Bft) SW 221 0 min 0,000 mm 0,0 UV-I 0 W/m -0,1 C -1,4 C 14,5 km/h (3 Bft) 97,56 %
24.02.2017 23:46 1,5 C 89 % 1018,5 hPa 0,0 l/m 7,6 km/h (2 Bft) W-SW 240 0 min 0,000 mm 0,0 UV-I 0 W/m -0,1 C 0,3 C 12,9 km/h (3 Bft) 100,00 %
24.02.2017 23:48 1,4 C 89 % 1018,5 hPa 0,0 l/m 8,3 km/h (2 Bft) SW 231 0 min 0,000 mm 0,0 UV-I 0 W/m -0,2 C -0,5 C 14,5 km/h (3 Bft) 97,56 %
24.02.2017 23:50 1,4 C 89 % 1018,5 hPa 0,0 l/m 8,5 km/h (2 Bft) S-SW 212 0 min 0,000 mm 0,0 UV-I 0 W/m -0,2 C -0,6 C 12,9 km/h (3 Bft) 97,56 %
24.02.2017 23:52 1,4 C 89 % 1018,5 hPa 0,0 l/m 8,4 km/h (2 Bft) W-SW 254 0 min 0,000 mm 0,0 UV-I 0 W/m -0,2 C -0,5 C 16,1 km/h (3 Bft) 98,00 %
24.02.2017 23:54 1,4 C 89 % 1018,6 hPa 0,0 l/m 8,4 km/h (2 Bft) S-SW 213 0 min 0,000 mm 0,0 UV-I 0 W/m -0,2 C -0,5 C 12,9 km/h (3 Bft) 96,00 %
24.02.2017 23:56 1,4 C 89 % 1018,6 hPa 0,0 l/m 10,9 km/h (2 Bft) SW 234 0 min 0,000 mm 0,0 UV-I 0 W/m -0,2 C -2,6 C 17,7 km/h (3 Bft) 98,11 %
24.02.2017 23:58 1,3 C 89 % 1018,6 hPa 0,0 l/m 11,1 km/h (2 Bft) W-SW 240 0 min 0,000 mm 0,0 UV-I 0 W/m -0,3 C -2,9 C 14,5 km/h (3 Bft) 100,00 %
_ Min-Zeit 23:56 00:00 00:23 - 02:21 - - - - - - 13:15 17:20 02:21 04:05
Minimum _ 1,3 C 46 % 997,7 hPa - 5,0 km/h (1 Bft) - - - - - - -0,4 C -6,9 C 6,4 km/h (2 Bft) 50,00 %
_ Max-Zeit 00:00 23:40 23:54 04:31 04:41 - - 17:07 13:01 11:25 13:56 03:55 00:43 04:40 00:00
Maximum _ 12,8 C 89 % 1018,6 hPa 0,2 l/m 38,5 km/h
W-SW (5 Bft)
- - 2 min 0,178 mm 1,1 UV-I 522 W/m 4,6 C 12,0 C 62,8 km/h
W (8 Bft)
100,00 %
Durchschnitt _ 6,5 C 74 % 1007,9 hPa #0,2 l/m 17,6 km/h (3 Bft) W-SW - #2:47 h #1,829 mm 0,7 UV-I 153 W/m 1,9 C 0,1 C 25,6 km/h (4 Bft) 96,39 %